[[{"header":{"parameterUnit":"m.s-1","parameterCategory":1,"la1":30.6,"la2":28.766,"lo1":-90.7593,"lo2":-88.6598,"dy":0.0162,"dx":0.0183,"nx":116,"ny":114,"refTime":"2023-06-30T12:00:00:Z","depth":0,"parameterNumber":2,"parameterNumberName":"U-component_of_WINDS"},"data":[0.0,0.0,0.0,0.0,0.0,0.0,0.0,0.0,0.0,0.0,0.0,0.0,0.0,0.0,0.0,0.0,0.0,0.0,0.0,0.0,0.0,0.0,0.0,0.0,0.0,0.0,0.0,0.0,0.0,0.0,0.0,0.0,0.0,0.0,0.0,0.0,0.0,0.0,0.0,0.0,0.0,0.0,0.0,0.0,0.0,0.0,0.0,0.0,0.0,0.0,0.0,0.0,0.0,0.0,0.0,0.0,0.0,0.0,0.0,0.0,0.0,0.0,0.0,0.0,0.0,0.0,0.0,0.0,0.0,0.0,0.0,0.0,0.0,0.0,0.0,0.0,0.0,0.0,0.0,0.0,0.0,0.0,0.0,0.0,0.0,0.0,0.0,0.0,0.0,0.0,0.0,0.0,0.0,0.0,0.0,0.0,0.0,0.0,0.0,0.0,0.0,0.0,0.0,0.0,0.0,0.0,0.0,0.0,0.0,0.0,0.0,0.0,0.0,0.0,0.0,0.0,0.0,0.0,0.0,0.0,0.0,0.0,0.0,0.0,0.0,0.0,0.0,0.0,0.0,0.0,0.0,0.0,0.0,0.0,0.0,0.0,0.0,0.0,0.0,0.0,0.0,0.0,0.0,0.0,0.0,0.0,0.0,0.0,0.0,0.0,0.0,0.0,0.0,0.0,0.0,0.0,0.0,0.0,0.0,0.0,0.0,0.0,0.0,0.0,0.0,0.0,0.0,0.0,0.0,0.0,0.0,0.0,0.0,0.0,0.0,0.0,0.0,0.0,0.0,0.0,0.0,0.0,0.0,0.0,0.0,0.0,0.0,0.0,0.0,0.0,0.0,0.0,0.0,0.0,0.0,0.0,0.0,0.0,0.0,0.0,0.0,0.0,0.0,0.0,0.0,0.0,0.0,0.0,0.0,0.0,0.0,0.0,0.0,0.0,0.0,0.0,0.0,0.0,0.0,0.0,0.0,0.0,0.0,0.0,0.0,0.0,0.0,0.0,0.0,0.0,0.0,0.0,0.0,0.0,0.0,0.0,0.0,0.0,0.0,0.0,0.0,0.0,0.0,0.0,0.0,0.0,0.0,0.0,0.0,0.0,0.0,0.0,0.0,0.0,0.0,0.0,0.0,0.0,0.0,0.0,0.0,0.0,0.0,0.0,0.0,0.0,0.0,0.0,0.0,0.0,0.0,0.0,0.0,0.0,0.0,0.0,0.0,0.0,0.0,0.0,0.0,0.0,0.0,0.0,0.0,0.0,0.0,0.0,0.0,0.0,0.0,0.0,0.0,0.0,0.0,0.0,0.0,0.0,0.0,0.0,0.0,0.0,0.0,0.0,0.0,0.0,0.0,0.0,0.0,0.0,0.0,0.0,0.0,0.0,0.0,0.0,0.0,0.0,0.0,0.0,0.0,0.0,0.0,0.0,0.0,0.0,0.0,0.0,0.0,0.0,0.0,0.0,0.0,0.0,0.0,0.0,0.0,0.0,0.0,0.0,0.0,0.0,0.0,0.0,0.0,0.0,0.0,0.0,0.0,0.0,0.0,0.0,0.0,0.0,0.0,0.0,0.0,0.0,0.0,0.0,0.0,0.0,0.0,0.0,0.0,0.0,0.0,0.0,0.0,0.0,0.0,0.0,0.0,0.0,0.0,0.0,0.0,0.0,0.0,0.0,0.0,0.0,0.0,0.0,0.0,0.0,0.0,0.0,0.0,0.0,0.0,0.0,0.0,0.0,0.0,0.0,0.0,0.0,0.0,0.0,0.0,0.0,0.0,0.0,0.0,0.0,0.0,0.0,0.0,0.0,0.0,0.0,0.0,0.0,0.0,0.0,0.0,0.0,0.0,0.0,0.0,0.0,0.0,0.0,0.0,0.0,0.0,0.0,0.0,0.0,0.0,0.0,0.0,0.0,0.0,0.0,0.0,0.0,0.0,0.0,0.0,0.0,0.0,0.0,0.0,0.0,0.0,0.0,0.0,0.0,0.0,0.0,0.0,0.0,0.0,0.0,0.0,0.0,0.0,0.0,0.0,0.0,0.0,0.0,0.0,0.0,0.0,0.0,0.0,0.0,0.0,0.0,0.0,0.0,0.0,0.0,0.0,0.0,0.0,0.0,0.0,0.0,0.0,0.0,0.0,0.0,0.0,0.0,0.0,0.0,0.0,0.0,0.0,0.0,0.0,0.0,0.0,0.0,0.0,0.0,0.0,0.0,0.0,0.0,0.0,0.0,0.0,0.0,0.0,0.0,0.0,0.0,0.0,0.0,0.0,0.0,0.0,0.0,0.0,0.0,0.0,0.0,0.0,0.0,0.0,0.0,0.0,0.0,0.0,0.0,0.0,0.0,0.0,0.0,0.0,0.0,0.0,0.0,0.0,0.0,0.0,0.0,0.0,0.0,0.0,0.0,0.0,0.0,0.0,0.0,0.0,0.0,0.0,0.0,0.0,0.0,0.0,0.0,0.0,0.0,0.0,0.0,0.0,0.0,0.0,0.0,0.0,0.0,0.0,0.0,0.0,0.0,0.0,0.0,0.0,0.0,0.0,0.0,0.0,0.0,0.0,0.0,0.0,0.0,0.0,0.0,0.0,0.0,0.0,0.0,0.0,0.0,0.0,0.0,0.0,0.0,0.0,0.0,0.0,0.0,0.0,0.0,0.0,0.0,0.0,0.0,0.0,0.0,0.0,0.0,0.0,0.0,0.0,0.0,0.0,0.0,0.0,0.0,0.0,0.0,0.0,0.0,0.0,0.0,0.0,0.0,0.0,0.0,0.0,0.0,0.0,0.0,0.0,0.0,0.0,0.0,0.0,0.0,0.0,0.0,0.0,0.0,0.0,0.0,0.0,0.0,0.0,0.0,0.0,0.0,0.0,0.0,0.0,0.0,0.0,0.0,0.0,0.0,0.0,0.0,0.0,0.0,0.0,0.0,0.0,0.0,0.0,0.0,0.0,0.0,0.0,0.0,0.0,0.0,0.0,0.0,0.0,0.0,0.0,0.0,0.0,0.0,0.0,0.0,0.0,0.0,0.0,0.0,0.0,0.0,0.0,0.0,0.0,0.0,0.0,0.0,0.0,0.0,0.0,0.0,0.0,0.0,0.0,0.0,0.0,0.0,0.0,0.0,0.0,0.0,0.0,0.0,0.0,0.0,0.0,0.0,0.0,0.0,0.0,0.0,0.0,0.0,0.0,0.0,0.0,0.0,0.0,0.0,0.0,0.0,0.0,0.0,0.0,0.0,0.0,0.0,0.0,0.0,0.0,0.0,0.0,0.0,0.0,0.0,0.0,0.0,0.0,0.0,0.0,0.0,0.0,0.0,0.0,0.0,0.0,0.0,0.0,0.0,0.0,0.0,0.0,0.0,0.0,0.0,0.0,0.0,0.0,0.0,0.0,0.0,0.0,0.0,0.0,0.0,0.0,0.0,0.0,0.0,0.0,0.0,0.0,0.0,0.0,0.0,0.0,0.0,0.0,0.0,0.0,0.0,0.0,0.0,0.0,0.0,0.0,0.0,0.0,0.0,0.0,0.0,0.0,0.0,0.0,0.0,0.0,0.0,0.0,0.0,0.0,0.0,0.0,0.0,0.0,0.0,0.0,0.0,0.0,0.0,0.0,0.0,0.0,0.0,0.0,0.0,0.0,0.0,0.0,0.0,0.0,0.0,0.0,0.0,0.0,0.0,0.0,0.0,0.0,0.0,0.0,0.0,0.0,0.0,0.0,0.0,0.0,0.0,0.0,0.0,0.0,0.0,0.0,0.0,0.0,0.0,0.0,0.0,0.0,0.0,0.0,0.0,0.0,0.0,0.0,0.0,0.0,0.0,0.0,0.0,0.0,0.0,0.0,0.0,0.0,0.0,0.0,0.0,0.0,0.0,0.0,0.0,0.0,0.0,0.0,0.0,0.0,0.0,0.0,0.0,0.0,0.0,0.0,0.0,0.0,0.0,0.0,0.0,0.0,0.0,0.0,0.0,0.0,0.0,0.0,0.0,0.0,0.0,0.0,0.0,0.0,0.0,0.0,0.0,0.0,0.0,0.0,0.0,0.0,0.0,0.0,0.0,0.0,0.0,0.0,0.0,0.0,0.0,0.0,0.0,0.0,0.0,0.0,0.0,0.0,0.0,0.0,0.0,0.0,0.0,0.0,0.0,0.0,0.0,0.0,0.0,0.0,0.0,0.0,0.0,0.0,0.0,0.0,0.0,0.0,0.0,0.0,0.0,0.0,0.0,0.0,0.0,0.0,0.0,0.0,0.0,0.0,0.0,0.0,0.0,0.0,0.0,0.0,0.0,0.0,0.0,0.0,0.0,0.0,0.0,0.0,0.0,0.0,0.0,0.0,0.0,0.0,0.0,0.0,0.0,0.0,0.0,0.0,0.0,0.0,0.0,0.0,0.0,0.0,0.0,0.0,0.0,0.0,0.0,0.0,0.0,0.0,0.0,0.0,0.0,0.0,0.0,0.0,0.0,0.0,0.0,0.0,0.0,0.0,0.0,0.0,0.0,0.0,0.0,0.0,0.0,0.0,0.0,0.0,0.0,0.0,0.0,0.0,0.0,0.0,0.0,0.0,0.0,0.0,0.0,0.0,0.0,0.0,0.0,0.0,0.0,0.0,0.0,0.0,0.0,0.0,0.0,0.0,0.0,0.0,0.0,0.0,0.0,0.0,0.0,0.0,0.0,0.0,0.0,0.0,0.0,0.0,0.0,0.0,0.0,0.0,0.0,0.0,0.0,0.0,0.0,0.0,0.0,0.0,0.0,0.0,0.0,0.0,0.0,0.0,0.0,0.0,0.0,0.0,0.0,0.0,0.0,0.0,0.0,0.0,0.0,0.0,0.0,0.0,0.0,0.0,0.0,0.0,0.0,0.0,0.0,0.0,0.0,0.0,0.0,0.0,0.0,0.0,0.0,0.0,0.0,0.0,0.0,0.0,0.0,0.0,0.0,0.0,0.0,0.0,0.0,0.0,0.0,0.0,0.0,0.0,0.0,0.0,0.0,0.0,0.0,0.0,0.0,0.0,0.0,0.0,0.0,0.0,0.0,0.0,0.0,0.0,0.0,0.0,0.0,0.0,0.0,0.0,0.0,0.0,0.0,0.0,0.0,0.0,0.0,0.0,0.0,0.0,0.0,0.0,0.0,0.0,0.0,0.0,0.0,0.0,0.0,0.0,0.0,0.0,0.0,0.0,0.0,0.0,0.0,0.0,0.0,0.0,0.0,0.0,0.0,0.0,0.0,0.0,0.0,0.0,0.0,0.0,0.0,0.0,0.0,0.0,0.0,0.0,0.0,0.0,0.0,0.0,0.0,0.0,0.0,0.0,0.0,0.0,0.0,0.0,0.0,0.0,0.0,0.0,0.0,0.0,0.0,0.0,0.0,0.0,0.0,0.0,0.0,0.0,0.0,0.0,0.0,0.0,0.0,0.0,0.0,0.0,0.0,0.0,0.0,0.0,0.0,0.0,0.0,0.0,0.0,0.0,0.0,0.0,0.0,0.0,0.0,0.0,0.0,0.0,0.0,0.0,0.0,0.0,0.0,0.0,0.0,0.0,0.0,0.0,0.0,0.0,0.0,0.0,0.0,0.0,0.0,0.0,0.0,0.0,0.0,0.0,0.0,0.0,0.0,0.0,0.0,0.0,0.0,0.0,0.0,0.0,0.0,0.0,0.0,0.0,0.0,0.0,0.0,0.0,0.0,0.0,0.0,0.0,0.0,0.0,0.0,0.0,0.0,0.0,0.0,0.0,0.0,0.0,0.0,0.0,0.0,0.0,0.0,0.0,0.0,0.0,0.0,0.0,0.0,0.0,0.0,0.0,0.0,0.0,0.0,0.0,0.0,0.0,0.0,0.0,0.0,0.0,0.0,0.0,0.0,0.0,0.0,0.0,0.0,0.0,0.0,0.0,0.0,0.0,0.0,0.0,0.0,0.0,0.0,0.0,0.0,0.0,0.0,0.0,0.0,0.0,0.0,0.0,0.0,0.0,0.0,0.0,0.0,0.0,0.0,0.0,0.0,0.0,0.0,0.0,0.0,0.0,0.0,0.0,0.0,0.0,0.0,0.0,0.0,0.0,0.0,0.0,0.0,0.0,0.0,-2.7745,0.0,0.0,0.0,0.0,0.0,0.0,0.0,0.0,0.0,0.0,0.0,0.0,0.0,0.0,0.0,0.0,0.0,0.0,0.0,0.0,0.0,0.0,0.0,0.0,0.0,0.0,0.0,0.0,0.0,0.0,0.0,0.0,0.0,0.0,0.0,0.0,0.0,0.0,0.0,-3.115,-3.1818,-3.3101,-3.4871,-3.508,-3.3929,0.0,0.0,0.0,0.0,0.0,0.0,0.0,0.0,0.0,0.0,0.0,0.0,0.0,0.0,0.0,0.0,0.0,0.0,0.0,0.0,0.0,0.0,0.0,0.0,0.0,0.0,0.0,0.0,0.0,0.0,0.0,0.0,0.0,0.0,0.0,0.0,0.0,0.0,0.0,0.0,0.0,0.0,0.0,0.0,0.0,0.0,0.0,0.0,0.0,0.0,0.0,0.0,0.0,0.0,0.0,0.0,0.0,0.0,0.0,0.0,0.0,0.0,0.0,0.0,0.0,0.0,0.0,0.0,0.0,0.0,0.0,-2.8812,0.0,0.0,0.0,0.0,0.0,0.0,0.0,0.0,0.0,0.0,0.0,0.0,0.0,0.0,0.0,0.0,0.0,0.0,0.0,0.0,0.0,0.0,0.0,0.0,0.0,0.0,0.0,0.0,0.0,0.0,0.0,0.0,0.0,0.0,0.0,-2.9572,-3.0088,-3.0697,-3.0543,-3.1812,-3.4416,-3.6048,-3.5769,-3.3938,-3.5818,0.0,0.0,0.0,0.0,0.0,0.0,0.0,0.0,0.0,0.0,0.0,0.0,0.0,0.0,0.0,0.0,0.0,0.0,0.0,0.0,0.0,0.0,0.0,0.0,0.0,0.0,0.0,0.0,0.0,0.0,0.0,0.0,0.0,0.0,0.0,0.0,0.0,0.0,0.0,0.0,0.0,0.0,0.0,0.0,0.0,0.0,0.0,0.0,0.0,0.0,0.0,0.0,0.0,0.0,0.0,0.0,0.0,0.0,0.0,0.0,0.0,0.0,0.0,0.0,-4.0969,-4.0592,-3.9561,-3.8246,-3.6537,-3.4621,-3.2019,-2.9231,0.0,0.0,0.0,0.0,0.0,0.0,0.0,0.0,0.0,0.0,0.0,0.0,0.0,0.0,0.0,0.0,0.0,0.0,0.0,0.0,0.0,0.0,0.0,-2.5578,-2.5981,-2.6125,-2.6484,0.0,0.0,0.0,0.0,0.0,0.0,-2.9529,-3.0251,-3.0532,-3.0277,-3.1148,-3.2917,-3.5423,-3.6361,-3.6954,-3.7271,-3.756,-3.8715,-4.0341,0.0,0.0,0.0,0.0,0.0,0.0,0.0,0.0,0.0,0.0,0.0,0.0,0.0,0.0,0.0,0.0,0.0,0.0,0.0,0.0,0.0,0.0,0.0,0.0,0.0,0.0,0.0,0.0,0.0,0.0,0.0,0.0,0.0,0.0,0.0,0.0,0.0,0.0,0.0,0.0,0.0,-3.1128,-3.0249,0.0,0.0,0.0,0.0,0.0,0.0,0.0,0.0,0.0,0.0,0.0,0.0,0.0,0.0,-3.9283,-4.2247,-4.3809,-4.3938,-4.5443,-4.5223,-4.3445,-4.3299,-4.2091,-4.0103,-3.9811,0.0,-3.2541,-2.9938,0.0,0.0,0.0,0.0,0.0,0.0,0.0,0.0,0.0,0.0,0.0,0.0,0.0,0.0,0.0,0.0,0.0,0.0,0.0,0.0,0.0,-2.5582,-2.661,-2.7024,-2.8612,-2.9193,-2.8323,0.0,0.0,0.0,0.0,-2.8647,-2.8637,-2.9405,-3.0106,-3.0766,-3.375,-3.6014,-3.755,-3.8717,-4.0121,-4.1644,-4.1204,-4.0612,-3.9851,-3.8376,0.0,0.0,0.0,0.0,0.0,0.0,0.0,0.0,0.0,0.0,0.0,0.0,0.0,0.0,0.0,0.0,0.0,0.0,0.0,0.0,0.0,0.0,0.0,0.0,0.0,0.0,0.0,0.0,0.0,0.0,0.0,0.0,0.0,0.0,0.0,0.0,0.0,0.0,0.0,-3.124,-3.2214,-2.9998,-3.2469,-3.3567,0.0,0.0,0.0,0.0,0.0,0.0,0.0,0.0,0.0,-3.5138,-3.8157,-4.0468,-4.1832,-4.4249,-4.613,-4.7462,-4.8159,-4.7789,-4.6426,-4.6426,-4.5417,-4.3663,-4.3663,-4.2196,-3.9418,-3.5254,-3.3046,-3.2218,0.0,0.0,0.0,0.0,0.0,-3.4404,0.0,0.0,0.0,0.0,0.0,0.0,0.0,0.0,0.0,0.0,0.0,0.0,-2.4971,-2.6582,-2.8083,-2.9127,-3.0768,-3.119,-2.9942,-2.9956,0.0,0.0,0.0,-2.8599,-2.8782,-2.9667,-3.1147,-3.3186,-3.6535,-3.8853,-4.0155,-4.1457,-4.3081,-4.484,-4.4451,-4.2963,-4.0612,-3.9106,-3.8142,-3.7516,0.0,0.0,0.0,0.0,0.0,0.0,0.0,0.0,0.0,0.0,0.0,0.0,0.0,0.0,0.0,0.0,0.0,0.0,0.0,0.0,0.0,0.0,0.0,0.0,0.0,0.0,0.0,0.0,0.0,0.0,0.0,0.0,0.0,0.0,0.0,0.0,0.0,-3.2756,-3.3515,-3.0739,-3.3675,-3.4895,0.0,0.0,0.0,0.0,0.0,0.0,-3.5859,-3.7195,-3.7922,-3.7922,-4.0642,-4.2795,-4.4281,-4.6309,-4.8418,-5.0508,-5.0508,-4.9958,-4.8948,-4.8948,-4.7939,-4.6214,-4.6214,-4.5755,-4.4619,-3.9824,-3.6844,-3.5196,-3.439,-3.4155,-3.4353,-3.5442,-3.6298,-3.7055,0.0,0.0,0.0,0.0,0.0,0.0,0.0,0.0,0.0,0.0,0.0,-2.4641,-2.7749,-2.8595,-3.0061,-3.2882,-3.1343,-3.0768,-3.2036,-2.8856,-2.7841,-2.996,-3.0123,-3.049,-3.1122,-3.2462,-3.4955,-3.8599,-3.8819,-4.0409,-4.3217,-4.4028,-4.4857,-4.5669,-4.6329,-4.616,-4.5128,-4.1508,-3.9969,-3.9698,-3.6789,0.0,0.0,0.0,0.0,0.0,0.0,0.0,0.0,0.0,0.0,0.0,0.0,0.0,0.0,0.0,0.0,0.0,0.0,0.0,0.0,0.0,0.0,0.0,0.0,0.0,0.0,0.0,0.0,0.0,0.0,0.0,0.0,0.0,0.0,0.0,0.0,0.0,0.0,-3.3397,-3.7094,0.0,0.0,0.0,0.0,-3.7567,-3.8261,-3.9005,-3.98,-4.0578,-4.0984,-4.0984,-4.3769,-4.599,-4.7548,-4.9636,-5.1447,-5.3023,-5.3023,-5.2215,-5.0674,-5.0674,-4.9352,-4.7058,-4.7058,-4.6599,-4.548,-4.1101,-3.9184,-3.8733,-3.5724,-3.5452,-3.6667,-3.6358,-3.7257,-3.8487,0.0,0.0,0.0,0.0,0.0,0.0,0.0,0.0,0.0,-2.389,-2.5251,-2.686,-2.856,-3.059,-3.2645,-3.4658,-3.4573,-3.4201,-3.3728,-3.1562,-3.0355,-3.052,-3.037,-3.1292,-3.344,-3.4363,-3.6197,-3.8988,-4.0899,-4.2642,-4.4181,-4.4451,-4.5483,-4.7124,-4.6887,-4.6397,-4.5551,-4.3217,-4.1407,-3.9901,-3.7381,-3.5757,0.0,0.0,0.0,0.0,0.0,0.0,0.0,0.0,0.0,0.0,0.0,0.0,0.0,0.0,0.0,0.0,0.0,0.0,0.0,0.0,0.0,0.0,0.0,0.0,0.0,0.0,0.0,0.0,0.0,0.0,0.0,0.0,0.0,0.0,0.0,0.0,0.0,-3.7868,-4.0815,0.0,0.0,-3.8886,-3.9242,-3.9969,-4.0713,-4.1457,-4.2202,-4.342,-4.4096,-4.4096,-4.558,-4.7038,-4.8487,-4.9702,-5.1054,-5.249,-5.298,-5.2637,-5.1573,-5.1573,-5.0802,-4.9462,-4.8893,-4.8489,-4.7976,-4.4839,-4.2955,-4.1823,-4.0211,-3.9557,-3.9648,-4.0033,-4.0524,-4.1056,0.0,0.0,0.0,0.0,0.0,0.0,0.0,0.0,0.0,-2.3952,-2.6076,-2.8185,-2.9604,-3.2138,-3.4573,-3.6586,-3.6299,-3.5762,-3.5155,-3.2793,-3.1436,-3.1542,-3.1706,-3.305,-3.5786,-3.6955,-3.8616,-4.0882,-4.3115,-4.4587,-4.5331,-4.5331,-4.6261,-4.7902,-4.7648,-4.7141,-4.6397,-4.5365,-4.3064,-3.9986,-3.8497,-3.7449,-3.648,0.0,0.0,0.0,0.0,0.0,0.0,0.0,0.0,0.0,0.0,0.0,0.0,0.0,0.0,0.0,0.0,0.0,0.0,0.0,0.0,0.0,0.0,0.0,0.0,0.0,0.0,0.0,0.0,0.0,0.0,0.0,0.0,0.0,0.0,0.0,-4.254,-4.2033,-4.4401,-4.5196,-4.2946,-4.2743,-4.3064,-4.3792,-4.4502,-4.5246,-4.6007,-4.6549,-4.6819,-4.6819,-4.7056,-4.7756,-4.8872,-4.9625,-5.0744,-5.2112,-5.2599,-5.2517,-5.1995,-5.1995,-5.1555,-5.0747,-4.9903,-4.9517,-4.9352,-4.7205,-4.5516,-4.4195,-4.313,-4.2378,-4.1974,-4.2506,-4.269,-4.2745,0.0,0.0,0.0,0.0,0.0,0.0,0.0,0.0,-2.4292,-2.3979,-2.5922,-2.8371,-3.0942,-3.3237,-3.5791,-3.8768,-3.6248,-3.5027,-3.6232,-3.21,-3.0715,-3.3184,-3.4211,-3.5858,-3.8249,-4.022,-4.2337,-4.4682,-4.5348,-4.6092,-4.6811,-4.6786,-4.7192,-4.7953,-4.8663,-4.8578,-4.7919,-4.7936,-4.501,-4.0324,-4.0223,-3.9715,-3.87,0.0,0.0,0.0,0.0,0.0,0.0,0.0,0.0,0.0,0.0,0.0,0.0,0.0,0.0,0.0,0.0,0.0,0.0,0.0,0.0,0.0,0.0,0.0,0.0,0.0,0.0,0.0,0.0,0.0,0.0,0.0,0.0,0.0,-4.0909,-4.3761,-4.5855,-4.5872,-4.7817,-4.8291,-4.6126,-4.7192,-4.8308,-4.9018,-4.9729,-5.0439,-5.1183,-4.9864,-4.9069,-4.9035,-4.8342,-4.8243,-4.8924,-4.9634,-5.0681,-5.2047,-5.2065,-5.2091,-5.2013,-5.2032,-5.161,-5.0839,-5.0013,-4.9646,-4.9536,-4.7847,-4.6691,-4.581,-4.4176,-4.3516,-4.3497,-4.3497,-4.3497,-4.3387,0.0,0.0,0.0,0.0,0.0,0.0,0.0,-2.4139,-2.4282,-2.4198,-2.7198,-3.002,-3.1822,-3.4962,-3.7736,-3.9614,-3.6535,-3.5231,-3.6973,-3.2377,-3.1223,-3.4852,-3.5366,-3.7656,-4.2127,-4.2058,-4.3288,-4.5933,-4.6298,-4.655,-4.666,-4.6731,-4.7192,-4.7919,-4.8122,-4.8105,-4.7953,-4.8477,-4.7259,-4.4773,-4.2574,-4.0933,-3.9579,0.0,0.0,0.0,0.0,0.0,0.0,0.0,0.0,0.0,0.0,0.0,0.0,0.0,0.0,0.0,0.0,0.0,0.0,0.0,0.0,0.0,0.0,0.0,0.0,0.0,0.0,0.0,0.0,0.0,0.0,0.0,0.0,-4.4776,-4.3688,-4.6649,-4.9086,-4.9627,-5.1217,-5.1792,-5.0608,-5.0388,-5.0388,-5.0591,-5.0794,-5.0997,-5.12,-5.0828,-5.0355,-4.9813,-4.9086,-4.8802,-4.895,-4.9126,-4.9684,-5.0608,-5.1593,-5.2098,-5.21,-5.2608,-5.2747,-5.2509,-5.1683,-5.1334,-5.1151,-4.8912,-4.7847,-4.7425,-4.5241,-4.4011,-4.3497,-4.3497,-4.3497,-4.3461,0.0,0.0,0.0,0.0,0.0,0.0,0.0,-2.44,-2.4438,-2.41,-2.7698,-3.0626,-3.144,-3.4762,-3.728,-3.8142,-3.5844,-3.4765,-3.5727,-3.3669,-3.3638,-3.6346,-3.7576,-4.0119,-4.4223,-4.4483,-4.5471,-4.7422,-4.7605,-4.7614,-4.7519,-4.734,-4.7817,-4.8815,-4.8511,-4.8545,-4.8849,-4.9272,-4.8931,-4.7967,-4.5903,-4.4418,-4.3119,-4.0871,-4.0211,-4.0324,-3.9193,-4.0084,-4.146,-3.9239,0.0,0.0,0.0,0.0,0.0,0.0,0.0,0.0,0.0,0.0,0.0,0.0,0.0,0.0,0.0,0.0,0.0,0.0,0.0,0.0,0.0,0.0,0.0,0.0,-4.6346,-4.8562,-4.8359,-5.0422,-5.2131,-5.257,-5.3416,-5.3653,-5.2892,-5.2418,-5.2164,-5.2164,-5.2164,-5.2164,-5.2164,-5.1572,-5.1014,-5.0574,-4.9543,-4.9001,-4.9001,-4.8975,-4.9275,-5.0033,-5.0805,-5.1526,-5.2112,-5.2536,-5.2893,0.0,-5.2344,-5.1995,-5.183,-4.9719,-4.8636,0.0,0.0,0.0,0.0,0.0,-4.3497,-4.3497,0.0,0.0,0.0,0.0,0.0,0.0,0.0,-2.4535,-2.4504,-2.3739,-2.749,-3.0179,-3.0091,-3.3104,-3.5182,-3.5396,-3.4397,-3.3711,-3.3686,-3.532,-3.6853,-3.8102,-4.0399,-4.2874,-4.5463,-4.7033,-4.821,-4.903,-4.9118,-4.9069,-4.8927,-4.8394,-4.8826,-5.005,-4.9447,-4.9565,-5.0374,-5.0227,-5.0258,-5.0211,-4.9436,-4.87,-4.7732,-4.4906,-4.4418,-4.4873,-4.2835,-4.2011,-4.1772,-4.0763,0.0,0.0,0.0,0.0,0.0,0.0,0.0,0.0,0.0,0.0,0.0,0.0,0.0,0.0,0.0,0.0,0.0,0.0,0.0,0.0,0.0,0.0,0.0,0.0,-5.027,-5.2232,-5.367,-5.4431,-5.4752,-5.4499,-5.4532,-5.4296,-5.3568,-5.3501,-5.3501,-5.3501,-5.3501,-5.3501,-5.3501,0.0,0.0,0.0,0.0,-4.9221,-4.912,-4.9035,-4.9316,-4.9879,-4.9976,-5.0645,-5.1856,-5.2018,-5.2445,-5.3048,-5.2394,-5.2142,-5.2013,-5.049,-4.9297,-4.8288,-4.6562,-4.5406,-4.4617,-4.3901,-4.3571,0.0,0.0,0.0,0.0,0.0,0.0,0.0,0.0,-2.4062,-2.3768,-2.3364,-2.5963,-2.7769,-2.7454,-3.0197,-3.2672,-3.4255,-3.253,-3.2213,-3.4209,-3.5556,-3.8102,-4.2158,-4.2975,-4.5022,-4.8608,-4.8639,-4.9191,-5.0399,-5.0584,-5.0347,-4.9696,-4.9642,-4.9761,-5.0113,-4.9889,-5.0597,-5.1899,-5.1252,-5.132,-5.172,-5.0429,-4.9406,-4.8571,-4.7297,-4.6504,-4.5948,-4.5293,-4.5847,-4.6599,-4.4488,-4.5076,-4.6287,-4.403,-4.2415,0.0,0.0,0.0,0.0,0.0,0.0,0.0,0.0,0.0,0.0,0.0,0.0,0.0,0.0,0.0,0.0,0.0,0.0,0.0,-5.093,-5.3365,-5.5158,-5.6038,-5.6275,-5.5716,-5.3923,-5.4228,-5.4296,-5.3568,-5.3501,-5.3501,-5.3501,-5.3501,-5.3501,-5.3501,-5.323,0.0,-5.2114,-5.1251,-5.0507,-4.9881,-4.9306,-4.9063,-4.9212,0.0,0.0,-5.0445,-5.1593,-5.2159,-5.2317,-5.2773,-5.2968,-5.2894,-5.1922,-5.0655,-4.9114,-4.6801,-4.5406,-4.469,-4.4544,-4.4066,-4.3497,0.0,0.0,0.0,0.0,0.0,0.0,0.0,-2.3917,-2.3692,-2.3692,-2.5588,-2.6911,-2.6859,-2.8726,-3.0387,-3.1429,-3.1064,-3.1911,0.0,-3.6856,-3.99,-4.3938,-4.5349,-4.7539,-5.0729,-5.053,-5.0729,-5.1389,-5.1553,-5.1397,-5.099,-5.1088,-5.1595,-5.231,-5.1931,-5.2397,-5.3432,-5.2621,-5.2501,-5.2705,-5.1598,-5.1123,-5.0885,-4.935,-4.8461,-4.7976,-4.7801,-4.7462,-4.6985,-4.6177,-4.6177,-4.6361,-4.5553,-4.392,-4.1941,0.0,0.0,0.0,0.0,0.0,0.0,0.0,0.0,0.0,0.0,0.0,0.0,0.0,0.0,-4.5111,0.0,0.0,-5.1555,-5.4126,-5.5513,-5.6258,-5.6258,-5.6258,-5.5716,-5.4228,-5.438,-5.4296,-5.3568,-5.3501,-5.3501,-5.3501,-5.3501,-5.3501,-5.3501,-5.3129,-5.2723,-5.2317,-5.1589,-5.0862,-5.0101,-4.9729,-4.9373,-4.9001,-4.9001,-4.9114,-4.9444,-5.0172,-5.0887,-5.1563,-5.1909,-5.2272,-5.2509,-5.1298,-5.0068,-4.882,-4.759,-4.6617,-4.581,-4.5002,-4.4452,-4.4048,0.0,0.0,0.0,0.0,0.0,0.0,0.0,0.0,0.0,-2.4074,-2.5368,-2.6242,-2.6254,-2.726,-2.8088,-2.8534,-2.9934,-3.2101,0.0,-3.8395,-4.1717,-4.5259,-4.7572,-4.9866,-5.2179,-5.2068,-5.2068,-5.2234,-5.229,-5.2224,-5.2131,-5.2365,-5.3158,-5.4345,-5.3904,-5.4189,-5.5008,-5.4189,-5.3913,-5.3881,-5.2854,-5.2826,-5.317,-5.0743,-4.9871,-4.9898,-4.9669,-4.7682,-4.5369,-4.6507,-4.57,-4.447,-4.5736,-4.458,-4.253,-4.1341,-3.9697,0.0,0.0,0.0,0.0,0.0,0.0,0.0,0.0,0.0,-4.3453,-4.6194,-4.8037,-4.9898,-5.23,-5.3636,-5.4938,-5.6714,-5.6884,-5.6596,-5.6004,-5.5683,-5.5209,-5.4465,-5.438,-5.4143,-5.3568,-5.3501,-5.3501,-5.3501,-5.3501,-5.3501,-5.3501,-5.2892,-5.2536,-5.2536,-5.1809,-5.1065,-5.0321,-5.0168,-4.9729,-4.9001,-4.8257,-4.8209,-4.8739,-4.8678,-4.938,-5.0595,-5.0814,-5.1242,-5.1646,-5.0178,-4.9187,-4.8545,-4.8379,-4.7921,-4.715,-4.5535,-4.4837,-4.458,0.0,0.0,0.0,0.0,0.0,0.0,0.0,0.0,0.0,-2.3795,-2.4473,-2.4658,-2.3738,-2.4332,-2.5514,-2.7331,-2.9204,0.0,-3.6909,-3.957,-4.3057,-4.77,-4.9591,-5.1334,-5.3041,-5.2362,-5.2344,-5.3078,-5.3066,-5.2725,-5.2131,-5.2858,-5.3322,-5.3583,-5.4179,-5.526,-5.6611,-5.58,-5.5807,-5.6237,-5.4096,-5.3684,-5.3909,-5.0878,-5.0097,-5.0593,-4.9866,-4.6617,-4.3039,-4.5278,-4.4488,-4.3075,-4.6049,-4.581,-4.4268,-4.3408,0.0,-3.7918,-3.7884,-3.7975,-3.9089,-4.298,-4.2997,-4.4096,0.0,0.0,-5.2469,-5.4126,-5.6156,-5.6968,-5.4752,-5.6004,-5.7476,-5.7729,-5.7222,-5.6765,-5.6697,-5.5547,-5.4448,-5.3721,-5.3619,-5.3602,-5.3518,-5.3501,-5.3501,-5.3501,-5.3501,-5.3501,-5.3501,-5.3416,-5.3365,-5.3365,-5.2587,-5.1826,-5.1099,-5.0422,-4.9729,-4.9001,-4.8257,-4.7919,-4.7988,-4.7954,-4.8347,-4.9106,-5.0275,-5.0872,-5.0857,-4.9958,-4.9517,-4.937,-4.86,-4.8251,-4.7976,-4.6361,-4.5314,-4.458,0.0,0.0,0.0,0.0,0.0,0.0,0.0,0.0,0.0,0.0,-2.4267,-2.4278,-2.3831,-2.4896,-2.5973,-2.6822,0.0,0.0,-3.6523,-3.9056,-4.2561,-4.7407,-4.9205,-5.0839,-5.2472,-5.2637,-5.2858,-5.3206,-5.3206,-5.328,-5.348,-5.4264,-5.4909,-5.5432,-5.6248,-5.6945,-5.751,-5.666,-5.6538,-5.6648,-5.4753,-5.4155,-5.4081,-5.1396,-4.9647,-4.8489,-4.7205,-4.4837,0.0,-4.3461,-4.313,-4.2708,-4.4984,-4.4617,-4.3332,-4.3461,-4.245,0.0,-4.3388,-4.3366,0.0,0.0,-4.8629,-5.0541,-5.4769,-5.5564,-5.5852,-5.734,-5.8372,-5.8643,-5.7391,-5.756,-5.7746,0.0,-5.6647,-5.6021,-5.5581,-5.4617,-5.3518,-5.2317,-5.2164,-5.252,-5.3416,-5.3501,-5.3501,-5.3501,-5.3501,-5.3501,-5.3501,-5.3501,-5.3501,-5.3501,-5.3179,-5.2638,-5.186,-5.1116,-5.0371,-4.9627,-4.8477,-4.7699,-4.7259,-4.7237,-4.7538,-4.8161,-4.9099,-4.9455,-4.9279,-4.8489,-4.8159,-4.8067,-4.7241,-4.6911,-4.6874,-4.6673,-4.6104,-4.5278,0.0,0.0,0.0,0.0,0.0,0.0,0.0,0.0,0.0,0.0,0.0,0.0,0.0,-2.5236,-2.6117,0.0,0.0,0.0,0.0,-3.8285,-4.1754,-4.5938,-4.8343,-5.0233,-5.1628,-5.2454,-5.2986,-5.3206,-5.3206,-5.35,-5.4087,-5.5115,-5.5904,-5.651,-5.7538,-5.7997,-5.7941,-5.7152,-5.6804,-5.6675,-5.506,-5.4124,-5.3463,-5.1041,-4.8453,-4.5938,-4.4544,-4.2433,-4.0322,-4.0561,-4.0341,-4.0322,-4.2396,-4.2249,-4.1556,-4.2865,-4.3418,-4.4059,-4.6066,0.0,0.0,-5.065,-5.3585,-5.6055,-5.7036,-5.7983,-5.8846,-5.9505,-5.9641,-5.9455,-5.8829,-5.8084,0.0,-5.663,-5.5886,-5.5209,-5.4668,-5.3602,-5.2469,-5.1352,-5.0862,-5.1116,-5.2435,-5.2942,-5.3264,-5.3484,-5.3501,-5.3501,-5.3501,-5.3501,-5.3501,-5.3501,-5.3501,-5.3112,-5.2317,-5.1775,-5.1031,-5.0067,-4.8815,-4.7834,-4.709,-4.6867,-4.6963,-4.7298,-4.7967,-4.8174,-4.7921,-4.7352,-4.6985,-4.6728,-4.6122,-4.5902,-4.5975,-4.6562,-4.6269,-4.5461,0.0,0.0,0.0,0.0,0.0,0.0,0.0,0.0,0.0,0.0,0.0,0.0,0.0,0.0,0.0,0.0,0.0,0.0,0.0,-3.7661,-4.1001,-4.3497,-4.7443,-4.9976,-5.082,-5.161,-5.2417,-5.3206,-5.3206,-5.3225,-5.328,-5.4858,-5.5592,-5.5702,-5.7281,-5.7997,-5.7941,-5.7152,-5.6804,-5.6675,-5.506,-5.3463,-5.1793,-4.9315,-4.6397,-4.3497,-4.2671,-3.9294,-3.5339,-3.6193,-3.5404,-3.4614,-3.7863,-3.8854,0.0,-4.1866,-4.2926,-4.3249,0.0,0.0,-4.9796,-5.3534,-5.6681,-5.9268,-6.0791,-6.2262,-6.2922,-6.1518,-6.1231,-6.0554,-5.8338,-5.7323,-5.6596,-5.5869,-5.5108,-5.4617,-5.4583,-5.2689,-5.1268,-5.1217,-4.9949,-4.9373,0.0,-5.1505,-5.2655,-5.345,-5.3501,-5.3501,-5.3501,-5.3501,-5.3501,-5.3501,-5.3501,-5.3112,-5.2317,-5.2283,-5.1539,-5.0084,-4.9323,-4.8595,-4.7834,-4.7,-4.6515,-4.6466,-4.7142,-4.7298,-4.715,-4.7131,-4.6654,-4.592,-4.5902,-4.5902,-4.5902,-4.592,-4.5424,-4.4635,0.0,0.0,0.0,0.0,0.0,0.0,0.0,0.0,0.0,0.0,0.0,0.0,0.0,0.0,0.0,0.0,0.0,0.0,0.0,-3.5532,-3.8579,-4.1001,-4.447,-4.6985,-4.8343,-4.9701,-5.0802,-5.161,-5.161,-5.1885,-5.2435,-5.35,-5.4289,-5.484,-5.5923,-5.64,-5.6381,-5.6106,-5.5702,-5.5078,-5.3463,-5.216,-5.082,-4.726,-4.392,-4.0781,0.0,-3.6384,-3.4862,-3.4119,-3.3825,-3.4082,-3.5734,-3.6389,-3.7265,-4.0817,-4.3462,-4.5793,-4.838,0.0,-5.4168,-5.8112,-6.0165,-6.1772,-6.3768,-6.3463,-6.2482,-6.1501,-5.893,-5.6461,-5.5209,-5.3145,-5.186,-5.2621,-5.252,-5.2706,-5.3737,-5.2756,-5.1386,-4.9915,-4.9729,0.0,0.0,0.0,0.0,-5.2604,-5.2706,-5.2942,-5.3467,-5.3501,-5.3501,-5.3501,-5.3501,-5.3365,-5.3112,-5.2097,-5.1336,-5.0811,-4.9103,-4.8156,-4.7868,-4.6561,-4.6212,-4.6549,-4.6224,-4.6035,-4.5911,-4.5757,-4.5264,-4.4558,-4.4382,-4.4305,-4.4305,-4.4305,-4.414,-4.3938,0.0,0.0,0.0,0.0,0.0,0.0,0.0,0.0,0.0,0.0,0.0,0.0,0.0,0.0,0.0,0.0,0.0,0.0,0.0,0.0,-3.5679,-3.7221,-4.0396,-4.2745,-4.4085,-4.5443,-4.6654,-4.7755,-4.8049,-4.8746,-4.9829,-5.0949,-5.1903,-5.2711,-5.3518,-5.3867,-5.3849,-5.3537,-5.2784,-5.1683,-5.0343,-4.8636,-4.6599,-4.3681,-4.0543,0.0,-3.4688,-3.355,-3.3091,-3.1744,-3.2045,-3.3128,-3.4247,-3.5996,-3.8239,-4.1067,-4.4294,-4.775,-5.183,-5.4741,-5.7532,-6.1155,-6.2836,-6.374,-6.4373,-6.3067,-6.116,-5.9292,-5.575,-5.2689,-5.1691,-4.9035,-4.7665,-4.9712,-4.9813,-5.0355,-5.2401,-5.2012,-5.1082,-4.9932,-4.9746,0.0,0.0,0.0,0.0,-5.2164,-5.257,-5.2959,-5.3467,-5.3501,-5.3501,-5.3501,-5.3501,-5.3501,-5.3501,-5.252,-5.1758,-5.12,-4.9238,-4.8037,-4.7479,-4.6532,-4.6118,-4.6187,-4.5719,-4.5288,-4.4847,-4.4721,-4.4086,-4.3122,-4.2971,-4.3032,-4.3214,-4.3214,-4.3339,-4.3552,0.0,0.0,0.0,0.0,0.0,0.0,0.0,0.0,0.0,0.0,0.0,0.0,0.0,0.0,0.0,0.0,0.0,0.0,0.0,0.0,0.0,-3.243,-3.555,-3.7661,-3.8432,-3.9276,-4.0469,-4.2047,-4.2818,-4.4011,-4.5626,-4.7168,-4.8324,-4.9187,-4.9958,-5.0306,-5.0251,-4.9426,-4.8177,-4.6673,-4.5865,-4.3222,-3.968,-3.8836,-3.6523,-3.3532,-3.1953,-3.087,-3.0099,0.0,0.0,0.0,0.0,-3.7646,-4.1947,-4.2758,-4.5493,-4.9266,-5.3686,-5.6985,-5.9945,-6.2967,-6.4666,-6.511,-6.288,-6.1204,-5.8961,-5.5145,-5.1894,-4.9289,0.0,0.0,-4.4282,-4.7259,-4.7276,-4.7936,-5.0913,-5.0727,-5.049,0.0,0.0,0.0,0.0,0.0,0.0,-5.2147,0.0,-5.3416,-5.3501,-5.3501,-5.3501,-5.3501,-5.3501,-5.3501,-5.3501,-5.3467,-5.2672,-5.115,-4.9746,-4.8308,-4.6904,-4.6819,-4.6357,-4.5563,-4.5494,-4.4945,-4.4074,-4.4039,-4.3182,-4.1821,-4.181,-4.2162,-4.2655,-4.2711,-4.3014,-4.341,0.0,0.0,0.0,0.0,0.0,0.0,0.0,0.0,0.0,0.0,0.0,0.0,0.0,0.0,0.0,0.0,0.0,0.0,0.0,0.0,0.0,0.0,0.0,0.0,0.0,0.0,0.0,-3.8707,-3.8909,-3.9845,-4.1423,-4.1846,-4.2488,-4.3277,-4.3479,-4.3589,-4.3571,-4.3351,-4.2671,-4.1662,-4.0855,-3.9551,-3.7936,-3.6505,-3.4688,-3.2779,-3.1751,-3.087,0.0,0.0,0.0,0.0,0.0,-4.1196,-4.4605,-4.6602,-5.0282,-5.4419,-5.7672,-6.0421,-6.2944,-6.5499,-6.5117,-6.3747,-6.2117,-5.9253,-5.5852,-5.2021,-4.797,-4.4502,0.0,0.0,0.0,-4.5026,-4.7124,0.0,-5.2503,-5.2756,0.0,0.0,0.0,-5.1099,-5.0185,-5.0913,0.0,0.0,-5.1995,-5.23,-5.345,-5.3501,-5.3501,-5.3501,-5.3501,-5.3501,-5.3501,-5.2909,-5.186,-5.0371,-4.9999,-4.9323,-4.8409,-4.7293,-4.6683,-4.6414,-4.529,-4.436,-4.3545,-4.3467,-4.2845,-4.1986,-4.1868,-4.1895,-4.2062,-4.2519,-4.2501,-4.2346,0.0,0.0,0.0,0.0,0.0,0.0,0.0,0.0,0.0,0.0,0.0,0.0,0.0,0.0,0.0,0.0,0.0,0.0,0.0,0.0,0.0,0.0,0.0,0.0,0.0,0.0,0.0,0.0,-3.3587,-3.4578,-3.6174,-3.689,-3.7661,-3.842,-3.8836,-3.9001,-3.9001,-3.9001,-3.8303,0.0,0.0,-3.5642,-3.4192,-3.3256,-3.2093,-3.0962,-3.0522,0.0,0.0,0.0,0.0,-4.117,-4.3178,-4.6313,-4.9686,-5.1633,0.0,-5.8887,-6.1414,-6.3919,-6.5902,-6.6467,-6.5426,-6.326,-5.9674,-5.6274,-5.2485,-4.7592,-4.3566,0.0,0.0,0.0,0.0,0.0,0.0,0.0,-5.1014,-5.2097,-5.2435,0.0,-5.257,0.0,-5.1674,-5.2012,-5.2452,0.0,-5.2452,-5.2604,-5.345,-5.3501,-5.3501,-5.3501,-5.3501,-5.3501,-5.3501,-5.2706,-5.1725,-5.0574,-5.0253,-4.9543,-4.8494,-4.7665,-4.6938,-4.6261,0.0,-4.4434,-4.3352,-4.2979,-4.238,-4.1643,-4.1202,-4.1375,-4.181,-4.1895,-4.2021,-4.2244,0.0,0.0,0.0,0.0,0.0,0.0,0.0,0.0,0.0,0.0,0.0,0.0,0.0,0.0,0.0,0.0,0.0,0.0,0.0,0.0,0.0,0.0,0.0,0.0,0.0,0.0,0.0,0.0,0.0,0.0,-3.0944,-3.2339,-3.344,-3.4238,-3.5,-3.533,-3.533,-3.533,-3.4431,-3.2999,-3.2999,-3.1751,-2.9879,0.0,0.0,0.0,0.0,0.0,0.0,0.0,-4.2616,-4.4874,-4.8214,-5.1985,-5.5519,-5.7157,-5.9923,-6.2807,-6.4883,-6.6935,-6.8219,-6.6692,-6.5412,-6.2902,-5.6662,-5.2857,-4.887,-4.2601,0.0,-3.684,-3.5318,0.0,-3.5723,-3.9462,0.0,-4.4012,-4.8511,-5.0338,-5.1742,-5.3179,-5.3433,-5.3501,-5.3501,-5.2875,-5.2756,-5.345,-5.3501,-5.3501,-5.3501,-5.3501,-5.3501,-5.3501,-5.3501,-5.3501,-5.3501,-5.2807,-5.2046,-5.1217,-5.0557,-4.9475,-4.8054,-4.7851,-4.7073,-4.5838,0.0,0.0,-4.3504,-4.2642,-4.1914,-4.1271,-4.0409,-4.0767,-4.1621,-4.1087,-4.1578,-4.2382,0.0,0.0,0.0,0.0,0.0,0.0,0.0,0.0,0.0,0.0,0.0,0.0,0.0,0.0,0.0,0.0,0.0,0.0,0.0,0.0,0.0,0.0,0.0,0.0,0.0,0.0,0.0,0.0,0.0,0.0,-2.8429,-2.8705,-2.9274,-3.0039,-3.0186,-3.0283,-3.0283,-3.0283,-2.9714,-2.8833,-2.8833,-2.8576,-2.8209,0.0,0.0,0.0,0.0,0.0,0.0,0.0,-4.4966,-4.9205,-5.3096,-5.6226,-5.8975,-6.18,-6.4022,-6.5868,-6.751,-6.824,-6.8356,-6.7464,-6.4657,-6.0678,-5.5312,-5.0218,0.0,0.0,0.0,-3.3728,-3.2239,-3.3339,0.0,-3.9462,0.0,0.0,0.0,0.0,-5.1539,0.0,0.0,0.0,0.0,0.0,0.0,0.0,0.0,0.0,-5.3501,-5.3501,-5.3501,-5.3501,-5.3501,-5.3501,-5.3501,-5.3365,-5.2604,-5.1217,-5.1082,-5.0253,-4.8781,-4.7547,-4.6853,-4.6532,0.0,0.0,-4.4265,-4.2861,-4.2219,-4.1965,-4.0612,-4.0497,-4.1041,-4.0949,-4.1041,-4.1268,0.0,0.0,0.0,0.0,0.0,0.0,0.0,0.0,0.0,0.0,0.0,0.0,0.0,0.0,0.0,0.0,0.0,0.0,0.0,0.0,0.0,0.0,0.0,0.0,0.0,0.0,0.0,0.0,0.0,0.0,0.0,0.0,0.0,0.0,0.0,0.0,0.0,-2.7934,-2.7769,0.0,0.0,0.0,0.0,0.0,0.0,0.0,0.0,0.0,0.0,0.0,-4.3296,-4.8673,-5.4418,-5.818,-6.0896,-6.3161,-6.5355,-6.7361,-6.8855,-6.9937,-7.0056,-6.7564,-6.4019,-5.9384,-5.2744,0.0,0.0,0.0,0.0,-3.1918,-3.0835,0.0,0.0,0.0,0.0,0.0,0.0,0.0,0.0,0.0,0.0,0.0,0.0,0.0,0.0,0.0,0.0,0.0,-5.3501,-5.3501,-5.3501,-5.3501,-5.3501,-5.3501,-5.3501,-5.3501,-5.2739,-5.1217,-5.1612,-5.0977,-4.9487,-4.8739,-4.8216,-4.7783,-4.6298,0.0,-4.4949,-4.3481,-4.2878,-4.2726,-4.1238,-4.1177,-4.1855,-4.1134,-4.1087,-4.1358,0.0,0.0,0.0,0.0,0.0,0.0,0.0,0.0,0.0,0.0,0.0,0.0,0.0,0.0,0.0,0.0,0.0,0.0,0.0,0.0,0.0,0.0,0.0,0.0,0.0,0.0,0.0,0.0,0.0,0.0,0.0,0.0,0.0,0.0,0.0,0.0,0.0,0.0,0.0,0.0,0.0,0.0,0.0,0.0,0.0,0.0,0.0,0.0,0.0,0.0,-4.0139,-4.5223,-5.1683,-5.6859,-6.0891,-6.235,-6.5022,-6.7744,-6.9086,-7.0821,-7.1321,-6.7467,-6.3338,-5.8187,-5.0443,-4.4385,0.0,0.0,-3.1418,-3.0294,-2.9719,0.0,0.0,0.0,0.0,0.0,0.0,0.0,0.0,0.0,0.0,0.0,0.0,0.0,0.0,0.0,0.0,0.0,0.0,-5.3501,-5.3501,-5.3501,-5.3668,-5.3668,-5.3501,-5.3613,-5.2959,-5.1439,-5.2002,-5.1581,-5.0223,-5.0048,-4.9409,-4.8531,-4.7195,0.0,0.0,-4.3926,-4.342,-4.3267,-4.1936,-4.1985,-4.275,-4.1548,-4.149,-4.1895,0.0,0.0,0.0,0.0,0.0,0.0,0.0,0.0,0.0,0.0,0.0,0.0,0.0,0.0,0.0,0.0,0.0,0.0,0.0,0.0,0.0,0.0,0.0,0.0,0.0,0.0,0.0,0.0,0.0,0.0,0.0,0.0,0.0,0.0,0.0,0.0,0.0,0.0,0.0,0.0,0.0,0.0,0.0,0.0,0.0,0.0,0.0,0.0,0.0,0.0,0.0,-3.8891,-4.2488,-4.9903,-5.7529,-5.915,0.0,0.0,-6.7688,-6.9614,-7.0624,-6.732,-6.2333,-5.6502,-4.9693,0.0,0.0,-3.1401,-2.918,-2.8076,-2.8009,-2.8721,-3.0243,0.0,0.0,-3.7026,0.0,0.0,0.0,0.0,0.0,0.0,0.0,0.0,0.0,0.0,0.0,0.0,0.0,-5.3501,-5.3501,-5.3501,-5.4154,-5.4154,-5.3501,-5.4096,-5.3649,-5.2218,-5.2222,-5.1758,-5.0964,-5.0307,-4.9222,-4.7819,0.0,0.0,0.0,-4.3741,-4.342,-4.3322,-4.2395,-4.2364,-4.2793,-4.199,-4.2121,-4.244,0.0,0.0,0.0,0.0,0.0,0.0,0.0,0.0,0.0,0.0,0.0,0.0,0.0,0.0,0.0,0.0,0.0,0.0,0.0,0.0,0.0,0.0,0.0,0.0,0.0,0.0,0.0,0.0,0.0,0.0,0.0,0.0,0.0,0.0,0.0,0.0,0.0,0.0,0.0,0.0,0.0,0.0,0.0,0.0,0.0,0.0,0.0,0.0,0.0,0.0,0.0,0.0,-3.5642,-4.0414,0.0,0.0,-5.7262,-6.075,-6.4494,-6.6935,-6.7742,-6.4971,-6.0084,-5.4342,-4.8066,0.0,0.0,-3.0942,-2.889,-2.7789,-2.7789,-2.8467,-2.9668,-3.1732,0.0,0.0,0.0,0.0,0.0,0.0,0.0,0.0,0.0,0.0,0.0,0.0,0.0,0.0,0.0,-5.3946,-5.4154,-5.4154,-5.4878,-5.5102,-5.4835,-5.4622,-5.3961,-5.2962,-5.2873,-5.2412,-5.1674,-5.1365,-5.0887,-5.0214,0.0,0.0,0.0,-4.5676,-4.4992,-4.4611,-4.4191,-4.4114,-4.4182,-4.3364,-4.3,-4.2787,0.0,0.0,0.0,0.0,0.0,0.0,0.0,0.0,0.0,0.0,0.0,0.0,0.0,0.0,0.0,0.0,0.0,0.0,0.0,0.0,0.0,0.0,0.0,0.0,0.0,0.0,0.0,0.0,0.0,0.0,0.0,0.0,0.0,0.0,0.0,0.0,0.0,0.0,0.0,0.0,0.0,0.0,0.0,0.0,0.0,0.0,0.0,0.0,0.0,0.0,0.0,0.0,0.0,0.0,0.0,0.0,-5.1316,-5.55,-5.9997,-6.3099,-6.4567,-6.2603,-5.7752,-5.2137,0.0,0.0,-3.4195,-3.0833,-2.8801,-2.7641,-2.7641,-2.8182,-2.9059,-3.0328,0.0,-3.1157,0.0,0.0,0.0,0.0,0.0,0.0,0.0,0.0,0.0,0.0,0.0,0.0,0.0,-5.4544,-5.4818,-5.4589,-5.557,-5.5842,-5.537,-5.4991,-5.433,-5.3352,-5.3273,-5.2925,-5.2427,-5.2395,-5.1883,-5.0998,0.0,0.0,0.0,-4.6755,-4.6143,-4.5745,-4.5627,-4.5552,-4.5401,-4.4484,-4.3768,-4.3197,0.0,0.0,0.0,0.0,0.0,0.0,0.0,0.0,0.0,0.0,0.0,0.0,0.0,0.0,0.0,0.0,0.0,0.0,0.0,0.0,0.0,0.0,0.0,0.0,0.0,0.0,0.0,-2.419,-2.5017,0.0,0.0,0.0,0.0,0.0,0.0,0.0,0.0,0.0,0.0,0.0,0.0,0.0,0.0,0.0,0.0,0.0,0.0,0.0,0.0,0.0,0.0,0.0,0.0,0.0,0.0,0.0,-4.5718,-5.2399,-5.4051,-5.7997,-6.1447,-6.0639,-5.5592,-4.9856,0.0,0.0,-3.3695,-3.0787,-2.8644,-2.7303,-2.7303,-2.7571,-2.8095,-2.8873,-3.0226,0.0,0.0,0.0,0.0,0.0,0.0,0.0,0.0,0.0,0.0,0.0,0.0,0.0,0.0,0.0,-5.5379,-5.4651,-5.6095,-5.6115,-5.4535,-5.5239,-5.4802,-5.3219,-5.3215,-5.3182,-5.3206,-5.3206,-5.1655,0.0,0.0,0.0,0.0,-4.6143,-4.6383,-4.6389,-4.6245,-4.617,-4.6073,-4.5058,-4.4326,-4.37,0.0,0.0,0.0,0.0,0.0,0.0,0.0,0.0,0.0,0.0,0.0,0.0,0.0,0.0,0.0,0.0,0.0,0.0,0.0,0.0,0.0,0.0,0.0,0.0,0.0,0.0,-2.4465,-2.5035,-2.5293,-2.5676,-2.6209,0.0,0.0,0.0,0.0,0.0,0.0,0.0,0.0,0.0,0.0,0.0,0.0,0.0,0.0,0.0,0.0,0.0,0.0,0.0,0.0,0.0,0.0,0.0,0.0,-3.2504,-3.7845,0.0,-4.6195,-4.8857,-5.0674,-4.9884,-4.7315,-4.4015,-4.0327,-3.6476,-3.2847,-2.997,-2.8259,-2.7303,-2.7303,-2.7587,-2.8399,-3.0209,-3.1309,0.0,0.0,0.0,0.0,0.0,0.0,0.0,0.0,0.0,0.0,0.0,0.0,0.0,0.0,0.0,-5.5342,-5.615,-5.6591,-5.6569,-5.6085,-5.5231,-5.4532,-5.3999,-5.3469,-5.3206,-5.3206,-5.3206,0.0,0.0,0.0,0.0,0.0,-4.8109,-4.747,-4.7114,-4.7484,-4.7048,-4.6145,-4.5698,-4.4837,-4.3758,0.0,0.0,0.0,0.0,0.0,0.0,0.0,0.0,0.0,0.0,0.0,0.0,0.0,0.0,0.0,0.0,0.0,0.0,0.0,0.0,0.0,0.0,0.0,0.0,0.0,-2.419,-2.4575,-2.5403,-2.5695,-2.6264,-2.7034,-2.6539,-2.6135,0.0,0.0,0.0,0.0,0.0,0.0,0.0,0.0,0.0,-2.4245,0.0,0.0,0.0,0.0,0.0,0.0,0.0,0.0,0.0,0.0,0.0,0.0,0.0,-3.2247,-3.634,0.0,-4.2616,-4.4048,-4.3846,-4.2139,0.0,0.0,-3.452,-3.1946,-2.9704,-2.8323,-2.747,-2.7317,-2.7365,-2.8044,-3.004,-3.0751,0.0,0.0,0.0,0.0,0.0,0.0,0.0,0.0,0.0,0.0,0.0,0.0,0.0,0.0,0.0,-5.5127,-5.6376,-5.6648,-5.651,-5.5904,-5.4895,-5.4252,-5.394,-5.3445,-5.3206,-5.3206,-5.2894,0.0,0.0,0.0,0.0,0.0,-4.865,-4.8075,-4.7797,-4.8172,-4.7764,-4.6884,-4.6176,-4.5106,-4.3894,0.0,0.0,0.0,0.0,0.0,0.0,0.0,0.0,0.0,0.0,0.0,0.0,0.0,0.0,0.0,0.0,0.0,0.0,0.0,0.0,0.0,0.0,0.0,0.0,0.0,-2.419,-2.4575,-2.5403,-2.6264,-2.7108,-2.7879,-2.7934,-2.7512,-2.6649,-2.5841,-2.4997,-2.419,-2.419,-2.419,-2.419,-2.419,-2.419,0.0,0.0,0.0,0.0,0.0,0.0,0.0,0.0,0.0,0.0,0.0,0.0,0.0,0.0,0.0,0.0,0.0,-3.8487,0.0,0.0,0.0,0.0,0.0,-3.3421,0.0,-2.9771,-2.8657,-2.78,-2.7517,-2.7074,-2.7317,-2.9025,-2.9347,0.0,0.0,0.0,0.0,0.0,0.0,0.0,0.0,0.0,0.0,0.0,0.0,0.0,0.0,0.0,0.0,-5.5302,-5.6153,-5.5923,-5.4418,-5.4344,-5.394,-5.3206,-5.3206,-5.3206,-5.3188,-5.2362,0.0,0.0,0.0,0.0,0.0,-4.8093,-4.8306,-4.8306,-4.8306,-4.8269,-4.8031,-4.6471,-4.5185,-4.4092,0.0,0.0,0.0,0.0,0.0,0.0,0.0,0.0,0.0,0.0,0.0,0.0,0.0,0.0,0.0,0.0,0.0,0.0,0.0,0.0,0.0,0.0,0.0,0.0,0.0,-2.419,-2.4575,-2.5403,-2.6814,-2.7934,-2.8741,-2.9347,-2.8888,-2.7475,-2.6686,-2.5529,-2.419,-2.419,-2.419,-2.419,-2.419,-2.419,0.0,0.0,0.0,0.0,-2.419,-2.4704,0.0,0.0,0.0,0.0,0.0,0.0,0.0,0.0,-2.8998,-2.9402,-2.9934,0.0,-3.1579,-3.0558,-3.065,-3.0797,0.0,-3.0155,-3.0131,-2.8931,-2.8254,-2.8135,-2.8843,-2.8186,-2.8619,-3.185,-3.2831,0.0,0.0,0.0,0.0,0.0,0.0,0.0,0.0,0.0,0.0,0.0,0.0,0.0,0.0,0.0,0.0,-5.2961,-5.4253,-5.4785,-5.4399,-5.3794,-5.339,-5.3206,-5.3206,-5.3206,-5.3188,-5.2362,0.0,0.0,0.0,0.0,-4.9047,-4.8524,-4.8306,-4.8306,-4.8306,-4.7921,-4.7278,-4.6269,-4.5333,-4.4416,0.0,0.0,0.0,0.0,0.0,0.0,0.0,0.0,0.0,0.0,0.0,0.0,0.0,0.0,0.0,0.0,0.0,0.0,0.0,0.0,0.0,0.0,0.0,0.0,-2.419,-2.419,-2.4759,-2.5952,-2.6814,-2.8044,-2.9567,-3.0008,-2.9347,-2.7732,-2.619,-2.5016,-2.419,-2.419,-2.419,-2.419,-2.419,0.0,0.0,0.0,0.0,0.0,-2.419,-2.4483,0.0,-2.5293,-2.5991,-2.6686,0.0,0.0,0.0,0.0,-2.7622,-2.7732,-2.6906,-2.8081,-2.9255,-2.8003,-2.8352,-2.8998,-2.8925,-2.8998,-2.896,-2.8489,0.0,0.0,0.0,0.0,0.0,0.0,0.0,0.0,0.0,0.0,0.0,0.0,0.0,0.0,0.0,0.0,0.0,0.0,0.0,0.0,0.0,0.0,0.0,0.0,-5.3054,-5.3482,-5.3849,-5.3427,-5.3206,-5.3206,-5.3206,-5.3206,-5.317,-5.1977,0.0,0.0,0.0,0.0,-4.8967,-4.8489,-4.8306,-4.8306,-4.8306,-4.7829,-4.7021,-4.6195,-4.5224,-4.4217,0.0,0.0,0.0,0.0,0.0,0.0,0.0,0.0,0.0,0.0,0.0,0.0,0.0,0.0,0.0,0.0,0.0,0.0,0.0,0.0,0.0,0.0,0.0,-2.4283,-2.4373,-2.4263,-2.4924,-2.6429,-2.6906,-2.8136,-3.0026,-3.065,-2.9879,-2.7879,-2.5456,-2.43,-2.419,-2.419,-2.419,-2.419,-2.419,0.0,0.0,0.0,0.0,0.0,0.0,0.0,0.0,-2.4999,-2.5311,-2.5403,-2.5403,0.0,0.0,0.0,0.0,0.0,-2.5768,-2.7842,-2.9916,-2.8741,-2.8741,-2.914,-2.9714,0.0,0.0,0.0,0.0,0.0,0.0,0.0,0.0,0.0,0.0,0.0,0.0,0.0,0.0,0.0,0.0,0.0,0.0,0.0,0.0,0.0,0.0,0.0,0.0,0.0,0.0,0.0,-5.2234,-5.2142,-5.2839,-5.2968,-5.2968,-5.2858,-5.3096,-5.3078,-5.2803,-5.1426,0.0,0.0,0.0,0.0,-4.8306,-4.8306,-4.8306,-4.8306,-4.8306,-4.7829,-4.7021,-4.6195,-4.5094,-4.3953,0.0,0.0,0.0,0.0,0.0,0.0,0.0,0.0,0.0,0.0,0.0,0.0,0.0,0.0,0.0,0.0,0.0,0.0,0.0,0.0,0.0,0.0,-2.4559,-2.469,-2.5201,-2.4538,-2.4649,-2.5586,-2.8301,-2.9494,-2.925,-3.2661,-3.2294,-2.8723,-2.6282,-2.4832,-2.419,-2.419,-2.419,-2.419,-2.419,0.0,0.0,0.0,0.0,0.0,0.0,0.0,0.0,-2.4337,-2.4832,-2.5403,-2.5403,0.0,0.0,0.0,0.0,0.0,-2.6447,-2.8282,-2.9512,-2.6649,-2.7493,-2.8847,-2.8301,-2.8503,0.0,0.0,0.0,0.0,0.0,0.0,0.0,0.0,0.0,0.0,0.0,0.0,0.0,0.0,0.0,0.0,0.0,0.0,0.0,0.0,0.0,0.0,0.0,0.0,0.0,0.0,0.0,-5.1041,-5.1169,-5.183,-5.183,-5.1187,-5.2564,-5.2491,-5.1169,-5.0912,-5.0435,0.0,0.0,-4.8306,-4.8306,-4.8306,-4.8306,-4.8306,-4.8306,-4.7829,-4.7021,-4.6195,-4.5352,-4.4473,0.0,0.0,0.0,0.0,0.0,0.0,0.0,0.0,0.0,0.0,0.0,0.0,0.0,0.0,0.0,0.0,0.0,0.0,0.0,0.0,0.0,-2.4639,-2.4462,-2.4672,-2.5384,-2.5456,-2.6098,-2.7346,-2.9255,-3.0467,-3.0956,-3.1488,-3.0558,-2.8246,-2.5823,-2.4538,-2.419,-2.419,-2.419,-2.419,0.0,0.0,0.0,0.0,0.0,0.0,0.0,0.0,0.0,0.0,-2.4447,-2.474,-2.474,0.0,0.0,0.0,0.0,0.0,-2.5309,-2.6759,-2.8007,-2.6961,-2.8503,-3.032,-3.0393,-3.0338,-3.0583,0.0,0.0,0.0,0.0,0.0,0.0,0.0,0.0,0.0,0.0,0.0,0.0,0.0,0.0,0.0,0.0,0.0,0.0,0.0,0.0,0.0,0.0,0.0,0.0,0.0,0.0,-5.0141,-5.0141,-5.0508,-5.0729,-5.082,-5.1555,-5.1518,-5.0784,-5.0343,-4.9939,-4.9536,0.0,-4.8067,-4.77,-4.8122,-4.7792,-4.7058,-4.748,-4.6911,-4.5718,-4.4892,-4.436,-4.3958,0.0,0.0,0.0,0.0,0.0,0.0,0.0,0.0,0.0,0.0,0.0,0.0,0.0,0.0,0.0,0.0,0.0,0.0,0.0,0.0,-2.4716,-2.4512,-2.4339,-2.4707,-2.5678,-2.6282,-2.7402,-2.8994,-2.9989,-3.1109,-3.2284,-2.9861,-2.8301,-2.742,-2.5383,-2.4373,-2.419,-2.419,-2.419,-2.419,0.0,0.0,0.0,0.0,0.0,0.0,0.0,0.0,0.0,0.0,0.0,0.0,0.0,0.0,0.0,-2.419,-2.419,-2.4245,-2.4428,-2.5511,-2.6759,-2.7365,-2.9182,-3.1201,-3.2577,-3.2394,-3.2467,0.0,0.0,0.0,0.0,0.0,0.0,0.0,0.0,0.0,0.0,0.0,0.0,0.0,0.0,0.0,0.0,0.0,0.0,0.0,0.0,0.0,0.0,0.0,0.0,0.0,0.0,0.0,-4.9297,-4.9297,-4.9591,-5.0215,-5.0618,-5.06,-5.0196,-4.9774,-4.9481,-4.9242,-4.8398,-4.7792,-4.7407,-4.7645,-4.7131,-4.6214,-4.6654,-4.5957,-4.4635,-4.4011,-4.3684,-4.3524,0.0,0.0,0.0,0.0,0.0,0.0,0.0,0.0,0.0,0.0,0.0,0.0,0.0,0.0,0.0,0.0,0.0,0.0,0.0,0.0,-2.4716,-2.4512,-2.4495,-2.5134,-2.6484,-2.6576,-2.7402,-2.8994,-3.0558,-3.1366,-3.1421,-2.9017,-2.7457,-2.6649,-2.5713,-2.4887,-2.419,-2.419,-2.419,-2.419,-2.419,0.0,0.0,0.0,0.0,0.0,0.0,0.0,0.0,0.0,0.0,0.0,0.0,0.0,-2.419,-2.419,-2.419,-2.4355,-2.5127,-2.5933,-2.6612,-2.6667,-2.7952,-2.9989,-3.3018,-3.366,0.0,-3.6725,0.0,0.0,0.0,0.0,0.0,0.0,0.0,0.0,0.0,0.0,0.0,0.0,0.0,0.0,0.0,0.0,0.0,0.0,0.0,0.0,0.0,0.0,0.0,0.0,0.0,-4.8398,-4.8398,-4.8398,-4.8416,-4.8508,-5.0068,-4.9994,-4.8508,-4.9242,-4.915,-4.8361,-4.7553,-4.759,-4.8104,-4.6654,-4.6452,-4.6966,-4.6269,-4.5461,-4.4709,-4.4635,-4.4235,-4.3776,0.0,0.0,0.0,0.0,0.0,0.0,0.0,0.0,0.0,0.0,0.0,0.0,0.0,0.0,0.0,0.0,0.0,0.0,0.0,0.0,-2.4885,-2.4818,-2.4604,-2.5034,-2.6206,-2.6962,-2.7897,-2.8994,-3.0245,-3.0263,-2.9127,-2.7848,-2.6739,-2.5805,-2.4997,-2.4483,-2.419,-2.419,-2.419,-2.419,-2.419,-2.419,0.0,0.0,0.0,0.0,0.0,0.0,0.0,0.0,-2.419,-2.419,-2.419,-2.419,-2.419,-2.419,-2.419,-2.4263,-2.4557,-2.5603,-2.6722,-2.7218,-2.8558,0.0,0.0,-3.4981,-3.678,-3.9239,-4.0377,0.0,0.0,0.0,0.0,0.0,0.0,0.0,0.0,0.0,0.0,0.0,0.0,0.0,0.0,0.0,0.0,0.0,0.0,0.0,0.0,0.0,0.0,0.0,0.0,-4.6819,-4.6819,-4.6819,-4.6819,-4.6819,-4.7976,-4.8434,-4.8306,-4.8122,-4.7884,-4.7553,-4.7241,-4.6709,-4.6067,-4.5938,-4.548,-4.4837,-4.4525,-4.4213,-4.3956,-4.3956,-4.3889,-4.3696,0.0,0.0,0.0,0.0,0.0,0.0,0.0,0.0,0.0,0.0,0.0,0.0,0.0,0.0,0.0,0.0,0.0,0.0,0.0,-2.4896,-2.4911,-2.4845,-2.4682,-2.4904,-2.5496,-2.6637,-2.7744,-2.8815,-2.9241,-2.8703,-2.7227,-2.6544,-2.5855,-2.5096,-2.4543,-2.4266,-2.419,-2.419,-2.419,-2.419,-2.419,-2.419,0.0,0.0,0.0,0.0,0.0,0.0,0.0,0.0,-2.419,-2.419,-2.419,-2.419,-2.419,-2.419,-2.419,-2.419,-2.419,-2.5181,-2.641,-2.7218,0.0,0.0,-3.3972,-3.6486,-3.9001,-4.1699,-4.2268,0.0,0.0,0.0,0.0,0.0,0.0,0.0,0.0,0.0,0.0,0.0,0.0,0.0,0.0,0.0,0.0,0.0,0.0,0.0,0.0,0.0,0.0,0.0,0.0,0.0,-4.5902,-4.5902,-4.5902,-4.5902,-4.6214,-4.6764,-4.7517,-4.6985,-4.6728,-4.6728,-4.6471,-4.5865,-4.5094,-4.5112,-4.4488,-4.3497,-4.3497,-4.3497,-4.3516,-4.3791,-4.3704,-4.3376,0.0,0.0,0.0,0.0,0.0,0.0,0.0,0.0,0.0,0.0,0.0,0.0,0.0,0.0,0.0,0.0,0.0,0.0,-2.3816,-2.4447,-2.4716,-2.4528,-2.47,-2.4716,-2.4512,-2.5477,-2.6779,-2.8385,-2.7573,-2.6779,-2.5966,-2.5186,-2.47,-2.4512,-2.4512,-2.4393,-2.419,-2.419,-2.419,-2.419,-2.419,-2.419,-2.419,0.0,0.0,0.0,0.0,0.0,0.0,0.0,-2.419,-2.419,-2.419,-2.419,-2.419,-2.419,-2.419,-2.419,-2.419,-2.4797,-2.5605,-2.6429,0.0,0.0,-3.5569,-3.8175,-4.0799,-4.403,0.0,-4.2561,0.0,0.0,0.0,0.0,0.0,0.0,0.0,0.0,0.0,0.0,0.0,0.0,0.0,0.0,0.0,0.0,0.0,0.0,0.0,0.0,0.0,0.0,0.0,0.0,-4.5883,-4.5883,-4.5883,-4.5865,-4.5076,-4.5112,-4.5902,-4.5883,-4.5883,-4.5847,-4.5057,-4.5149,-4.5755,-4.4158,-4.3497,-4.3497,-4.3497,-4.3497,-4.3589,-4.4397,-4.3948,-4.29,0.0,0.0,0.0,0.0,0.0,0.0,0.0,0.0,0.0,0.0,0.0,0.0,0.0,0.0,0.0,0.0,0.0,0.0,-2.4791,-2.5037,-2.5126,-2.5061,-2.4981,-2.4981,-2.5061,-2.5344,-2.5901,-2.6723,-2.6578,-2.6043,-2.5167,-2.563,-2.5451,-2.4719,-2.5155,-2.5016,-2.441,-2.4266,-2.419,-2.419,-2.419,-2.419,-2.419,0.0,0.0,0.0,0.0,0.0,0.0,0.0,0.0,0.0,-2.419,-2.419,-2.419,-2.419,-2.4303,-2.441,-2.441,-2.5501,0.0,-2.8482,0.0,0.0,0.0,-3.9121,0.0,0.0,0.0,0.0,0.0,0.0,0.0,0.0,0.0,0.0,0.0,0.0,0.0,0.0,0.0,0.0,0.0,0.0,0.0,0.0,0.0,0.0,0.0,0.0,0.0,0.0,0.0,0.0,-4.4195,-4.4195,-4.4195,-4.4195,-4.3975,-4.4562,-4.5883,-4.5314,-4.5057,-4.5039,-4.48,-4.4507,-4.4158,-4.3681,-4.3497,-4.3497,-4.3497,-4.3497,-4.3516,-4.3754,-4.3459,-4.2811,0.0,0.0,0.0,0.0,0.0,0.0,0.0,0.0,0.0,0.0,-2.0312,0.0,0.0,0.0,0.0,0.0,0.0,0.0,0.0,0.0,-2.511,-2.4713,-2.4968,-2.5192,-2.5303,-2.5303,-2.545,-2.5722,-2.5805,-2.5538,-2.5006,-2.5619,-2.5545,-2.4883,-2.5201,-2.504,-2.4495,-2.4284,-2.419,-2.419,-2.419,-2.419,-2.419,0.0,0.0,0.0,0.0,0.0,0.0,0.0,0.0,0.0,-2.419,-2.4247,-2.4321,-2.4321,-2.4461,-2.4623,-2.4623,-2.6148,0.0,-3.0237,-3.331,-3.6651,-3.9834,0.0,0.0,0.0,0.0,0.0,0.0,0.0,0.0,0.0,0.0,0.0,0.0,0.0,0.0,0.0,0.0,0.0,0.0,0.0,0.0,0.0,0.0,0.0,0.0,0.0,0.0,0.0,0.0,0.0,-4.3693,-4.3582,-4.3497,-4.3497,-4.3497,-4.3993,-4.4929,-4.4433,-4.4213,-4.4213,-4.4213,-4.3956,-4.3497,-4.3497,-4.3497,-4.3497,-4.3497,-4.3497,-4.3497,-4.3497,-4.3061,-4.2387,0.0,0.0,0.0,0.0,0.0,0.0,0.0,0.0,0.0,0.0,-2.0312,-2.0581,0.0,0.0,0.0,0.0,0.0,0.0,0.0,0.0,-2.4811,-2.3973,-2.48,-2.5303,-2.5303,-2.5303,-2.5303,-2.5303,-2.5303,-2.5303,-2.5303,-2.538,-2.528,-2.5022,-2.4945,-2.4776,-2.4512,-2.4284,-2.419,-2.419,-2.419,-2.419,-2.419,-2.419,0.0,0.0,0.0,0.0,0.0,0.0,0.0,0.0,-2.4247,-2.4357,-2.4512,-2.4528,-2.467,-2.4851,-2.4927,0.0,0.0,-3.1841,-3.572,0.0,0.0,0.0,0.0,0.0,0.0,0.0,0.0,0.0,0.0,0.0,0.0,0.0,0.0,0.0,0.0,0.0,0.0,0.0,0.0,0.0,0.0,0.0,0.0,0.0,0.0,0.0,0.0,0.0,0.0,0.0,-4.4058,-4.3726,-4.3548,0.0,-4.3513,-4.3497,-4.3497,-4.3497,-4.3497,-4.3497,-4.3497,-4.3497,-4.3497,-4.3497,-4.3497,-4.3497,-4.3497,-4.3497,-4.3497,-4.3497,-4.2772,-4.181,0.0,0.0,0.0,0.0,0.0,0.0,0.0,0.0,0.0,0.0,0.0,0.0,0.0,0.0,0.0,0.0,0.0,0.0,0.0,0.0,-2.4534,-2.4955,-2.5178,-2.5303,-2.5303,-2.5303,-2.5303,-2.5303,-2.5303,-2.5303,-2.5303,-2.6005,-2.5927,-2.5252,-2.5587,-2.5359,-2.4716,-2.4339,-2.419,-2.419,-2.419,-2.419,-2.419,-2.419,-2.419,0.0,0.0,0.0,0.0,0.0,0.0,0.0,-2.4559,-2.4591,-2.4545,-2.4685,-2.4836,-2.5101,-2.5786,-2.7447,0.0,0.0,-3.8745,0.0,0.0,0.0,0.0,0.0,0.0,0.0,0.0,0.0,0.0,0.0,0.0,0.0,0.0,0.0,0.0,0.0,0.0,0.0,0.0,0.0,0.0,0.0,0.0,0.0,0.0,0.0,0.0,0.0,0.0,-4.4474,-4.4474,-4.4076,-4.3912,0.0,-4.3631,-4.3497,-4.3497,-4.3497,-4.3497,-4.3497,-4.3497,-4.3497,-4.3497,-4.3497,-4.3497,-4.3497,-4.3497,-4.3497,-4.3497,-4.3497,-4.2772,-4.181,0.0,0.0,0.0,0.0,0.0,0.0,0.0,0.0,0.0,0.0,0.0,0.0,0.0,0.0,0.0,0.0,0.0,0.0,0.0,0.0,0.0,-2.4716,-2.4332,-2.4293,-2.4716,-2.4736,-2.4909,-2.5303,-2.5303,-2.5303,-2.5322,-2.6197,-2.614,-2.5312,-2.5791,-2.5559,-2.4775,-2.4375,-2.419,-2.419,-2.419,-2.419,-2.419,-2.419,-2.419,-2.419,-2.419,0.0,0.0,0.0,0.0,0.0,0.0,0.0,-2.4766,-2.4864,-2.5005,-2.5248,-2.5696,0.0,0.0,-3.543,0.0,0.0,0.0,0.0,0.0,0.0,0.0,0.0,0.0,0.0,0.0,0.0,0.0,0.0,0.0,0.0,0.0,0.0,0.0,0.0,0.0,0.0,0.0,0.0,0.0,0.0,0.0,0.0,0.0,0.0,-4.3801,-4.3782,-4.4199,-4.3853,-4.3662,-4.3681,-4.3919,-4.3931,-4.3726,-4.3563,-4.3497,-4.3497,-4.3497,-4.3497,-4.3497,-4.3497,-4.3497,-4.3497,-4.3497,-4.3497,-4.3479,-4.3214,-4.258,-4.175,0.0,0.0,0.0,0.0,0.0,0.0,0.0,0.0,0.0,0.0,0.0,0.0,0.0,0.0,0.0,0.0,0.0,0.0,0.0,0.0,0.0,0.0,-2.3473,-2.3598,-2.431,-2.431,-2.4657,-2.5322,-2.5322,-2.538,-2.5534,-2.612,-2.5986,-2.5312,-2.5678,-2.5452,-2.4799,-2.4409,-2.4266,-2.4266,-2.4266,-2.4266,-2.4266,-2.4284,-2.4303,-2.4303,-2.4303,-2.4303,-2.4321,-2.4526,0.0,0.0,0.0,0.0,-2.501,-2.5034,-2.5163,-2.5322,-2.5476,0.0,-3.1044,-3.643,0.0,0.0,0.0,0.0,0.0,0.0,0.0,0.0,0.0,0.0,0.0,0.0,0.0,0.0,0.0,0.0,0.0,0.0,0.0,0.0,0.0,0.0,0.0,0.0,0.0,0.0,0.0,0.0,-4.2846,-4.3652,-4.2984,-4.2946,-4.3671,-4.3327,-4.3234,-4.3385,-4.4158,-4.429,-4.3893,-4.3631,-4.3497,-4.3497,-4.3497,-4.3497,-4.3497,-4.3497,-4.3497,-4.3497,-4.3497,-4.3497,-4.3444,-4.3014,-4.2462,-4.1895,0.0,0.0,0.0,0.0,0.0,0.0,0.0,0.0,0.0,0.0,0.0,0.0,0.0,0.0,0.0,0.0,0.0,0.0,-2.411,0.0,0.0,-2.3004,-2.4312,-2.5112,-2.5217,-2.5229,-2.5287,-2.5391,-2.5321,-2.5687,-2.6409,-2.5764,-2.5399,-2.5303,-2.518,-2.5069,-2.4949,-2.4604,-2.4461,-2.4461,-2.4461,-2.4461,-2.4478,-2.4654,-2.4716,-2.4716,-2.4716,-2.4716,-2.4727,-2.4885,-2.4864,0.0,0.0,0.0,0.0,-2.5214,-2.5274,-2.5457,0.0,0.0,-3.3103,0.0,0.0,0.0,0.0,0.0,0.0,0.0,0.0,0.0,0.0,0.0,0.0,0.0,0.0,0.0,0.0,0.0,0.0,0.0,0.0,0.0,0.0,0.0,0.0,0.0,0.0,0.0,0.0,-4.268,-4.2718,-4.3188,-4.3073,-4.3073,-4.3188,-4.2793,-4.2971,-4.3732,-4.396,-4.3912,-4.3582,-4.3513,-4.3497,-4.3497,-4.3497,-4.3497,-4.3497,-4.3497,-4.3497,-4.3497,-4.3497,-4.3497,-4.3479,-4.341,-4.305,-4.2577,0.0,0.0,0.0,0.0,0.0,0.0,0.0,0.0,0.0,0.0,0.0,0.0,0.0,0.0,0.0,-2.2043,-2.287,-2.359,-2.4072,-2.4133,-2.398,-2.3613,-2.3889,-2.4286,-2.4771,-2.4762,-2.4948,-2.5394,-2.533,-2.5495,-2.587,-2.5986,-2.6524,-2.7418,-2.7223,-2.6874,-2.6371,-2.5061,-2.4578,-2.4654,-2.4561,-2.4578,-2.467,-2.4775,-2.4804,-2.4804,-2.4804,-2.4804,-2.4814,-2.4949,-2.4962,-2.4956,-2.5233,0.0,0.0,0.0,-2.5303,0.0,-2.637,-2.864,0.0,0.0,0.0,0.0,0.0,0.0,0.0,0.0,0.0,0.0,0.0,0.0,0.0,0.0,0.0,0.0,0.0,0.0,0.0,0.0,0.0,0.0,0.0,0.0,0.0,0.0,0.0,0.0,-4.0223,-4.0065,-4.049,-4.1604,-4.12,-4.1412,-4.2354,-4.2215,-4.2774,-4.4097,-4.375,-4.3895,-4.4373,-4.3974,-4.3679,-4.3497,-4.3497,-4.3497,-4.3497,-4.3497,-4.3497,-4.3497,-4.3497,-4.3497,-4.3444,-4.3178,-4.2902,-4.2655,0.0,0.0,0.0,0.0,0.0,0.0,0.0,0.0,0.0,0.0,0.0,0.0,0.0,0.0,0.0,0.0,-2.2819,-2.3662,-2.4119,-2.4193,-2.4232,-2.4232,-2.3859,-2.3965,-2.4623,-2.4563,-2.4827,-2.5428,-2.5348,-2.5399,-2.5649,-2.6524,-2.7717,-2.9083,-2.8727,-2.7988,-2.6931,-2.554,-2.4934,-2.4842,-2.4697,-2.4727,-2.4855,-2.4896,-2.4942,-2.4942,-2.4942,-2.4942,-2.4936,-2.5041,-2.5077,-2.5099,0.0,0.0,0.0,0.0,0.0,0.0,0.0,0.0,0.0,0.0,0.0,0.0,0.0,0.0,0.0,0.0,0.0,0.0,0.0,0.0,0.0,0.0,0.0,0.0,0.0,0.0,0.0,0.0,0.0,0.0,0.0,0.0,0.0,0.0,0.0,0.0,-3.8007,-3.8007,-3.8565,-3.9815,-3.9488,-3.9892,-4.1162,-4.1585,-4.2379,-4.3537,-4.3251,-4.3531,-4.4296,-4.3735,-4.3372,-4.3135,-4.3461,-4.3631,-4.3612,-4.3548,-4.3497,-4.3497,-4.3497,-4.3497,-4.3444,-4.305,-4.2902,-4.2846,0.0,0.0,0.0,0.0,0.0,0.0,0.0,0.0,0.0,0.0,0.0,0.0,-2.0312,-2.1754,-2.2735,-2.2735,-2.4281,-2.4988,-2.4336,-2.4287,-2.4287,-2.4287,-2.5054,0.0,-2.552,-2.5477,-2.545,-2.5489,-2.5363,-2.5707,-2.6544,-2.7409,-2.8294,-2.9063,-2.8294,-2.7014,-2.5437,0.0,0.0,0.0,-2.4986,-2.4986,-2.501,-2.5203,0.0,0.0,0.0,0.0,0.0,0.0,0.0,0.0,0.0,0.0,0.0,0.0,0.0,0.0,0.0,0.0,0.0,0.0,0.0,0.0,0.0,0.0,0.0,0.0,0.0,0.0,0.0,0.0,0.0,0.0,0.0,0.0,0.0,0.0,0.0,0.0,0.0,0.0,0.0,0.0,0.0,0.0,0.0,0.0,-3.8007,-3.8007,-3.8046,-3.8123,-3.8892,-3.9335,-3.9431,-4.1008,-4.1679,-4.1473,-4.2197,-4.2405,-4.2178,-4.2109,-4.2083,-4.2152,-4.3415,-4.3986,-4.3955,-4.3612,-4.3497,-4.3497,-4.3497,-4.3497,-4.3497,-4.3479,-4.3444,-4.3444,0.0,0.0,0.0,0.0,0.0,0.0,0.0,0.0,0.0,0.0,0.0,0.0,0.0,-2.2204,-2.2875,-2.2918,-2.4008,-2.4574,-2.4311,-2.4829,-2.5135,-2.5135,-2.5476,-2.5661,-2.5661,-2.5601,-2.5561,-2.5561,-2.5428,-2.5526,-2.5846,-2.668,-2.6928,-2.6697,-2.7525,-2.7544,-2.6899,-2.5891,0.0,0.0,0.0,0.0,-2.5203,0.0,0.0,0.0,0.0,0.0,0.0,0.0,0.0,0.0,0.0,0.0,0.0,0.0,0.0,0.0,0.0,0.0,0.0,0.0,0.0,0.0,0.0,0.0,0.0,0.0,0.0,0.0,0.0,0.0,0.0,0.0,0.0,0.0,0.0,0.0,0.0,0.0,0.0,0.0,0.0,0.0,0.0,0.0,0.0,0.0,-3.5565,-3.6084,-3.6892,-3.7969,-3.8296,-3.8969,-4.0046,-4.0662,-4.119,-4.1623,-4.1685,-4.2066,-4.2718,-4.2457,-4.2457,-4.2717,-4.2932,-4.313,-4.3248,-4.3645,-4.3693,-4.3497,-4.3497,-4.3497,-4.3497,-4.3497,-4.3497,-4.3497,0.0,0.0,0.0,0.0,0.0,0.0,0.0,0.0,0.0,-2.124,0.0,0.0,0.0,0.0,-2.3519,-2.3832,-2.4397,-2.4755,-2.4768,-2.5315,-2.5634,-2.5634,-2.5682,-2.5703,-2.5703,-2.5634,-2.5601,-2.5601,-2.5477,-2.5406,-2.5418,-2.5928,-2.5851,-2.5341,-2.6505,-2.7024,0.0,0.0,0.0,-2.5303,0.0,0.0,-2.5774,0.0,0.0,0.0,0.0,0.0,0.0,0.0,0.0,0.0,0.0,0.0,0.0,0.0,0.0,0.0,-2.5303,0.0,0.0,0.0,0.0,0.0,0.0,0.0,0.0,0.0,0.0,0.0,0.0,0.0,0.0,0.0,0.0,0.0,0.0,0.0,0.0,0.0,0.0,0.0,0.0,0.0,0.0,0.0,0.0,0.0,-3.418,-3.4757,-3.5834,-3.7507,-3.7565,-3.8373,-4.0065,-4.0085,-4.0508,-4.1354,-4.1128,-4.1452,-4.222,-4.1951,-4.197,-4.2239,-4.2258,-4.2382,-4.2632,-4.3319,-4.3415,-4.3112,-4.3387,-4.3497,-4.3497,-4.3497,-4.3497,-4.3497,0.0,0.0,0.0,0.0,0.0,0.0,0.0,0.0,0.0,-2.3083,0.0,0.0,0.0,0.0,0.0,-2.5523,-2.5603,-2.5633,-2.5703,-2.5703,-2.5703,-2.5703,-2.5703,-2.5703,-2.5703,-2.5634,-2.5603,-2.5603,-2.5477,-2.5394,0.0,0.0,-2.5303,-2.5303,-2.5303,-2.5303,-2.536,0.0,-2.6082,-2.5303,0.0,-2.5813,-2.6659,0.0,0.0,0.0,-2.7813,-2.7274,0.0,0.0,0.0,0.0,0.0,0.0,0.0,0.0,0.0,0.0,0.0,0.0,0.0,0.0,0.0,0.0,0.0,0.0,0.0,0.0,0.0,0.0,0.0,0.0,0.0,0.0,0.0,0.0,0.0,0.0,0.0,0.0,0.0,0.0,0.0,0.0,0.0,0.0,0.0,-3.3237,-3.4083,-3.4199,-3.4988,-3.6661,-3.6719,-3.7546,-3.9238,-3.9258,-3.9642,-4.0431,-4.0431,-4.0431,-4.045,-4.045,-4.0469,-4.0546,-4.1393,-4.1877,-4.2065,-4.2567,-4.2569,-4.2341,-4.3149,-4.3442,-4.3461,-4.3479,-4.3497,-4.3497,0.0,0.0,0.0,0.0,0.0,0.0,0.0,0.0,-2.3079,0.0,0.0,0.0,-2.4015,-2.4799,-2.5405,-2.5642,-2.5662,-2.5683,-2.5703,-2.5703,-2.5703,-2.5703,-2.5703,-2.5703,-2.5703,-2.5683,-2.5662,-2.5662,-2.5543,0.0,0.0,0.0,0.0,0.0,-2.5303,-2.5303,-2.5322,-2.5553,0.0,0.0,-2.5303,-2.5437,0.0,0.0,0.0,0.0,0.0,-2.5909,0.0,0.0,-2.5427,-2.5477,0.0,0.0,0.0,0.0,0.0,0.0,-2.5383,0.0,0.0,0.0,0.0,0.0,0.0,0.0,0.0,0.0,0.0,0.0,0.0,0.0,0.0,0.0,0.0,0.0,0.0,0.0,0.0,0.0,0.0,0.0,0.0,0.0,0.0,0.0,-3.1814,-3.2141,-3.2372,-3.4141,-3.5622,-3.668,-3.7315,-3.7873,-3.8354,-3.8354,-3.8469,-3.8681,-3.8681,-3.9008,-3.9623,-3.9623,-3.995,-4.0508,-4.0739,-4.0783,-4.0739,-4.1838,-4.1949,-4.1515,-4.2323,-4.2635,-4.269,-4.3277,-4.3497,-4.3497,0.0,0.0,0.0,0.0,0.0,0.0,0.0,-2.3386,-2.4143,0.0,0.0,0.0,-2.4941,-2.5391,-2.5703,-2.5703,-2.5703,-2.5703,-2.5703,-2.5703,-2.5703,-2.5703,-2.5703,-2.5703,-2.5703,-2.5703,-2.5703,-2.5703,-2.5598,-2.5547,-2.5543,0.0,0.0,0.0,0.0,0.0,0.0,0.0,0.0,0.0,-2.5303,0.0,0.0,-2.6255,-2.64,0.0,0.0,0.0,-2.6411,-2.5693,-2.5477,0.0,0.0,0.0,0.0,0.0,0.0,0.0,0.0,0.0,0.0,0.0,0.0,0.0,0.0,0.0,0.0,0.0,0.0,0.0,0.0,0.0,0.0,0.0,0.0,0.0,0.0,0.0,0.0,0.0,0.0,0.0,0.0,0.0,0.0,0.0,-3.1083,-3.1314,-3.1679,-3.343,-3.4795,-3.5622,-3.6142,-3.6757,-3.745,-3.7469,-3.7642,-3.8007,-3.8007,-3.8277,-3.8757,-3.8757,-3.9008,-3.945,-3.945,-3.9495,-3.9624,-4.0412,-4.0734,-4.0837,-4.1544,-4.1809,-4.1864,-4.2323,-4.2708,-4.3002,0.0,0.0,0.0,0.0,0.0,0.0,0.0,-2.4623,-2.5634,0.0,-2.5703,-2.5703,-2.5703,-2.5703,-2.5703,-2.5703,-2.5703,-2.5703,-2.5703,-2.5703,-2.5703,-2.5703,-2.5703,-2.5703,-2.5703,-2.5703,-2.5703,-2.5703,-2.5634,-2.5601,-2.5601,-2.5477,-2.5413,0.0,0.0,0.0,0.0,0.0,0.0,-2.5303,-2.5293,-2.5774,0.0,0.0,-2.7662,0.0,-2.771,-2.7757,-2.76,-2.6033,-2.5511,0.0,0.0,0.0,0.0,0.0,-2.5511,0.0,0.0,0.0,0.0,0.0,0.0,0.0,-2.5312,-2.5313,-2.5303,0.0,0.0,0.0,0.0,0.0,0.0,0.0,0.0,0.0,0.0,0.0,0.0,0.0,0.0,0.0,0.0,0.0,-3.1275,-3.1275,-3.0641,-3.0641,-3.1506,-3.2333,-3.316,-3.4026,-3.4064,-3.4776,-3.6257,-3.6372,-3.6815,-3.7584,-3.768,-3.7777,-3.7853,-3.7853,-3.7911,-3.8007,-3.8007,-3.8265,-3.8708,-3.867,-3.9252,-4.0216,-4.0787,-4.0997,-4.0983,-4.1075,-4.1552,-4.2176,-2.1432,0.0,0.0,0.0,0.0,0.0,0.0,0.0,-2.5683,-2.5703,-2.5703,-2.5703,-2.5703,-2.5703,-2.5703,-2.5703,-2.5703,-2.5703,-2.5703,-2.5703,-2.5703,-2.5703,-2.5703,-2.5703,-2.5703,-2.5703,-2.5703,-2.5703,-2.5634,-2.5601,-2.5601,-2.5526,-2.5453,-2.5398,0.0,0.0,0.0,0.0,0.0,-2.5379,-2.5331,0.0,-2.5654,-2.582,-2.5925,-2.5993,-2.5993,-2.6033,-2.6044,0.0,-2.566,-2.5661,0.0,0.0,0.0,0.0,0.0,0.0,0.0,0.0,0.0,0.0,0.0,0.0,-2.5376,-2.5339,-2.5303,0.0,0.0,0.0,0.0,0.0,0.0,0.0,0.0,0.0,0.0,0.0,0.0,0.0,0.0,0.0,0.0,0.0,-2.864,-2.864,-2.9083,-2.9737,-3.0621,-3.1468,-3.2314,-3.3122,-3.3141,-3.3314,-3.3641,-3.4334,-3.4776,-3.4949,-3.5661,-3.6334,-3.6949,-3.6949,-3.7334,-3.8007,-3.8007,-3.8055,-3.8143,-3.7865,-3.8383,-3.9415,-4.0141,-4.0325,-4.0212,-4.0873,-4.1203,-4.1442,-2.2354,0.0,0.0,0.0,0.0,0.0,0.0,0.0,-2.5703,-2.5703,-2.5703,-2.5703,-2.5703,-2.6094,-2.6348,-2.6348,-2.6348,-2.6348,-2.6348,-2.5937,-2.5703,-2.5703,-2.5703,-2.5703,-2.5703,-2.5703,-2.5703,-2.5703,-2.5661,-2.5658,-2.5658,-2.5573,0.0,0.0,0.0,0.0,0.0,0.0,-2.5642,-2.6055,-2.5542,0.0,-2.5459,-2.5459,-2.5484,-2.5551,-2.5551,-2.5598,-2.5718,-2.6191,-2.6055,0.0,0.0,-2.5703,-2.5703,0.0,-2.5703,-2.5683,0.0,0.0,0.0,-2.5564,0.0,0.0,0.0,-2.5421,0.0,0.0,0.0,0.0,0.0,0.0,0.0,0.0,0.0,0.0,0.0,0.0,0.0,0.0,0.0,0.0,0.0,0.0,-2.7943,-2.7901,-2.8275,-2.8679,-2.914,-2.9948,-3.0794,-3.1641,-3.2064,-3.2487,-3.2891,-3.3333,-3.3545,-3.3564,-3.4449,-3.5064,-3.5468,-3.5911,-3.6353,-3.6757,-3.6757,-3.6988,-3.7339,-3.7175,-3.7585,-3.8365,-3.8887,-3.9182,-3.935,-3.9753,-4.0175,-4.0616,-2.3287,0.0,0.0,0.0,0.0,0.0,0.0,0.0,-2.5703,-2.5703,-2.5703,-2.5703,-2.5703,-2.6328,-2.6875,-2.7226,-2.6934,-2.6953,0.0,0.0,0.0,-2.5937,-2.5781,-2.5683,-2.5683,-2.5683,-2.5683,-2.5683,-2.5683,-2.5703,-2.5703,-2.5637,0.0,0.0,0.0,0.0,0.0,0.0,0.0,-2.6524,0.0,-2.5832,-2.5998,-2.5823,-2.5814,-2.5844,-2.5687,-2.5659,-2.5801,-2.6504,0.0,-2.5703,-2.5703,-2.5703,0.0,0.0,0.0,0.0,0.0,0.0,0.0,0.0,0.0,-2.5595,0.0,0.0,0.0,0.0,0.0,0.0,0.0,0.0,0.0,0.0,0.0,0.0,0.0,0.0,0.0,0.0,0.0,0.0,0.0,0.0,-2.7459,-2.74,-2.7544,-2.764,-2.764,-2.8409,-2.9256,-3.0121,-3.0833,-3.1583,-3.241,-3.2583,-3.2679,-3.2679,-3.3545,-3.4026,-3.4218,-3.4757,-3.518,-3.5474,-3.5334,-3.5718,-3.6469,-3.6469,-3.6776,-3.73,-3.7624,-3.8062,-3.8541,-3.8499,-3.8982,-3.9772,-2.4128,-2.3964,0.0,0.0,0.0,0.0,0.0,0.0,-2.5703,-2.5703,-2.5703,-2.5703,0.0,0.0,0.0,0.0,0.0,0.0,-2.9141,0.0,0.0,-2.6816,-2.6067,-2.5607,-2.5607,-2.5607,-2.5607,-2.5607,-2.5662,-2.5703,-2.5703,-2.5683,0.0,0.0,-2.5534,0.0,0.0,0.0,-2.6299,0.0,-2.6451,-2.7195,0.0,-2.7042,-2.6786,-2.6738,-2.5976,-2.5683,-2.5723,0.0,-2.5781,-2.5703,0.0,-2.5703,0.0,0.0,0.0,0.0,0.0,0.0,0.0,0.0,-2.5637,0.0,0.0,0.0,0.0,0.0,0.0,0.0,0.0,0.0,0.0,0.0,0.0,0.0,0.0,0.0,0.0,0.0,0.0,0.0,0.0,0.0,0.0,-2.5601,-2.6313,-2.6755,-2.6755,-2.7563,-2.8409,-2.9217,-2.9333,-2.9813,-3.0679,-3.1448,-3.1833,-3.1852,-3.266,-3.3449,-3.418,-3.3506,-3.4045,-3.5468,-3.468,-3.4834,-3.5641,-3.5641,-3.5952,-3.65,-3.6984,-3.7515,-3.7959,-3.7706,-3.8138,-3.8946,-2.491,-2.4816,0.0,0.0,0.0,0.0,0.0,0.0,-2.6855,-2.582,-2.7012,0.0,0.0,0.0,0.0,0.0,0.0,-2.8437,0.0,0.0,0.0,0.0,0.0,0.0,-2.6344,-2.5814,-2.5561,-2.5601,-2.5633,-2.5661,0.0,0.0,0.0,0.0,-2.5395,0.0,-2.4944,0.0,0.0,0.0,0.0,0.0,0.0,-2.6929,-2.6229,-2.6191,-2.582,-2.5703,-2.5703,0.0,-2.5703,0.0,0.0,0.0,0.0,0.0,0.0,0.0,0.0,0.0,0.0,0.0,0.0,0.0,0.0,0.0,-2.5765,0.0,0.0,0.0,0.0,0.0,0.0,0.0,0.0,0.0,0.0,0.0,0.0,0.0,0.0,0.0,0.0,0.0,0.0,0.0,0.0,-2.5851,-2.5851,-2.6708,-2.7345,-2.764,-2.8174,-2.8849,-2.964,-3.0006,-3.0448,-3.0968,-3.1795,-3.2391,-3.2756,-3.2852,-3.3295,-3.4007,-3.4141,-3.441,-3.4776,-3.5295,-3.5624,-3.5844,-3.5911,-3.6831,-3.8115,-3.8009,-3.8506,-3.9328,-2.5371,0.0,0.0,0.0,0.0,0.0,0.0,0.0,0.0,0.0,0.0,0.0,-2.9197,-2.9977,0.0,0.0,0.0,-2.9743,0.0,0.0,-2.6875,0.0,0.0,0.0,0.0,0.0,-2.5863,-2.5935,-2.5712,-2.5634,-2.5703,-2.5703,0.0,0.0,0.0,-2.5308,-2.4844,0.0,0.0,-2.7617,-2.7851,-2.8184,-2.8359,-2.6699,-2.5918,-2.5703,-2.5703,-2.5703,-2.5703,-2.5703,-2.5703,0.0,-2.5703,0.0,0.0,0.0,0.0,0.0,-2.5703,0.0,0.0,0.0,0.0,0.0,0.0,0.0,0.0,0.0,0.0,0.0,0.0,0.0,0.0,0.0,0.0,0.0,0.0,0.0,0.0,0.0,0.0,0.0,0.0,0.0,0.0,0.0,-2.5303,0.0,-2.534,-2.5978,-2.6439,-2.6639,-2.7315,-2.805,-2.8821,-2.884,-2.9245,-3.0114,-3.0728,-3.1276,-3.1738,-3.2069,-3.2468,-3.291,-3.3333,-3.3776,-3.4218,-3.4622,-3.5084,-3.5474,-3.5021,-3.608,-3.7864,-3.7945,-3.8652,-3.9675,-2.5293,-2.5313,0.0,0.0,0.0,0.0,0.0,0.0,0.0,0.0,0.0,0.0,0.0,0.0,0.0,0.0,0.0,-3.0115,-3.1819,0.0,-2.7871,0.0,0.0,-2.7643,0.0,0.0,0.0,0.0,0.0,0.0,0.0,0.0,-2.5684,0.0,0.0,-2.5684,-2.5723,-2.6621,-2.6523,-2.5859,-2.6699,-2.6543,-2.5918,0.0,-2.6426,-2.5703,-2.5703,0.0,0.0,-2.5703,-2.5703,0.0,0.0,0.0,0.0,0.0,0.0,0.0,0.0,0.0,0.0,-2.5703,0.0,0.0,0.0,0.0,-2.5703,0.0,0.0,0.0,0.0,0.0,0.0,-2.5703,0.0,0.0,0.0,0.0,0.0,0.0,0.0,0.0,0.0,0.0,0.0,0.0,-2.5303,0.0,-2.5391,-2.5425,-2.5855,-2.6751,-2.6815,-2.7257,-2.8126,-2.8126,-2.8534,-2.9337,-2.9303,-3.0171,-3.1767,-3.0882,-3.1371,-3.2852,-3.2102,-3.2699,-3.4141,-3.3314,-3.3987,-3.543,-3.4564,-3.5262,-3.678,-3.7051,-3.8184,-3.9599,0.0,0.0,0.0,0.0,0.0,0.0,0.0,-2.737,0.0,0.0,0.0,0.0,0.0,0.0,-3.4153,0.0,0.0,-3.133,-3.1952,-2.9645,0.0,0.0,0.0,-2.7931,0.0,0.0,0.0,0.0,0.0,0.0,0.0,0.0,0.0,0.0,0.0,-2.5703,0.0,0.0,0.0,0.0,0.0,-2.6816,-2.6523,0.0,0.0,-2.5703,-2.5703,-2.5703,0.0,-2.5703,-2.5703,-2.5703,-2.5703,-2.5703,-2.5703,-2.5703,-2.5703,0.0,0.0,0.0,-2.5703,-2.5703,0.0,0.0,0.0,0.0,0.0,0.0,0.0,0.0,0.0,0.0,-2.5703,-2.5703,-2.5703,0.0,0.0,0.0,0.0,0.0,0.0,0.0,0.0,0.0,0.0,-2.5371,-2.5371,-2.5354,0.0,-2.5415,-2.5601,-2.5861,-2.595,-2.6396,-2.7223,-2.7812,-2.8493,-2.931,-2.9868,-3.0409,-3.0924,-3.0608,-3.0749,-3.1256,-3.1564,-3.2025,-3.2602,-3.341,-3.4103,-3.4661,-3.4949,-3.5738,-3.6781,-3.745,-3.8433,-3.9485,-2.4986,0.0,0.0,0.0,0.0,0.0,0.0,0.0,0.0,0.0,-3.2903,0.0,-3.6002,0.0,-3.5754,0.0,-3.3999,-3.2395,-3.1518,-3.0239,0.0,-2.9016,-2.866,0.0,0.0,0.0,0.0,0.0,0.0,-2.5751,0.0,0.0,0.0,0.0,0.0,0.0,0.0,0.0,-2.6543,0.0,0.0,-2.6543,0.0,0.0,-2.5898,-2.6113,0.0,-2.5703,-2.5703,-2.5703,-2.5703,-2.5703,-2.5703,-2.5683,-2.5661,-2.5661,-2.5661,-2.566,-2.5634,-2.5657,0.0,-2.5634,-2.5633,0.0,-2.566,0.0,0.0,0.0,0.0,0.0,0.0,0.0,0.0,-2.5703,-2.5703,-2.5703,0.0,-2.5703,0.0,0.0,0.0,0.0,0.0,0.0,-2.5473,-2.5434,-2.5434,-2.5428,0.0,0.0,-2.5535,-2.5517,-2.5595,-2.6035,-2.6867,-2.7433,-2.8271,-2.9402,-2.9951,-3.0345,-3.0568,-3.0552,-3.0498,-3.0469,-3.1028,-3.1438,-3.1756,-3.2526,-3.3372,-3.4218,-3.4487,-3.5276,-3.6411,-3.7565,-3.8719,-3.9796,0.0,0.0,0.0,0.0,-2.6082,0.0,0.0,0.0,-3.0607,0.0,-3.2954,-3.4533,-3.4543,-3.5201,-3.5272,-3.4347,-3.4245,0.0,-3.0723,-3.1355,0.0,0.0,-2.8803,-2.8794,-2.7956,0.0,0.0,0.0,0.0,0.0,0.0,0.0,0.0,0.0,-2.5598,0.0,-2.5703,-2.5703,-2.5703,-2.5703,-2.5703,-2.5723,-2.5742,-2.5703,0.0,-2.6875,-2.6016,-2.5703,-2.5703,-2.5703,-2.5683,-2.5683,-2.5683,-2.5657,-2.5598,-2.5598,-2.5598,-2.5573,-2.5526,-2.5551,-2.557,-2.5526,0.0,0.0,0.0,0.0,-2.5607,0.0,0.0,0.0,0.0,0.0,0.0,-2.5703,-2.5683,-2.5683,-2.5683,0.0,0.0,0.0,0.0,0.0,0.0,-2.5551,-2.5517,-2.5517,-2.5498,0.0,0.0,0.0,0.0,-2.5683,-2.5703,-2.6094,-2.6934,-2.7012,-2.7891,-2.9531,-2.9558,-2.9974,-3.0693,-3.0624,-3.0568,-3.0507,-3.0507,-3.0946,-3.1588,-3.0845,-3.1961,-3.4077,-3.3314,-3.4064,-3.5757,-3.7353,-3.8969,-4.0373,-2.4799,-2.5619,-2.6467,0.0,-2.689,-2.7024,0.0,0.0,0.0,0.0,-3.5408,-3.6676,-3.7954,-3.7083,-3.6086,-3.5238,-3.4007,0.0,0.0,0.0,0.0,-2.8117,-2.8772,-2.8509,-2.6998,-2.7584,0.0,-2.7595,0.0,0.0,-2.6384,0.0,0.0,0.0,0.0,0.0,-2.5631,-2.5631,-2.5631,-2.5631,-2.5631,-2.6003,0.0,0.0,-2.6179,-2.6825,-2.5995,-2.5662,-2.5631,-2.5631,-2.5598,-2.5554,-2.5554,-2.5543,-2.5535,-2.5535,-2.5535,-2.5511,-2.5493,-2.5503,-2.5511,-2.5493,-2.5493,-2.5493,0.0,0.0,0.0,0.0,0.0,0.0,0.0,0.0,0.0,0.0,-2.5573,0.0,0.0,0.0,0.0,0.0,0.0,0.0,0.0,-2.566,-2.5633,-2.557,-2.5567,0.0,0.0,0.0,0.0,-2.5631,-2.5662,-2.5801,-2.6035,-2.7324,-2.8184,-2.8652,-2.9921,-3.0598,-3.0693,-3.0684,-3.0648,-3.0575,-3.0575,-3.0697,-3.0952,-3.1932,-3.2714,-3.3399,-3.443,-3.5468,-3.6449,-3.6892,-3.7719,-3.8642,-2.5668,0.0,0.0,-2.941,0.0,0.0,-3.0679,0.0,0.0,-3.5852,-3.6825,0.0,-3.815,-3.6999,-3.5699,-3.4468,-3.3468,0.0,0.0,0.0,0.0,-2.8531,-2.8202,-2.7605,-2.6621,-2.7082,0.0,-2.7332,0.0,0.0,-2.6639,0.0,0.0,0.0,0.0,-2.5484,0.0,-2.5558,-2.5558,-2.5558,-2.5558,0.0,0.0,-2.5733,-2.587,-2.6224,-2.5776,-2.5595,-2.5558,-2.5558,-2.5539,-2.5493,-2.5493,-2.5488,-2.5459,-2.5459,-2.5459,-2.5453,-2.5415,-2.5434,-2.5453,-2.5415,-2.5401,-2.5415,-2.5453,-2.5465,-2.5482,0.0,0.0,0.0,0.0,0.0,0.0,0.0,0.0,0.0,0.0,0.0,0.0,0.0,0.0,0.0,0.0,0.0,0.0,0.0,0.0,0.0,0.0,0.0,0.0,-2.5637,-2.6425,-2.6641,-2.6269,-2.8379,-2.9258,-2.8887,-3.0254,-3.0663,-3.0226,-3.0616,-3.0543,-3.0141,-3.0496,-3.0633,-3.0678,-3.1569,-3.2365,-3.318,-3.4847,-3.5797,-3.6228,-3.6188,-3.6949,-3.8007,0.0,0.0,0.0,0.0,0.0,0.0,0.0,-3.4853,0.0,-3.6622,0.0,-3.768,-3.6796,-3.5892,-3.468,-3.3045,0.0,-3.2025,-3.0352,-3.0237,-2.9794,-2.8813,-2.7371,-2.6544,-2.6428,-2.6544,0.0,0.0,0.0,0.0,-2.6755,0.0,0.0,0.0,0.0,0.0,0.0,-2.5498,-2.5498,0.0,-2.5498,-2.5498,-2.5498,-2.5498,-2.5498,-2.5498,-2.5488,-2.5488,-2.5498,-2.5498,-2.5473,-2.5463,-2.5463,-2.5434,-2.5395,-2.5395,-2.5395,-2.5379,-2.5313,-2.5329,-2.5368,-2.5313,-2.5303,-2.5322,-2.5368,-2.5383,-2.5406,-2.5463,-2.5498,-2.5498,0.0,0.0,0.0,0.0,0.0,0.0,0.0,0.0,0.0,0.0,0.0,0.0,0.0,0.0,0.0,0.0,0.0,0.0,0.0,0.0,0.0,-2.5703,-2.7168,0.0,-2.7187,0.0,-3.0293,-2.9785,-3.043,-3.0391,-2.9785,-3.0449,-3.0349,-2.9726,-3.0428,-3.068,-3.0653,-3.0739,-3.1746,-3.3345,-3.4812,-3.5465,-3.5601,-3.5546,-3.6459,-3.7698,0.0,0.0,0.0,0.0,0.0,-3.6449,-3.7026,-3.7373,-3.7353,-3.6776,-3.7469,0.0,-3.6796,-3.5334,-3.4026,-3.2987,-3.2295,0.0,0.0,0.0,0.0,-2.7101,-2.6755,-2.6255,-2.5534,-2.6236,-2.6948,0.0,-2.7659,-2.7659,-2.764,0.0,0.0,0.0,0.0,0.0,-2.5415,-2.5415,0.0,-2.5415,-2.5427,-2.5427,-2.5427,-2.5415,-2.5415,-2.5408,-2.5354,-2.536,-2.5415,-2.5415,-2.5376,-2.5339,-2.5339,-2.534,-2.5322,-2.5322,-2.5322,-2.5313,-2.5293,-2.5303,-2.5313,-2.5293,-2.5303,-2.5293,-2.5313,-2.5322,-2.5339,-2.5406,-2.5427,-2.5428,-2.5479,0.0,0.0,0.0,0.0,0.0,0.0,0.0,0.0,0.0,0.0,0.0,0.0,0.0,0.0,0.0,0.0,0.0,0.0,0.0,0.0,0.0,0.0,0.0,0.0,0.0,-2.9394,-3.0664,-3.0098,-3.0117,-3.0644,-3.0098,-3.0137,-3.0663,-3.08,-3.0857,-3.0894,-3.149,-3.2742,-3.4268,-3.4564,-3.5096,-3.5675,-3.5679,-3.5846,-3.6093,0.0,0.0,0.0,0.0,0.0,0.0,0.0,-3.8936,0.0,-3.8112,-3.7623,-3.718,-3.6757,-3.4795,-3.3353,-3.2949,-3.1756,-3.0487,-2.9179,-2.8698,-2.7909,-2.6659,-2.6178,0.0,-2.5303,-2.5707,-2.6563,-2.789,-2.7448,-2.7659,-2.8486,0.0,0.0,0.0,0.0,-2.5572,0.0,0.0,0.0,-2.5346,-2.5357,-2.5357,-2.5357,-2.5337,-2.5346,-2.5337,-2.5313,-2.5331,-2.5346,-2.5346,-2.5321,-2.5303,-2.5303,-2.5303,-2.5303,-2.5303,-2.5303,-2.5303,-2.5303,-2.5303,-2.5303,-2.5303,-2.5303,-2.5303,-2.5303,-2.5303,-2.5303,-2.5339,-2.5357,-2.5354,-2.5391,-2.5371,0.0,0.0,0.0,0.0,0.0,0.0,0.0,0.0,0.0,0.0,0.0,0.0,0.0,0.0,0.0,0.0,0.0,0.0,0.0,0.0,0.0,0.0,0.0,0.0,0.0,-3.0234,-3.0254,-3.0254,-3.0234,-3.0254,-3.0254,-3.0254,-3.0703,-3.0898,-3.0957,-3.1697,-3.2755,-3.3965,-3.4347,-3.5028,-3.5802,-3.5723,-3.5703,-3.5682,0.0,-3.5894,0.0,0.0,-3.8677,0.0,0.0,-3.9813,-3.9627,-3.8908,-3.7655,-3.6565,-3.6063,-3.4098,-3.2762,-3.257,-3.1232,-3.0025,-2.9159,-2.8352,-2.7505,-2.664,-2.5774,-2.5303,-2.5303,-2.5303,-2.6063,0.0,-2.7121,-2.7544,0.0,0.0,0.0,0.0,0.0,0.0,0.0,0.0,-2.5303,-2.5303,-2.5303,-2.5303,-2.5303,-2.5303,-2.5303,-2.5303,-2.5303,-2.5303,-2.5303,-2.5303,-2.5303,-2.5303,-2.5303,-2.5303,-2.5303,-2.5303,-2.5303,-2.5303,-2.5303,-2.5303,-2.5303,-2.5303,-2.5303,-2.5303,-2.5303,-2.5303,-2.5303,-2.5303,-2.5303,-2.5303,-2.5303,-2.5303,0.0,0.0,0.0,0.0,0.0,0.0,0.0,0.0,0.0,0.0,0.0,0.0,0.0,0.0,0.0,0.0,0.0,0.0,0.0,0.0,0.0,-2.7969,-2.7832,0.0,-3.0098,0.0,-3.0293,-3.0176,-2.9883,-3.0391,-3.0351,-2.9902,-3.0605,-3.0898,-3.0957,-3.153,-3.2412,-3.3457,-3.4035,-3.4944,-3.5913,-3.5797,-3.5758,-3.5747,0.0,0.0,0.0,0.0,0.0,0.0,0.0,-3.9773,-3.9928,-3.761,-3.7156,-3.6192,-3.3961,-3.302,-3.2241,-3.1512,-3.0823,-3.0025,-2.9159,-2.8352,-2.7505,-2.664,-2.5774,-2.5303,-2.5303,-2.5303,-2.5774,0.0,0.0,-2.7852,0.0,0.0,0.0,0.0,0.0,0.0,0.0,-2.5322,-2.5303,-2.5303,-2.5303,-2.5303,-2.5303,-2.5303,-2.5303,-2.5303,-2.5303,-2.5303,-2.5303,-2.5303,-2.5303,-2.5303,-2.5303,-2.5303,-2.5303,-2.5303,-2.5303,-2.5303,-2.5303,-2.5303,-2.5303,-2.5303,-2.5303,-2.5303,-2.5303,-2.5303,-2.5303,-2.5303,-2.5303,-2.5303,-2.5303,-2.5303,-2.5303,0.0,0.0,0.0,0.0,0.0,0.0,0.0,0.0,0.0,0.0,0.0,0.0,0.0,0.0,0.0,0.0,0.0,0.0,-2.6875,0.0,-2.8223,-3.0508,-2.8437,0.0,-3.1934,-2.9648,-2.9336,-3.0742,-3.0039,-3.0117,-3.0781,-3.0859,-3.0898,-3.0918,-3.0976,-3.1953,-3.3418,-3.3476,-3.4511,-3.5996,-3.5976,-3.5975,-3.5954,0.0,0.0,0.0,0.0,0.0,0.0,0.0,-3.9152,-3.8311,-3.6816,-3.6494,-3.5809,-3.4338,-3.2636,-3.1476,-3.1153,-3.0528,-2.9576,-2.8218,-2.7988,-2.7274,-2.589,-2.5495,-2.5303,-2.5303,-2.5303,-2.5726,0.0,0.0,0.0,0.0,0.0,0.0,0.0,0.0,-2.5928,-2.6063,-2.5514,-2.5303,-2.5303,-2.5303,-2.5303,-2.5303,-2.5303,-2.5303,-2.5303,-2.5303,-2.5303,-2.5303,-2.5303,-2.5303,-2.5303,-2.5303,-2.5303,-2.5303,-2.5303,-2.5303,-2.5303,-2.5303,-2.5303,-2.5303,-2.5303,-2.5303,-2.5303,-2.5303,-2.5303,-2.5303,-2.5303,-2.5303,-2.5303,-2.5303,-2.5303,-2.5303,0.0,0.0,0.0,0.0,0.0,0.0,0.0,0.0,0.0,0.0,0.0,0.0,0.0,0.0,0.0,0.0,0.0,0.0,-2.6851,0.0,-2.7635,-2.9198,-2.8184,-2.8647,-3.0579,-2.9524,-2.9684,-3.0898,-3.0547,-3.0566,-3.0898,-3.0898,-3.0898,-3.0898,-3.0898,-3.1894,-3.3398,-3.3398,-3.4473,-3.5996,-3.5996,-3.5996,-3.5996,-3.9019,0.0,-3.8368,0.0,-3.8918,-3.8239,-3.936,-3.8383,-3.7019,-3.5734,-3.5188,-3.4614,-3.3829,-3.2031,-3.0791,-3.0547,-3.0137,-2.933,-2.7979,-2.7809,-2.7144,-2.5745,-2.5437,0.0,-2.5214,-2.5214,-2.548,-2.6079,-2.6987,0.0,0.0,0.0,0.0,0.0,-2.6236,-2.589,-2.6178,-2.5553,-2.5303,-2.5303,-2.5303,-2.5303,-2.5303,-2.5303,-2.5303,-2.5303,-2.5303,-2.5303,-2.5303,-2.5303,-2.5303,-2.5303,-2.5303,-2.5303,-2.5303,-2.5303,-2.5303,-2.5303,-2.5303,-2.5303,-2.5303,-2.5303,-2.5303,-2.5303,-2.5303,-2.5303,-2.5303,-2.5303,-2.5303,-2.5303,-2.5303,-2.5303,-2.5303,-2.5303,0.0,0.0,0.0,0.0,0.0,0.0,0.0,-2.536,-2.5371,0.0,0.0,0.0,0.0,0.0,0.0,0.0,0.0,0.0,0.0,0.0,0.0,-2.8343,-2.8681,-2.9822,-2.9569,-2.9938,-3.0837,-3.0837,-3.0835,-3.081,-3.081,-3.081,-3.081,-3.081,-3.1805,-3.335,-3.3355,-3.4431,-3.5973,-3.5996,-3.5996,-3.5996,-3.9717,-3.9239,-3.8946,-3.9753,-3.9221,-3.8432,-3.7654,-3.7526,-3.6615,-3.4156,-3.3128,-3.232,-3.1538,-3.095,-3.0288,-2.9487,-2.9589,-2.9439,-2.8817,-2.7979,-2.7236,0.0,0.0,-2.5214,-2.501,-2.4991,-2.4943,-2.4823,0.0,0.0,-2.6365,0.0,-2.7448,-2.6621,-2.6601,-2.612,-2.5322,-2.5303,-2.5303,-2.5303,-2.5303,-2.5303,-2.5303,-2.5303,-2.5303,-2.5303,-2.5303,-2.5303,-2.5303,-2.5303,-2.5303,-2.5303,-2.5303,-2.5303,-2.5303,-2.5303,-2.5303,-2.5303,-2.5303,-2.5303,-2.5303,-2.5303,-2.5303,-2.5303,-2.5303,-2.5303,-2.5303,-2.5303,-2.5303,-2.5303,-2.5303,-2.5303,-2.5303,-2.5303,0.0,0.0,0.0,0.0,0.0,0.0,-2.5303,-2.5313,-2.5313,0.0,0.0,0.0,0.0,0.0,0.0,0.0,0.0,-2.8051,-2.8071,0.0,-3.0547,-2.8935,-2.8935,-3.0586,-2.9705,-2.9781,-3.0696,-3.0696,-3.0669,-3.0606,-3.0606,-3.0606,-3.0606,-3.0606,-3.1637,-3.3206,-3.3278,-3.4365,-3.5907,-3.5974,-3.5996,-3.5996,-3.9038,-3.8891,-3.8781,-3.9038,-3.8414,-3.779,-3.7533,-3.6523,-3.533,-3.3972,-3.2614,-3.1476,-3.0668,-2.9931,-2.9411,0.0,-2.9353,-2.8914,0.0,-2.7355,-2.6721,-2.5424,-2.5101,-2.4923,-2.4869,-2.485,-2.4842,-2.4804,0.0,0.0,0.0,-2.6787,-2.6544,-2.5726,-2.6136,-2.586,-2.5126,-2.5583,-2.5468,-2.4968,-2.4968,-2.4968,-2.4968,-2.4968,-2.4968,-2.4968,-2.4968,-2.4968,-2.4962,-2.5065,-2.5099,-2.5111,-2.5264,-2.5303,-2.5303,-2.5303,-2.5303,-2.5303,-2.5303,-2.5303,-2.5303,-2.5303,-2.5303,-2.5303,-2.5303,-2.5184,-2.5099,-2.5099,-2.5099,-2.5141,-2.5274,-2.5303,-2.5303,-2.5303,-2.5303,0.0,0.0,0.0,0.0,0.0,-2.5303,-2.5303,0.0,-2.5303,0.0,0.0,0.0,0.0,0.0,0.0,0.0,0.0,-2.8501,0.0,-2.9564,-2.9052,-2.9079,-2.9644,-2.9365,-2.9726,-3.0619,-3.0619,-3.0628,-3.0606,-3.0606,-3.0606,-3.0606,-3.0606,-3.1637,-3.32,-3.3223,-3.4266,-3.5766,-3.5788,-3.5861,-3.5921,-3.8707,-3.8707,-3.8597,-3.8303,-3.7826,-3.7276,-3.6652,-3.5679,-3.4477,-3.3073,-3.2008,-3.098,-2.9879,-2.931,0.0,-2.8994,-2.9156,-2.8713,-2.7437,-2.7193,-2.6674,-2.5737,-2.5397,-2.5216,-2.5139,0.0,0.0,-2.4559,-2.5142,-2.5544,-2.5747,-2.6174,-2.5925,-2.516,-2.614,-2.6124,-2.5416,-2.6144,-2.5985,-2.5261,-2.5261,-2.5073,-2.4804,-2.4804,-2.4804,-2.4804,-2.4804,-2.4804,-2.4818,-2.4891,-2.4911,-2.4956,-2.5061,-2.5115,-2.5126,-2.5163,-2.5192,-2.5182,-2.5126,-2.5115,-2.5126,-2.5163,-2.516,-2.5115,-2.5115,-2.5024,-2.4937,-2.4998,-2.501,-2.5057,-2.5264,-2.5253,-2.5192,-2.5192,-2.5192,-2.5192,-2.5192,0.0,0.0,0.0,0.0,0.0,0.0,-2.516,0.0,0.0,0.0,0.0,0.0,0.0,0.0,-2.7871,-2.8679,0.0,-2.9583,-2.9583,-2.9608,-2.9661,-2.9687,-2.9973,-3.054,-3.0559,-3.0552,-3.0513,-3.0513,-3.0513,-3.0513,-3.0513,-3.1549,-3.3089,-3.313,-3.4194,-3.5632,-3.5346,-3.5488,-3.5773,-3.8707,-3.8707,0.0,0.0,-3.747,0.0,-3.5247,-3.4899,-3.4027,-3.1696,-3.1347,-3.0723,-2.9159,-2.8994,-2.8994,-2.8994,0.0,0.0,0.0,-2.7288,-2.6916,-2.6994,-2.6277,-2.582,-2.5671,-2.5671,-2.5227,-2.4281,-2.4484,-2.4647,-2.4794,-2.5552,-2.5529,-2.4879,-2.6403,-2.6688,-2.6029,-2.6822,-2.6691,-2.5957,-2.5957,-2.5483,-2.476,-2.476,-2.476,-2.476,-2.476,-2.476,-2.476,-2.4775,-2.4775,-2.479,-2.4804,-2.4804,-2.4814,-2.4949,-2.4986,-2.4962,-2.4828,-2.4804,-2.4828,-2.4949,-2.4891,-2.4804,-2.479,-2.4775,-2.4814,-2.4937,-2.4974,-2.5041,-2.5233,-2.5099,-2.4986,-2.4986,-2.4986,-2.4986,-2.4986,0.0,0.0,0.0,0.0,0.0,0.0,-2.4917,-2.4986,0.0,0.0,0.0,0.0,0.0,-2.8102,-2.7986,-2.8775,-2.9583,-3.0379,-3.0398,-3.0398,-3.041,-3.0472,-3.0462,-3.041,-3.0453,-3.0462,-3.0398,-3.0398,-3.0417,-3.0494,-3.0494,-3.1487,-3.3,-3.3121,-3.4178,-3.5514,-3.4816,-3.5055,-3.5599,0.0,0.0,-3.845,-3.7624,-3.6982,-3.6229,-3.5155,-3.3945,-3.2742,-3.1549,-3.087,-3.0118,-2.9104,-2.8994,-2.8994,-2.8994,-2.8994,-2.8433,-2.7046,-2.6769,-2.6147,-2.4949,-2.4728,-2.4894,-2.5463,-2.5463,-2.5332,-2.5127,-2.5319,-2.5127,-2.4578,-2.4922,-2.4978,-2.4827,-2.5675,-2.5945,-2.5797,-2.6468,-2.628,-2.5522,-2.5522,-2.506,-2.4339,-2.4339,-2.4339,-2.4339,-2.4339,-2.4339,-2.4357,-2.4528,-2.4559,-2.4591,-2.4746,-2.4804,-2.4804,-2.4842,-2.4842,-2.4842,-2.4818,-2.4804,-2.4818,-2.4842,-2.4814,-2.476,-2.4607,-2.4559,-2.4575,-2.4604,-2.462,-2.4682,-2.4869,-2.4869,-2.4842,-2.4842,-2.4842,-2.4842,-2.4842,-2.4842,0.0,0.0,-2.4832,-2.4804,-2.4804,-2.4828,-2.4842,0.0,0.0,0.0,0.0,-2.9198,-3.0198,-2.8852,-2.966,-3.0198,-3.0398,-3.0398,-3.0398,-3.0398,-3.0425,-3.0425,-3.041,-3.0425,-3.0425,-3.0398,-3.0398,-3.0794,-3.1391,-3.1391,-3.2372,-3.3904,-3.3923,-3.459,-3.5496,-3.5321,-3.5414,-3.5601,-3.8707,-3.8707,-3.834,-3.7147,-3.6578,-3.5881,-3.4651,-3.3715,-3.2724,-3.1549,-3.1017,-3.0301,-2.9122,-2.8994,-2.8994,-2.8994,-2.8994,-2.8627,-2.7769,-2.7016,-2.6374,-2.586,-2.5126,-2.5126,-2.5933,-2.5952,-2.5768,-2.5403,-2.5133,-2.4801,-2.4357,-2.485,-2.5069,-2.5125,-2.619,-2.6466,-2.6169,-2.7243,-2.7016,-2.597,-2.6337,-2.5786,-2.474,-2.474,-2.452,-2.419,-2.419,-2.419,-2.4209,-2.4339,-2.4357,-2.4375,-2.4495,-2.4528,-2.4528,-2.4528,-2.4591,-2.4639,-2.4561,-2.4528,-2.4528,-2.4528,-2.4591,-2.4607,-2.441,-2.4357,-2.4393,-2.4478,-2.4495,-2.4559,-2.476,-2.4731,-2.4654,-2.4654,-2.4654,-2.4654,-2.4654,-2.4654,0.0,-2.4654,-2.4575,-2.4528,-2.4528,-2.4607,-2.4823,-2.5182,0.0,0.0,-2.7262,-2.9975,-3.0778,-2.914,-3.0333,-3.0814,-3.0398,-3.0398,-3.0398,-3.0398,-3.0398,-3.0398,-3.0398,-3.0398,-3.0323,-3.0209,-3.0209,-3.0437,-3.0825,-3.1325,-3.2043,-3.2957,-3.3846,-3.4487,-3.4911,-3.4911,-3.4937,-3.4952,-3.8465,-3.8546,-3.812,-3.6618,-3.6271,-3.5695,-3.4211,-3.3716,-3.302,-3.1586,-3.1274,-3.065,-2.914,-2.8994,-2.8994,-2.8994,-2.8994,-2.8938,-2.881,-2.7438,-2.6851,-2.7402,-2.6137,-2.5768,-2.6594,-2.6722,-2.6392,-2.5586,-2.4777,-2.4318,-2.4208,-2.4887,-2.5293,-2.5458,-2.6814,-2.7181,-2.6869,-2.8246,-2.8044,-2.6851,-2.7512,-2.6906,-2.5586,-2.5586,-2.5144,-2.4557,-2.441,-2.4373,-2.4355,-2.4245,-2.419,-2.419,-2.419,-2.419,-2.419,-2.419,-2.4321,-2.4428,-2.4247,-2.419,-2.419,-2.419,-2.4339,-2.441,-2.4247,-2.419,-2.4247,-2.4428,-2.4444,-2.4512,-2.467,-2.4559,-2.4444,-2.4444,-2.4444,-2.4444,-2.4444,0.0,-2.4444,-2.4444,-2.4303,-2.4245,-2.4373,-2.4542,-2.4964,-2.5782,-2.6778,-2.7685,0.0,-3.0373,-3.0863,-2.9595,-3.0963,-3.1352,-3.059,-3.0681,-3.0681,-3.059,-3.0681,-3.0605,-3.0398,-3.0489,-3.0343,-2.9999,-2.9969,-2.9937,-2.9976,-3.0877,-3.1337,-3.16,-3.3297,-3.3961,-3.3961,-3.3987,-3.3987,-3.3987,-3.7451,-3.7773,-3.7742,-3.6787,-3.6114,-3.5508,-3.4907,-3.3367,-3.2064,-3.1488,-3.0797,-3.0026,-2.9085,-2.8994,-2.8994,-2.8994,-2.8994,-2.8723,-2.8026,-2.7126,-2.6355,-2.5807,-2.5531,-2.5768,-2.6594,-2.7273,-2.7218,-2.641,-2.5603,-2.4869,-2.419,-2.4318,-2.474,-2.5421,-2.566,-2.6447,-2.7622,-2.7879,-2.7842,-2.7622,-2.775,-2.7236,-2.641,-2.641,-2.6337,-2.6135,-2.5456,-2.5219,-2.5127,-2.4428,-2.419,-2.419,-2.419,-2.419,-2.419,-2.419,-2.4228,-2.4247,-2.4209,-2.419,-2.419,-2.419,-2.4228,-2.4247,-2.4209,-2.419,-2.4209,-2.4247,-2.4247,-2.4266,-2.4284,-2.4284,-2.4247,-2.4247,-2.4247,-2.4247,-2.4247,0.0,-2.4247,-2.4247,-2.4209,-2.4465,-2.5164,-2.5239,-2.559,-2.6418,-2.7399,-2.8334,-2.9191,-3.1036,-3.1919,-3.1636,-3.168,-3.1641,-3.1506,-3.1962,-3.1962,-3.1506,-3.1948,-3.156,-3.0417,-3.0929,-3.0748,-2.9999,-2.9813,-3.0145,-3.0807,-3.0992,-3.1445,-3.2104,-3.2645,-3.2856,-3.2871,-3.3031,-3.3103,-3.3103,-3.719,-3.736,-3.7113,-3.5881,-3.5415,-3.4837,-3.3795,-3.288,-3.2067,-3.1438,-3.1006,-3.0502,-2.9683,-2.9817,-2.9802,-2.9366,-2.9521,-2.931,-2.8503,-2.7695,-2.7071,-2.6704,-2.6282,-2.641,-2.7236,-2.7181,-2.6979,-2.6612,-2.5364,-2.4557,-2.4208,-2.463,-2.5273,-2.6062,-2.6484,-2.7108,-2.7824,-2.8264,-2.8209,-2.7842,-2.8282,-2.797,-2.72,-2.6778,-2.6337,-2.5841,-2.5034,-2.474,-2.4685,-2.4318,-2.419,-2.419,-2.419,-2.419,-2.419,-2.419,-2.419,-2.419,-2.419,-2.419,-2.419,-2.419,-2.419,-2.419,-2.419,-2.419,-2.419,-2.419,-2.419,-2.419,-2.419,-2.419,-2.419,-2.419,-2.419,0.0,0.0,-2.4557,-2.4832,-2.4832,-2.5236,-2.564,-2.6007,-2.6043,-2.6557,-2.7805,-2.7917,-2.8664,-3.0401,-3.1451,-3.1783,-3.1311,-3.1707,-3.1702,-3.1279,-3.1946,-3.1946,-3.1264,-3.1948,-3.149,-3.006,-3.075,-3.0574,-2.9678,-2.957,-2.968,-2.9971,-3.0562,-3.0752,-3.079,-3.1935,-3.2184,-3.1955,-3.2359,-3.2685,-3.2955,-3.6825,-3.6921,-3.6579,-3.5169,-3.4781,-3.4253,-3.2962,-3.2523,-3.2102,-3.1373,-3.1299,-3.0985,-3.0194,-3.0428,-3.0317,-2.9538,-2.9831,-2.9722,-2.8918,-2.8366,-2.7989,-2.7805,-2.7218,-2.7255,-2.8062,-2.7291,-2.6888,-2.6888,-2.5273,-2.4575,-2.4777,-2.5201,-2.5915,-2.6906,-2.7512,-2.7897,-2.8117,-2.8741,-2.865,-2.8136,-2.8737,-2.8631,-2.8007,-2.7402,-2.6778,-2.6098,-2.5107,-2.4759,-2.4704,-2.4318,-2.419,-2.419,-2.419,-2.419,-2.419,-2.419,-2.419,-2.419,-2.419,-2.419,-2.419,-2.419,-2.419,-2.419,-2.419,-2.419,-2.419,-2.419,-2.419,-2.419,-2.419,-2.419,-2.419,-2.419,0.0,0.0,0.0,-2.5162,-2.5676,-2.5676,-2.6227,-2.6667,-2.6869,-2.6888,-2.7475,-2.8883,-2.8594,-2.9163,-3.1017,-3.1501,-3.1411,-3.0813,-3.1652,-3.1732,-3.0922,-3.2032,-3.2032,-3.0922,-3.1863,-3.1393,-2.9734,-3.049,-3.0301,-2.9392,-2.933,-2.9181,-2.9053,-2.9894,-2.9962,-2.9702,-3.1034,-3.1371,-3.1189,-3.1711,-3.1996,-3.2259,-3.5739,-3.6139,-3.6197,-3.5404,-3.4692,-3.4117,-3.3669,-3.2617,-3.1708,-3.1341,-3.1299,-3.0985,-3.0194,-3.0137,-2.9849,-2.9101,-2.941,-2.9304,-2.85,-2.8742,-2.8594,-2.7824,-2.7732,-2.8099,-2.8883,-2.8117,-2.7714,-2.7714,-2.6101,-2.5676,-2.641,-2.5713,-2.6248,-2.7714,-2.7769,-2.8209,-2.8925,-2.8957,-2.8957,-2.892,-2.8975,-2.8957,-2.8902,-2.8847,-2.8773,-2.8517,-2.6979,-2.6429,-2.6209,-2.4704,-2.419,-2.419,-2.419,-2.419,-2.419,-2.419,-2.419,-2.419,-2.419,-2.419,-2.419,-2.419,-2.419,-2.419,-2.419,-2.419,-2.419,-2.419,-2.419,-2.419,-2.419,-2.419,-2.419,-2.419,0.0,0.0,-2.5311,-2.5988,-2.6521,-2.6521,-2.6557,-2.6888,-2.764,-2.7714,-2.8062,-2.892,-2.9641,-3.0099,-3.0283,-3.1005,-3.1397,-3.1342,-3.189,-3.1826,-3.0996,-3.3013,-3.3013,-3.1014,-3.2302,-3.1796,-2.9715,-3.0338,-3.018,-2.9392,-2.9134,-2.9017,-2.8994,-2.9095,-2.9517,-3.0115,-2.9758,-3.0031,-3.0688,-3.0923,-3.0544,-3.005,-3.5622,-3.5783,-3.5522,-3.4336,-3.4267,-3.3887,-3.2366,-3.2128,-3.1897,-3.1313,-3.1227,-3.1124,-3.0812,-3.1011,-3.0853,-3.0068,-3.0402,-3.0113,-2.8831,-2.8917,-2.8843,-2.8553,-2.8539,-2.8705,-2.8975,-2.8209,-2.7787,-2.7787,-2.6686,-2.63,-2.6612,-2.6796,-2.72,-2.7824,-2.8319,-2.8723,-2.8994,-2.8994,-2.8994,-2.8994,-2.8994,-2.8994,-2.8883,-2.7897,-2.7824,-2.7989,-2.5878,-2.5419,-2.5676,-2.4575,-2.419,-2.419,-2.419,-2.419,-2.419,-2.419,-2.419,-2.419,-2.419,-2.419,-2.419,-2.419,-2.419,-2.4318,-2.4814,-2.4924,-2.5089,-2.5585,-2.5695,-2.5695,-2.5695,-2.5473,-2.539,-2.5635,0.0,-2.553,-2.5737,-2.6303,-2.6659,-2.6659,-2.7272,-2.7834,-2.8143,-2.8406,-2.909,-3.0393,-3.032,-3.0852,-3.2357,-3.2247,-3.2137,-3.2137,-3.2323,-3.2317,-3.2001,-3.3309,-3.329,-3.2001,-3.3013,-3.2532,-3.0772,-3.1515,-3.1112,-2.9894,-2.9798,-2.9475,-2.8994,-2.8994,-2.9177,-2.9439,-2.9222,-2.9746,-3.0583,-3.0501,-3.1119,-3.1959,-3.5622,-3.5622,-3.5216,-3.3964,-3.4167,-3.3812,-3.1833,-3.1952,-3.2019,-3.1292,-3.119,-3.119,-3.119,-3.1449,-3.1293,-3.0501,-3.082,-3.0527,-2.9228,-2.9082,-2.8895,-2.8662,-2.8767,-2.8815,-2.8815,-2.8268,-2.7999,-2.7999,-2.7082,-2.6758,-2.7017,-2.7307,-2.7645,-2.8017,-2.856,-2.8863,-2.8994,-2.8863,-2.8887,-2.8994,-2.8863,-2.8905,-2.8847,-2.7387,-2.7305,-2.7666,-2.5154,-2.4829,-2.5421,-2.4401,-2.4198,-2.4363,-2.4127,-2.3976,-2.3896,-2.3896,-2.3896,-2.3951,-2.4184,-2.4218,-2.4244,-2.4206,-2.419,-2.441,-2.5219,-2.5303,-2.5479,-2.6408,-2.6425,-2.6295,-2.6385,-2.6098,-2.5937,-2.6209,-2.6047,-2.5976,-2.619,-2.6712,-2.7091,-2.7091,-2.7781,-2.8237,-2.8237,-2.8826,-2.9661,-3.0739,-3.0913,-3.1678,-3.333,-3.2669,-3.2339,-3.2596,-3.2614,-3.2724,-3.2981,-3.3532,-3.3275,-3.2228,-3.3036,-3.2706,-3.1403,-3.1971,-3.1623,-3.0577,-3.0577,-3.0265,-2.9732,-2.9494,-2.9549,-2.9714,-2.9195,-2.9757,-3.0802,-3.0354,-3.1135,-3.2299,-3.5622,-3.5622,-3.5385,-3.4624,-3.4489,-3.3998,-3.2551,-3.2313,-3.2019,-3.1292,-3.119,-3.119,-3.119,-3.119,-3.0903,-3.0176,-3.0413,-3.0283,-2.954,-2.918,-2.8665,-2.7933,-2.821,-2.8394,-2.8394,-2.8394,-2.8394,-2.8394,-2.7255,-2.7126,-2.788,-2.7091,-2.7317,-2.8394,-2.8394,-2.8633,-2.897,-2.8565,-2.8633,-2.897,-2.8565,-2.8615,-2.886,-2.7725,-2.7741,-2.8044,-2.5376,-2.5111,-2.5775,-2.4234,-2.419,-2.4671,-2.3923,-2.3459,-2.3189,-2.3189,-2.3189,-2.3366,-2.4095,-2.4282,-2.4295,-2.4215,-2.4208,-2.4428,-2.5217,-2.5096,-2.5159,-2.6362,-2.6039,-2.5604,-2.5955,-2.575,-2.5535,-2.5535,-2.6188,-2.6727,-2.6727,-2.7391,-2.7897,-2.7897,-2.7897,-2.7897,-2.7897,-2.8936,-2.9602,-2.962,-3.148,-3.2588,-3.2588,-3.1843,-3.177,-3.257,-3.2588,-3.2973,-3.3788,-3.3788,-3.2999,-3.1421,-3.2228,-3.2192,-3.1403,-3.1403,-3.1403,-3.1403,-3.1403,-3.1403,-3.1329,-3.0522,-3.0668,-3.1219,-2.9622,-2.9989,-3.1274,-3.0485,-3.021,-3.021,-3.5622,-3.5622,-3.5385,-3.4624,-3.4928,-3.4607,-3.2577,-3.273,-3.2611,-3.136,-3.119,-3.119,-3.119,-3.119,-3.1106,-3.0886,-3.0951,-3.0704,-2.9972,-2.8819,-2.8048,-2.7842,-2.7959,-2.8047,-2.8047,-2.8047,-2.8047,-2.8047,-2.7723,-2.7667,-2.788,-2.7667,-2.7723,-2.8047,-2.8047,-2.812,-2.8228,-2.8102,-2.812,-2.8228,-2.8093,-2.7826,-2.743,-2.7023,-2.7032,-2.7086,-2.5667,-2.5746,-2.625,-2.4668,-2.4277,-2.4306,-2.3595,-2.3277,-2.3189,-2.3189,-2.3189,-2.3366,-2.4095,-2.4282,-2.4421,-2.4973,-2.5111,-2.5325,-2.6136,-2.6213,-2.6401,-2.7316,-2.7344,-2.7366,-2.801,-2.7801,-2.7814,-2.8581,-2.8494,-2.8405,-2.8615,-2.8161,-2.7825,-2.7825,-2.7632,-2.7679,-2.8206,-2.88,-2.9621,-3.0706,-3.188,-3.2532,-3.2532,-3.2299,-3.2281,-3.2514,-3.2532,-3.2639,-3.2903,-3.3196,-3.3285,-3.3073,-3.3049,-3.3049,-3.3073,-3.3073,-3.2629,-3.1837,-3.1837,-3.1,-2.9715,-2.9764,-2.958,-2.9286,-2.9088,-2.9641,-3.0522,-3.0283,-3.0558,-3.0962,-3.5622,-3.5622,-3.547,-3.5013,-3.5318,-3.5064,-3.3406,-3.3305,-3.2983,-3.1782,-3.1376,-3.119,-3.119,-3.119,-3.119,-3.119,-3.119,-3.0886,-3.0159,-2.8958,-2.8281,-2.8281,-2.7715,-2.75,-2.7648,-2.7648,-2.7648,-2.7648,-2.75,-2.7426,-2.7426,-2.7426,-2.75,-2.7648,-2.7648,-2.7754,-2.7897,-2.7725,-2.7736,-2.7897,-2.7725,-2.7501,-2.7171,-2.6704,-2.6718,-2.6823,-2.5558,-2.5691,-2.6276,-2.5014,-2.4384,-2.4025,-2.345,-2.3076,-2.2902,-2.3197,-2.3284,-2.3484,-2.4535,-2.483,-2.5004,-2.5785,-2.574,-2.5712,-2.6533,-2.6782,-2.7163,-2.8123,-2.8338,-2.8502,-2.9096,-2.8897,-2.887,-2.9537,-2.9298,-2.9066,-2.9264,-2.8713,-2.8281,-2.8281,-2.8101,-2.815,-2.8579,-2.9288,-3.0275,-3.1688,-3.2219,-3.2484,-3.2484,-3.2484,-3.2484,-3.2484,-3.2484,-3.2484,-3.2484,-3.2616,-3.2854,-3.3284,-3.3045,-3.3045,-3.3284,-3.3284,-3.2883,-3.2192,-3.2192,-3.1515,-3.0393,-3.0303,-2.983,-2.9106,-2.9034,-2.9318,-2.9761,-2.9735,-3.0069,-3.0414,-3.5577,-3.556,-3.5515,-3.5577,-3.5622,-3.5368,-3.4607,-3.388,-3.3136,-3.2374,-3.1647,-3.119,-3.119,-3.119,-3.119,-3.119,-3.119,-3.0903,-3.0243,-2.9499,-2.9076,-2.9076,-2.7604,-2.6976,-2.7345,-2.7276,-2.7241,-2.7241,-2.6873,-2.6691,-2.6691,-2.6691,-2.6906,-2.7241,-2.7241,-2.7439,-2.7783,-2.7378,-2.7439,-2.7754,-2.7378,-2.7435,-2.7578,-2.6596,-2.6601,-2.6933,-2.5292,-2.532,-2.6057,-2.531,-2.4464,-2.3746,-2.3561,-2.2987,-2.2547,-2.3274,-2.3494,-2.3799,-2.522,-2.5659,-2.5879,-2.6607,-2.6299,-2.5973,-2.6651,-2.7026,-2.7584,-2.8767,-2.8989,-2.9119,-2.9506,-2.9313,-2.9146,-2.9214,-2.9178,-2.9178,-2.9178,-2.9127,-2.9076,-2.9076,-2.9025,-2.9008,-2.9076,-3.0106,-3.1203,-3.2297,-3.2384,-3.2384,-3.2384,-3.2384,-3.2384,-3.2384,-3.2384,-3.2384,-3.2384,-3.1968,-3.2004,-3.2484,-3.2451,-3.2451,-3.2484,-3.2484,-3.2484,-3.2451,-3.2451,-3.2329,-3.2119,-3.1447,-3.0653,-2.9872,-2.9177,-2.8924,-2.9,-2.8924,-2.8924,-2.8982,-3.5362,-3.5207,-3.4988,-3.5515,-3.5622,-3.5368,-3.4607,-3.388,-3.3136,-3.2374,-3.1647,-3.119,-3.119,-3.119,-3.119,-3.119,-3.119,-3.1123,-3.097,-3.0277,-2.9871,-2.9871,-2.8383,-2.7605,-2.7709,-2.7114,-2.6841,-2.6841,-2.6758,-2.6691,-2.6691,-2.6691,-2.6758,-2.6841,-2.6841,-2.6873,-2.6954,-2.6873,-2.6873,-2.6954,-2.6873,-2.6533,-2.6119,-2.6482,-2.6315,-2.5992,-2.6149,-2.6385,-2.6468,-2.572,-2.4224,-2.2847,-2.3913,-2.3748,-2.3308,-2.4066,-2.4269,-2.4441,-2.5372,-2.6031,-2.664,-2.7385,-2.7913,-2.8101,-2.7657,-2.7624,-2.7913,-2.8818,-2.9,-2.9197,-2.9847,-2.9929,-3.0057,-3.0632,-3.0717,-3.0717,-3.0717,-3.0226,-2.9871,-2.9871,-2.9347,-2.9211,-2.9803,-3.0628,-3.1219,-3.1449,-3.1487,-3.1487,-3.1487,-3.1487,-3.1487,-3.1487,-3.1487,-3.1487,-3.1487,-3.1389,-3.1714,-3.2484,-3.2144,-3.2127,-3.2484,-3.2484,-3.2316,-3.1951,-3.1951,-3.1095,-2.9761,-2.9851,-2.9132,-2.7958,-2.8082,-2.8145,-2.8174,-2.8145,-2.8145,-2.8174,-3.4496,-3.4333,-3.4235,-3.4592,-3.4657,-3.462,-3.458,-3.3913,-3.3282,-3.2874,-3.2171,-3.1579,-3.1241,-3.119,-3.119,-3.119,-3.119,-3.119,-3.119,-3.0514,-3.026,-3.0615,-2.9178,-2.8552,-2.8907,-2.8163,-2.7435,-2.6691,-2.6691,-2.6691,-2.6691,-2.6691,-2.6691,-2.6691,-2.6691,-2.6691,-2.6691,-2.6691,-2.6691,-2.6691,-2.6691,-2.6471,-2.6167,-2.6539,-2.6454,-2.6184,-2.6556,-2.6691,-2.659,-2.5862,-2.4847,-2.3951,-2.4357,-2.4222,-2.4052,-2.4797,-2.5017,-2.5186,-2.593,-2.6657,-2.7334,-2.7688,-2.8399,-2.8873,-2.8467,-2.8653,-2.9025,-2.9431,-2.9786,-3.0159,-3.0548,-3.0632,-3.0751,-3.114,-3.119,-3.119,-3.119,-3.0869,-3.0632,-3.0632,-3.0277,-3.0192,-3.0581,-3.097,-3.119,-3.119,-3.119,-3.119,-3.119,-3.119,-3.119,-3.119,-3.119,-3.119,-3.119,-3.119,-3.1428,-3.1896,-3.164,-3.164,-3.1896,-3.1896,-3.175,-3.1507,-3.1507,-3.0779,-2.9553,-2.9721,-2.8922,-2.7568,-2.7777,-2.7646,-2.7369,-2.7702,-2.784,-2.7788,-3.3531,-3.3495,-3.3495,-3.3582,-3.3582,-3.3786,-3.4333,-3.3888,-3.3412,-3.3261,-3.2705,-3.2002,-3.1275,-3.1112,-3.1066,-3.1063,-3.1043,-3.1106,-3.12,-3.0605,-3.0565,-3.1173,-2.9905,-2.9428,-2.996,-2.9327,-2.8298,-2.6894,-2.6894,-2.6826,-2.6691,-2.6691,-2.6691,-2.6691,-2.6691,-2.6691,-2.6691,-2.6691,-2.6691,-2.6691,-2.6691,-2.6691,-2.6691,-2.6691,-2.6691,-2.6691,-2.6691,-2.6623,-2.6437,-2.5947,-2.5625,-2.5355,-2.4983,-2.4811,-2.4814,-2.5575,-2.5795,-2.593,-2.6522,-2.7334,-2.8027,-2.8027,-2.8704,-2.9364,-2.9364,-2.9753,-3.0142,-3.026,-3.0768,-3.119,-3.119,-3.119,-3.1241,-3.136,-3.1376,-3.1376,-3.1376,-3.1376,-3.1326,-3.1207,-3.119,-3.119,-3.119,-3.119,-3.119,-3.119,-3.119,-3.119,-3.119,-3.119,-3.1258,-3.1376,-3.1258,-3.1258,-3.1376,-3.1258,-3.119,-3.119,-3.119,-3.119,-3.119,-3.119,-3.119,-3.119,-3.119,-3.0717,-2.9922,-2.9922,-2.9008,-2.7621,-2.7621,-2.7249,-2.6776,-2.7402,-2.7621,-2.7537,-3.3375,-3.3145,-3.2949,-3.3495,-3.3582,-3.3633,-3.3735,-3.3583,-3.3274,-3.2611,-3.2378,-3.2002,-3.1275,-3.074,-3.0455,-3.0483,-3.044,-3.0658,-3.1242,-3.1146,-3.1089,-3.119,-3.0395,-2.9727,-2.9327,-2.9106,-2.8552,-2.7637,-2.7637,-2.7334,-2.6691,-2.6691,-2.6691,-2.6691,-2.6691,-2.6691,-2.6691,-2.6691,-2.6691,-2.6691,-2.6691,-2.6691,-2.6691,-2.6691,-2.6691,-2.6691,-2.6691,-2.6285,-2.5845,-2.637,-2.5693,-2.4831,-2.6015,-2.5964,-2.5609,-2.6336,-2.6539,-2.6573,-2.6674,-2.774,-2.8822,-2.8822,-2.9871,-3.0886,-3.0886,-3.0497,-3.0294,-3.092,-3.1123,-3.119,-3.119,-3.119,-3.1393,-3.2036,-3.2138,-3.2138,-3.2138,-3.2138,-3.1901,-3.1275,-3.119,-3.119,-3.119,-3.119,-3.119,-3.119,-3.119,-3.119,-3.119,-3.119,-3.1478,-3.2121,-3.1512,-3.1495,-3.2121,-3.1512,-3.119,-3.119,-3.119,-3.119,-3.119,-3.119,-3.119,-3.119,-3.119,-3.0412,-2.9127,-2.9127,-2.823,-2.6843,-2.6843,-2.6793,-2.6708,-2.681,-2.6843,-2.6826,-3.2296,-3.2216,-3.2064,-3.2351,-3.2407,-3.2571,-3.2986,-3.3034,-3.2894,-3.2482,-3.278,-3.2376,-3.0931,-3.0179,-3.0125,-3.0895,-3.0583,-3.049,-3.0797,-3.1084,-3.0949,-3.0225,-3.022,-2.9914,-2.9335,-2.9254,-2.8854,-2.8076,-2.8343,-2.8078,-2.7317,-2.7317,-2.7097,-2.6691,-2.6691,-2.6691,-2.6691,-2.6691,-2.6691,-2.6691,-2.6691,-2.6691,-2.6691,-2.6691,-2.6691,-2.6691,-2.6691,-2.6488,-2.6251,-2.659,-2.6251,-2.5828,-2.6488,-2.6471,-2.6353,-2.7114,-2.7317,-2.7418,-2.7858,-2.8772,-2.9526,-2.9209,-2.9916,-3.0617,-3.0251,-2.992,-3.0013,-3.0988,-3.119,-3.119,-3.119,-3.119,-3.1213,-3.1157,-3.1166,-3.1083,-3.0728,-3.0668,-3.0553,-3.0241,-3.0208,-3.0208,-3.0208,-3.0208,-3.0208,-3.0208,-3.0208,-3.0208,-3.0208,-3.0208,-3.034,-3.0668,-3.0684,-3.0849,-3.1166,-3.1167,-3.1015,-3.0699,-3.0699,-3.0878,-3.119,-3.119,-3.1015,-3.0699,-3.1055,-3.0218,-2.8615,-2.855,-2.7715,-2.6409,-2.6341,-2.6297,-2.6245,-2.598,-2.6052,-2.6297]},{"header":{"parameterUnit":"m.s-1","parameterCategory":1,"la1":30.6,"la2":28.766,"lo1":-90.7593,"lo2":-88.6598,"dy":0.0162,"dx":0.0183,"nx":116,"ny":114,"refTime":"2023-06-30T12:00:00:Z","depth":0,"parameterNumber":3,"parameterNumberName":"V-component_of_WINDS"},"data":[0.0,0.0,0.0,0.0,0.0,0.0,0.0,0.0,0.0,0.0,0.0,0.0,0.0,0.0,0.0,0.0,0.0,0.0,0.0,0.0,0.0,0.0,0.0,0.0,0.0,0.0,0.0,0.0,0.0,0.0,0.0,0.0,0.0,0.0,0.0,0.0,0.0,0.0,0.0,0.0,0.0,0.0,0.0,0.0,0.0,0.0,0.0,0.0,0.0,0.0,0.0,0.0,0.0,0.0,0.0,0.0,0.0,0.0,0.0,0.0,0.0,0.0,0.0,0.0,0.0,0.0,0.0,0.0,0.0,0.0,0.0,0.0,0.0,0.0,0.0,0.0,0.0,0.0,0.0,0.0,0.0,0.0,0.0,0.0,0.0,0.0,0.0,0.0,0.0,0.0,0.0,0.0,0.0,0.0,0.0,0.0,0.0,0.0,0.0,0.0,0.0,0.0,0.0,0.0,0.0,0.0,0.0,0.0,0.0,0.0,0.0,0.0,0.0,0.0,0.0,0.0,0.0,0.0,0.0,0.0,0.0,0.0,0.0,0.0,0.0,0.0,0.0,0.0,0.0,0.0,0.0,0.0,0.0,0.0,0.0,0.0,0.0,0.0,0.0,0.0,0.0,0.0,0.0,0.0,0.0,0.0,0.0,0.0,0.0,0.0,0.0,0.0,0.0,0.0,0.0,0.0,0.0,0.0,0.0,0.0,0.0,0.0,0.0,0.0,0.0,0.0,0.0,0.0,0.0,0.0,0.0,0.0,0.0,0.0,0.0,0.0,0.0,0.0,0.0,0.0,0.0,0.0,0.0,0.0,0.0,0.0,0.0,0.0,0.0,0.0,0.0,0.0,0.0,0.0,0.0,0.0,0.0,0.0,0.0,0.0,0.0,0.0,0.0,0.0,0.0,0.0,0.0,0.0,0.0,0.0,0.0,0.0,0.0,0.0,0.0,0.0,0.0,0.0,0.0,0.0,0.0,0.0,0.0,0.0,0.0,0.0,0.0,0.0,0.0,0.0,0.0,0.0,0.0,0.0,0.0,0.0,0.0,0.0,0.0,0.0,0.0,0.0,0.0,0.0,0.0,0.0,0.0,0.0,0.0,0.0,0.0,0.0,0.0,0.0,0.0,0.0,0.0,0.0,0.0,0.0,0.0,0.0,0.0,0.0,0.0,0.0,0.0,0.0,0.0,0.0,0.0,0.0,0.0,0.0,0.0,0.0,0.0,0.0,0.0,0.0,0.0,0.0,0.0,0.0,0.0,0.0,0.0,0.0,0.0,0.0,0.0,0.0,0.0,0.0,0.0,0.0,0.0,0.0,0.0,0.0,0.0,0.0,0.0,0.0,0.0,0.0,0.0,0.0,0.0,0.0,0.0,0.0,0.0,0.0,0.0,0.0,0.0,0.0,0.0,0.0,0.0,0.0,0.0,0.0,0.0,0.0,0.0,0.0,0.0,0.0,0.0,0.0,0.0,0.0,0.0,0.0,0.0,0.0,0.0,0.0,0.0,0.0,0.0,0.0,0.0,0.0,0.0,0.0,0.0,0.0,0.0,0.0,0.0,0.0,0.0,0.0,0.0,0.0,0.0,0.0,0.0,0.0,0.0,0.0,0.0,0.0,0.0,0.0,0.0,0.0,0.0,0.0,0.0,0.0,0.0,0.0,0.0,0.0,0.0,0.0,0.0,0.0,0.0,0.0,0.0,0.0,0.0,0.0,0.0,0.0,0.0,0.0,0.0,0.0,0.0,0.0,0.0,0.0,0.0,0.0,0.0,0.0,0.0,0.0,0.0,0.0,0.0,0.0,0.0,0.0,0.0,0.0,0.0,0.0,0.0,0.0,0.0,0.0,0.0,0.0,0.0,0.0,0.0,0.0,0.0,0.0,0.0,0.0,0.0,0.0,0.0,0.0,0.0,0.0,0.0,0.0,0.0,0.0,0.0,0.0,0.0,0.0,0.0,0.0,0.0,0.0,0.0,0.0,0.0,0.0,0.0,0.0,0.0,0.0,0.0,0.0,0.0,0.0,0.0,0.0,0.0,0.0,0.0,0.0,0.0,0.0,0.0,0.0,0.0,0.0,0.0,0.0,0.0,0.0,0.0,0.0,0.0,0.0,0.0,0.0,0.0,0.0,0.0,0.0,0.0,0.0,0.0,0.0,0.0,0.0,0.0,0.0,0.0,0.0,0.0,0.0,0.0,0.0,0.0,0.0,0.0,0.0,0.0,0.0,0.0,0.0,0.0,0.0,0.0,0.0,0.0,0.0,0.0,0.0,0.0,0.0,0.0,0.0,0.0,0.0,0.0,0.0,0.0,0.0,0.0,0.0,0.0,0.0,0.0,0.0,0.0,0.0,0.0,0.0,0.0,0.0,0.0,0.0,0.0,0.0,0.0,0.0,0.0,0.0,0.0,0.0,0.0,0.0,0.0,0.0,0.0,0.0,0.0,0.0,0.0,0.0,0.0,0.0,0.0,0.0,0.0,0.0,0.0,0.0,0.0,0.0,0.0,0.0,0.0,0.0,0.0,0.0,0.0,0.0,0.0,0.0,0.0,0.0,0.0,0.0,0.0,0.0,0.0,0.0,0.0,0.0,0.0,0.0,0.0,0.0,0.0,0.0,0.0,0.0,0.0,0.0,0.0,0.0,0.0,0.0,0.0,0.0,0.0,0.0,0.0,0.0,0.0,0.0,0.0,0.0,0.0,0.0,0.0,0.0,0.0,0.0,0.0,0.0,0.0,0.0,0.0,0.0,0.0,0.0,0.0,0.0,0.0,0.0,0.0,0.0,0.0,0.0,0.0,0.0,0.0,0.0,0.0,0.0,0.0,0.0,0.0,0.0,0.0,0.0,0.0,0.0,0.0,0.0,0.0,0.0,0.0,0.0,0.0,0.0,0.0,0.0,0.0,0.0,0.0,0.0,0.0,0.0,0.0,0.0,0.0,0.0,0.0,0.0,0.0,0.0,0.0,0.0,0.0,0.0,0.0,0.0,0.0,0.0,0.0,0.0,0.0,0.0,0.0,0.0,0.0,0.0,0.0,0.0,0.0,0.0,0.0,0.0,0.0,0.0,0.0,0.0,0.0,0.0,0.0,0.0,0.0,0.0,0.0,0.0,0.0,0.0,0.0,0.0,0.0,0.0,0.0,0.0,0.0,0.0,0.0,0.0,0.0,0.0,0.0,0.0,0.0,0.0,0.0,0.0,0.0,0.0,0.0,0.0,0.0,0.0,0.0,0.0,0.0,0.0,0.0,0.0,0.0,0.0,0.0,0.0,0.0,0.0,0.0,0.0,0.0,0.0,0.0,0.0,0.0,0.0,0.0,0.0,0.0,0.0,0.0,0.0,0.0,0.0,0.0,0.0,0.0,0.0,0.0,0.0,0.0,0.0,0.0,0.0,0.0,0.0,0.0,0.0,0.0,0.0,0.0,0.0,0.0,0.0,0.0,0.0,0.0,0.0,0.0,0.0,0.0,0.0,0.0,0.0,0.0,0.0,0.0,0.0,0.0,0.0,0.0,0.0,0.0,0.0,0.0,0.0,0.0,0.0,0.0,0.0,0.0,0.0,0.0,0.0,0.0,0.0,0.0,0.0,0.0,0.0,0.0,0.0,0.0,0.0,0.0,0.0,0.0,0.0,0.0,0.0,0.0,0.0,0.0,0.0,0.0,0.0,0.0,0.0,0.0,0.0,0.0,0.0,0.0,0.0,0.0,0.0,0.0,0.0,0.0,0.0,0.0,0.0,0.0,0.0,0.0,0.0,0.0,0.0,0.0,0.0,0.0,0.0,0.0,0.0,0.0,0.0,0.0,0.0,0.0,0.0,0.0,0.0,0.0,0.0,0.0,0.0,0.0,0.0,0.0,0.0,0.0,0.0,0.0,0.0,0.0,0.0,0.0,0.0,0.0,0.0,0.0,0.0,0.0,0.0,0.0,0.0,0.0,0.0,0.0,0.0,0.0,0.0,0.0,0.0,0.0,0.0,0.0,0.0,0.0,0.0,0.0,0.0,0.0,0.0,0.0,0.0,0.0,0.0,0.0,0.0,0.0,0.0,0.0,0.0,0.0,0.0,0.0,0.0,0.0,0.0,0.0,0.0,0.0,0.0,0.0,0.0,0.0,0.0,0.0,0.0,0.0,0.0,0.0,0.0,0.0,0.0,0.0,0.0,0.0,0.0,0.0,0.0,0.0,0.0,0.0,0.0,0.0,0.0,0.0,0.0,0.0,0.0,0.0,0.0,0.0,0.0,0.0,0.0,0.0,0.0,0.0,0.0,0.0,0.0,0.0,0.0,0.0,0.0,0.0,0.0,0.0,0.0,0.0,0.0,0.0,0.0,0.0,0.0,0.0,0.0,0.0,0.0,0.0,0.0,0.0,0.0,0.0,0.0,0.0,0.0,0.0,0.0,0.0,0.0,0.0,0.0,0.0,0.0,0.0,0.0,0.0,0.0,0.0,0.0,0.0,0.0,0.0,0.0,0.0,0.0,0.0,0.0,0.0,0.0,0.0,0.0,0.0,0.0,0.0,0.0,0.0,0.0,0.0,0.0,0.0,0.0,0.0,0.0,0.0,0.0,0.0,0.0,0.0,0.0,0.0,0.0,0.0,0.0,0.0,0.0,0.0,0.0,0.0,0.0,0.0,0.0,0.0,0.0,0.0,0.0,0.0,0.0,0.0,0.0,0.0,0.0,0.0,0.0,0.0,0.0,0.0,0.0,0.0,0.0,0.0,0.0,0.0,0.0,0.0,0.0,0.0,0.0,0.0,0.0,0.0,0.0,0.0,0.0,0.0,0.0,0.0,0.0,0.0,0.0,0.0,0.0,0.0,0.0,0.0,0.0,0.0,0.0,0.0,0.0,0.0,0.0,0.0,0.0,0.0,0.0,0.0,0.0,0.0,0.0,0.0,0.0,0.0,0.0,0.0,0.0,0.0,0.0,0.0,0.0,0.0,0.0,0.0,0.0,0.0,0.0,0.0,0.0,0.0,0.0,0.0,0.0,0.0,0.0,0.0,0.0,0.0,0.0,0.0,0.0,0.0,0.0,0.0,0.0,0.0,0.0,0.0,0.0,0.0,0.0,0.0,0.0,0.0,0.0,0.0,0.0,0.0,0.0,0.0,0.0,0.0,0.0,0.0,0.0,0.0,0.0,0.0,0.0,0.0,0.0,0.0,0.0,0.0,0.0,0.0,0.0,0.0,0.0,0.0,0.0,0.0,0.0,0.0,0.0,0.0,0.0,0.0,0.0,0.0,0.0,0.0,0.0,0.0,0.0,0.0,0.0,0.0,0.0,0.0,0.0,0.0,0.0,0.0,0.0,0.0,0.0,0.0,0.0,0.0,0.0,0.0,0.0,0.0,0.0,0.0,0.0,0.0,0.0,0.0,0.0,0.0,0.0,0.0,0.0,0.0,0.0,0.0,0.0,0.0,0.0,0.0,0.0,0.0,0.0,0.0,0.0,0.0,0.0,0.0,0.0,0.0,0.0,0.0,0.0,0.0,0.0,0.0,0.0,0.0,0.0,0.0,0.0,0.0,0.0,0.0,0.0,0.0,0.0,0.0,0.0,0.0,0.0,0.0,0.0,0.0,0.0,0.0,0.0,0.0,0.0,0.0,0.0,0.0,0.0,0.0,0.0,0.0,0.0,0.0,0.0,0.0,0.0,0.0,0.0,0.0,0.0,0.0,0.0,0.0,0.0,0.0,0.0,0.0,0.0,0.0,0.0,0.0,0.0,0.0,0.0,0.0,0.0,0.0,0.0,0.0,0.0,0.0,0.0,0.0,0.0,0.0,0.0,0.0,0.0,0.0,0.0,0.0,0.0,0.0,0.0,0.0,0.0,0.0,0.0,0.0,0.0,0.0,0.0,0.0,0.0,0.0,0.0,0.0,0.0,0.0,0.0,0.0,0.0,0.0,0.0,0.0,0.0,0.0,0.0,0.0,0.0,0.0,0.0,0.0,0.0,0.0,0.0,0.0,0.0,0.0,0.0,0.0,0.0,0.0,0.0,0.0,0.0,0.0,0.0,0.0,0.0,0.0,0.0,0.0,0.0,0.0,0.0,0.0,0.0,0.0,0.0,0.0,0.0,0.0,0.0,0.0,0.0,-1.2064,0.0,0.0,0.0,0.0,0.0,0.0,0.0,0.0,0.0,0.0,0.0,0.0,0.0,0.0,0.0,0.0,0.0,0.0,0.0,0.0,0.0,0.0,0.0,0.0,0.0,0.0,0.0,0.0,0.0,0.0,0.0,0.0,0.0,0.0,0.0,0.0,0.0,0.0,0.0,-1.3142,-1.425,-1.5435,-1.6446,-1.6826,-1.6824,0.0,0.0,0.0,0.0,0.0,0.0,0.0,0.0,0.0,0.0,0.0,0.0,0.0,0.0,0.0,0.0,0.0,0.0,0.0,0.0,0.0,0.0,0.0,0.0,0.0,0.0,0.0,0.0,0.0,0.0,0.0,0.0,0.0,0.0,0.0,0.0,0.0,0.0,0.0,0.0,0.0,0.0,0.0,0.0,0.0,0.0,0.0,0.0,0.0,0.0,0.0,0.0,0.0,0.0,0.0,0.0,0.0,0.0,0.0,0.0,0.0,0.0,0.0,0.0,0.0,0.0,0.0,0.0,0.0,0.0,0.0,-1.3589,0.0,0.0,0.0,0.0,0.0,0.0,0.0,0.0,0.0,0.0,0.0,0.0,0.0,0.0,0.0,0.0,0.0,0.0,0.0,0.0,0.0,0.0,0.0,0.0,0.0,0.0,0.0,0.0,0.0,0.0,0.0,0.0,0.0,0.0,0.0,-1.1948,-1.2694,-1.3109,-1.4081,-1.5861,-1.8395,-2.0292,-2.0032,-1.8045,-1.9045,0.0,0.0,0.0,0.0,0.0,0.0,0.0,0.0,0.0,0.0,0.0,0.0,0.0,0.0,0.0,0.0,0.0,0.0,0.0,0.0,0.0,0.0,0.0,0.0,0.0,0.0,0.0,0.0,0.0,0.0,0.0,0.0,0.0,0.0,0.0,0.0,0.0,0.0,0.0,0.0,0.0,0.0,0.0,0.0,0.0,0.0,0.0,0.0,0.0,0.0,0.0,0.0,0.0,0.0,0.0,0.0,0.0,0.0,0.0,0.0,0.0,0.0,0.0,0.0,-1.5013,-1.5076,-1.5583,-1.5452,-1.5041,-1.5778,-1.5617,-1.4734,0.0,0.0,0.0,0.0,0.0,0.0,0.0,0.0,0.0,0.0,0.0,0.0,0.0,0.0,0.0,0.0,0.0,0.0,0.0,0.0,0.0,0.0,0.0,-1.2338,-1.3453,-1.36,-1.3714,0.0,0.0,0.0,0.0,0.0,0.0,-1.2156,-1.2608,-1.3196,-1.3958,-1.553,-1.7594,-2.0246,-2.0887,-2.1228,-2.1302,-2.1467,-2.224,-2.3174,0.0,0.0,0.0,0.0,0.0,0.0,0.0,0.0,0.0,0.0,0.0,0.0,0.0,0.0,0.0,0.0,0.0,0.0,0.0,0.0,0.0,0.0,0.0,0.0,0.0,0.0,0.0,0.0,0.0,0.0,0.0,0.0,0.0,0.0,0.0,0.0,0.0,0.0,0.0,0.0,0.0,-1.3293,-1.3785,0.0,0.0,0.0,0.0,0.0,0.0,0.0,0.0,0.0,0.0,0.0,0.0,0.0,0.0,-1.6372,-1.6111,-1.5945,-1.5992,-1.654,-1.7021,-1.7443,-1.7494,-1.7758,-1.8065,-1.8143,0.0,-1.3562,-1.404,0.0,0.0,0.0,0.0,0.0,0.0,0.0,0.0,0.0,0.0,0.0,0.0,0.0,0.0,0.0,0.0,0.0,0.0,0.0,0.0,0.0,-1.2685,-1.3852,-1.498,-1.5942,-1.6265,-1.5619,0.0,0.0,0.0,0.0,-1.268,-1.275,-1.3092,-1.4279,-1.6273,-1.8516,-2.0272,-2.168,-2.2353,-2.3164,-2.4043,-2.3789,-2.3447,-2.3008,-2.1492,0.0,0.0,0.0,0.0,0.0,0.0,0.0,0.0,0.0,0.0,0.0,0.0,0.0,0.0,0.0,0.0,0.0,0.0,0.0,0.0,0.0,0.0,0.0,0.0,0.0,0.0,0.0,0.0,0.0,0.0,0.0,0.0,0.0,0.0,0.0,0.0,0.0,0.0,0.0,-1.4155,-1.5886,-1.512,-1.7355,-1.8606,0.0,0.0,0.0,0.0,0.0,0.0,0.0,0.0,0.0,-1.9478,-1.9758,-1.9411,-1.8407,-1.8215,-1.7823,-1.7275,-1.7528,-1.763,-1.7705,-1.7705,-1.7662,-1.753,-1.753,-1.6515,-1.5033,-1.5512,-1.5322,-1.4598,0.0,0.0,0.0,0.0,0.0,-1.1846,0.0,0.0,0.0,0.0,0.0,0.0,0.0,0.0,0.0,0.0,0.0,0.0,-1.3068,-1.4283,-1.5487,-1.6816,-1.7764,-1.8008,-1.72,-1.7295,0.0,0.0,0.0,-1.326,-1.3421,-1.447,-1.6387,-1.916,-2.1094,-2.2432,-2.3184,-2.3935,-2.4873,-2.5889,-2.5664,-2.4805,-2.3447,-2.2578,-2.2021,-2.166,0.0,0.0,0.0,0.0,0.0,0.0,0.0,0.0,0.0,0.0,0.0,0.0,0.0,0.0,0.0,0.0,0.0,0.0,0.0,0.0,0.0,0.0,0.0,0.0,0.0,0.0,0.0,0.0,0.0,0.0,0.0,0.0,0.0,0.0,0.0,0.0,0.0,-1.6243,-1.8008,-1.6777,-1.9053,-2.0146,0.0,0.0,0.0,0.0,0.0,0.0,-2.0703,-2.1475,-2.1894,-2.1894,-2.1952,-2.1453,-2.0297,-2.0016,-1.9317,-1.8384,-1.8384,-1.8183,-1.7816,-1.7816,-1.7448,-1.682,-1.682,-1.6653,-1.6461,-1.6496,-1.602,-1.5304,-1.4953,-1.441,-1.3879,-1.405,-1.3843,-1.3487,0.0,0.0,0.0,0.0,0.0,0.0,0.0,0.0,0.0,0.0,0.0,-1.38,-1.4832,-1.5932,-1.7268,-1.8984,-1.8096,-1.7764,-1.8496,-1.666,-1.5116,-1.413,-1.3967,-1.4056,-1.4595,-1.7534,-2.008,-2.2285,-2.2412,-2.333,-2.4951,-2.542,-2.5898,-2.6367,-2.6748,-2.665,-2.6055,-2.3965,-2.3076,-2.292,-2.124,0.0,0.0,0.0,0.0,0.0,0.0,0.0,0.0,0.0,0.0,0.0,0.0,0.0,0.0,0.0,0.0,0.0,0.0,0.0,0.0,0.0,0.0,0.0,0.0,0.0,0.0,0.0,0.0,0.0,0.0,0.0,0.0,0.0,0.0,0.0,0.0,0.0,0.0,-1.9185,-2.1416,0.0,0.0,0.0,0.0,-2.1689,-2.209,-2.2519,-2.2978,-2.3428,-2.3662,-2.3662,-2.3641,-2.3055,-2.1794,-2.1325,-2.0525,-1.9299,-1.9299,-1.9005,-1.8444,-1.8444,-1.7963,-1.7128,-1.7128,-1.6961,-1.6666,-1.588,-1.5633,-1.5551,-1.4343,-1.4234,-1.4721,-1.3684,-1.3561,-1.4008,0.0,0.0,0.0,0.0,0.0,0.0,0.0,0.0,0.0,-1.2437,-1.4069,-1.543,-1.6076,-1.7484,-1.8848,-2.001,-1.9961,-1.9746,-1.9473,-1.8223,-1.6826,-1.53,-1.4405,-1.4509,-1.5771,-1.8658,-2.0898,-2.251,-2.3613,-2.4619,-2.5508,-2.5664,-2.626,-2.7207,-2.707,-2.6787,-2.6299,-2.4951,-2.3906,-2.3037,-2.1582,-2.0644,0.0,0.0,0.0,0.0,0.0,0.0,0.0,0.0,0.0,0.0,0.0,0.0,0.0,0.0,0.0,0.0,0.0,0.0,0.0,0.0,0.0,0.0,0.0,0.0,0.0,0.0,0.0,0.0,0.0,0.0,0.0,0.0,0.0,0.0,0.0,0.0,0.0,-2.1753,-2.3564,0.0,0.0,-2.2451,-2.2656,-2.3076,-2.3506,-2.3935,-2.4365,-2.5068,-2.5459,-2.5459,-2.5657,-2.5274,-2.4175,-2.3045,-2.1934,-2.0809,-1.9809,-1.9158,-1.8771,-1.8771,-1.849,-1.8003,-1.7796,-1.7649,-1.7462,-1.6653,-1.606,-1.5741,-1.5034,-1.4888,-1.4922,-1.467,-1.475,-1.4943,0.0,0.0,0.0,0.0,0.0,0.0,0.0,0.0,0.0,-1.2402,-1.4232,-1.5865,-1.7006,-1.8555,-1.9961,-2.1123,-2.0957,-2.044,-1.9688,-1.8271,-1.6803,-1.5214,-1.4869,-1.5499,-1.7069,-2.0065,-2.2295,-2.3603,-2.4893,-2.5742,-2.6172,-2.6172,-2.6709,-2.7656,-2.751,-2.7217,-2.6787,-2.6191,-2.4863,-2.3086,-2.2227,-2.1621,-2.0956,0.0,0.0,0.0,0.0,0.0,0.0,0.0,0.0,0.0,0.0,0.0,0.0,0.0,0.0,0.0,0.0,0.0,0.0,0.0,0.0,0.0,0.0,0.0,0.0,0.0,0.0,0.0,0.0,0.0,0.0,0.0,0.0,0.0,0.0,0.0,-2.456,-2.4268,-2.5635,-2.6094,-2.4795,-2.4678,-2.4863,-2.5283,-2.5693,-2.6123,-2.6562,-2.6875,-2.7031,-2.7031,-2.7168,-2.6608,-2.5441,-2.4607,-2.3259,-2.1586,-2.0587,-1.9766,-1.8925,-1.8925,-1.8764,-1.847,-1.8163,-1.8023,-1.7963,-1.7181,-1.6567,-1.6086,-1.5698,-1.5424,-1.5277,-1.5471,-1.5538,-1.5558,0.0,0.0,0.0,0.0,0.0,0.0,0.0,0.0,-1.1587,-1.235,-1.3566,-1.5244,-1.7774,-1.9189,-2.0664,-2.2383,-2.0928,-1.9717,-1.9265,-1.6799,-1.4815,-1.3745,-1.5501,-1.7008,-1.8347,-2.1951,-2.4443,-2.5538,-2.6182,-2.6611,-2.689,-2.7012,-2.7246,-2.7685,-2.8096,-2.8047,-2.7666,-2.7676,-2.5986,-2.3281,-2.3223,-2.293,-2.2344,0.0,0.0,0.0,0.0,0.0,0.0,0.0,0.0,0.0,0.0,0.0,0.0,0.0,0.0,0.0,0.0,0.0,0.0,0.0,0.0,0.0,0.0,0.0,0.0,0.0,0.0,0.0,0.0,0.0,0.0,0.0,0.0,0.0,-2.1866,-2.4507,-2.6475,-2.6484,-2.7607,-2.7881,-2.6631,-2.7246,-2.7891,-2.8301,-2.8711,-2.9121,-2.9551,-2.8789,-2.833,-2.831,-2.791,-2.7017,-2.5468,-2.5838,-2.4582,-2.1692,-2.1699,-2.0651,-1.8931,-1.8938,-1.8784,-1.8504,-1.8203,-1.807,-1.8029,-1.7415,-1.6994,-1.6673,-1.6079,-1.5838,-1.5832,-1.5832,-1.5832,-1.5792,0.0,0.0,0.0,0.0,0.0,0.0,0.0,-1.0559,-1.1517,-1.1737,-1.4538,-1.6985,-1.828,-2.0185,-2.1787,-2.2871,-2.1094,-1.9832,-1.9659,-1.6944,-1.4976,-1.4258,-1.5931,-1.736,-1.8317,-2.2245,-2.3749,-2.2776,-2.5531,-2.6203,-2.5071,-2.6439,-2.7246,-2.7666,-2.7783,-2.7773,-2.7685,-2.7988,-2.7285,-2.585,-2.458,-2.3633,-2.2736,0.0,0.0,0.0,0.0,0.0,0.0,0.0,0.0,0.0,0.0,0.0,0.0,0.0,0.0,0.0,0.0,0.0,0.0,0.0,0.0,0.0,0.0,0.0,0.0,0.0,0.0,0.0,0.0,0.0,0.0,0.0,0.0,-2.5333,-2.4717,-2.6662,-2.834,-2.8652,-2.957,-2.9902,-2.9219,-2.9092,-2.9092,-2.9209,-2.9326,-2.9443,-2.956,-2.9346,-2.9072,-2.876,-2.834,-2.7893,-2.7554,-2.6258,-2.5315,-2.482,-2.2702,-2.1314,-2.0786,-1.98,-1.9199,-1.9112,-1.8811,-1.8684,-1.8617,-1.7802,-1.7415,-1.7261,-1.6466,-1.6019,-1.5832,-1.5832,-1.5832,-1.5818,0.0,0.0,0.0,0.0,0.0,0.0,0.0,-1.0045,-1.0945,-1.0793,-1.4342,-1.7064,-1.7608,-1.9868,-2.1523,-2.2021,-2.0177,-1.8778,-1.8204,-1.579,-1.4278,-1.4043,-1.6047,-1.7548,-1.8431,-2.1696,-2.3044,-2.2113,-2.4914,-2.5852,-2.4869,-2.6511,-2.7607,-2.8184,-2.8008,-2.8027,-2.8203,-2.8447,-2.7825,-2.6589,-2.6235,-2.5644,-2.4769,-2.1731,-1.9939,-1.8803,-1.6637,-1.5588,-1.509,-1.4282,0.0,0.0,0.0,0.0,0.0,0.0,0.0,0.0,0.0,0.0,0.0,0.0,0.0,0.0,0.0,0.0,0.0,0.0,0.0,0.0,0.0,0.0,0.0,0.0,-2.6758,-2.8037,-2.792,-2.9111,-3.0098,-3.0351,-3.084,-3.0976,-3.0537,-3.0264,-3.0117,-3.0117,-3.0117,-3.0117,-3.0117,-2.9775,-2.9453,-2.9199,-2.8603,-2.8291,-2.8291,-2.7147,-2.6476,-2.6045,-2.4369,-2.2806,-2.1586,-2.0694,-2.004,0.0,-1.9052,-1.8925,-1.8865,-1.8096,-1.7702,0.0,0.0,0.0,0.0,0.0,-1.5832,-1.5832,0.0,0.0,0.0,0.0,0.0,0.0,0.0,-0.9603,-1.015,-0.9955,-1.3408,-1.5962,-1.6169,-1.8634,-2.0312,-2.0333,-1.8676,-1.7084,-1.5708,-1.4091,-1.3414,-1.3868,-1.6118,-1.7759,-1.86,-2.0941,-2.2225,-2.2215,-2.4222,-2.5272,-2.5335,-2.6825,-2.8048,-2.8896,-2.8261,-2.8329,-2.8645,-2.8707,-2.7572,-2.5999,-2.7685,-2.7835,-2.6731,-2.3501,-2.1784,-2.0925,-1.7852,-1.6127,-1.5204,-1.4836,0.0,0.0,0.0,0.0,0.0,0.0,0.0,0.0,0.0,0.0,0.0,0.0,0.0,0.0,0.0,0.0,0.0,0.0,0.0,0.0,0.0,0.0,0.0,0.0,-2.9023,-3.0156,-3.0986,-3.1426,-3.1611,-3.1465,-3.1484,-3.1348,-3.0928,-3.0889,-3.0889,-3.0889,-3.0889,-3.0889,-3.0889,0.0,0.0,0.0,0.0,-2.8418,-2.8359,-2.831,-2.7618,-2.6381,-2.6155,-2.4701,-2.2145,-2.1813,-2.0923,-1.957,-1.9199,-1.8978,-1.8931,-1.8377,-1.7943,-1.7575,-1.6947,-1.6526,-1.6239,-1.5979,-1.5858,0.0,0.0,0.0,0.0,0.0,0.0,0.0,0.0,-0.9418,-1.0089,-1.0525,-1.3016,-1.4921,-1.5532,-1.7346,-1.8485,-1.8406,-1.7115,-1.5711,-1.4433,-1.3649,-1.3868,-1.5344,-1.7145,-1.8076,-1.8174,-2.1023,-2.1517,-1.9346,-2.2521,-2.4014,-2.3837,-2.5568,-2.73,-2.8787,-2.7229,-2.6903,-2.745,-2.7251,-2.6149,-2.4947,-2.7666,-2.6686,-2.3428,-2.256,-2.1071,-1.9268,-1.7386,-1.6914,-1.6961,-1.6192,-1.6406,-1.6847,-1.6025,-1.5438,0.0,0.0,0.0,0.0,0.0,0.0,0.0,0.0,0.0,0.0,0.0,0.0,0.0,0.0,0.0,0.0,0.0,0.0,0.0,-2.9404,-3.081,-3.1846,-3.2353,-3.249,-3.2168,-3.1133,-3.1309,-3.1348,-3.0928,-3.0889,-3.0889,-3.0889,-3.0889,-3.0889,-3.0889,-3.0732,0.0,-3.0088,-2.959,-2.916,-2.8799,-2.8467,-2.8184,-2.7843,0.0,0.0,-2.5151,-2.2702,-2.1472,-2.1137,-1.9862,-1.9279,-1.9252,-1.8898,-1.8437,-1.7876,-1.7034,-1.6526,-1.6266,-1.6213,-1.6039,-1.5832,0.0,0.0,0.0,0.0,0.0,0.0,0.0,-0.9361,-0.9814,-0.9814,-1.2,-1.3564,-1.3538,-1.5033,-1.5987,-1.5841,-1.49,-1.4041,0.0,-1.3688,-1.4522,-1.5992,-1.7295,-1.813,-1.8464,-2.0032,-2.0111,-1.8704,-2.1354,-2.2615,-2.2569,-2.4368,-2.5865,-2.7086,-2.5892,-2.5697,-2.6205,-2.595,-2.4761,-2.3328,-2.5726,-2.4384,-2.1077,-2.236,-2.1576,-1.9628,-1.7991,-1.7275,-1.7101,-1.6807,-1.6807,-1.6874,-1.658,-1.5985,-1.5369,0.0,0.0,0.0,0.0,0.0,0.0,0.0,0.0,0.0,0.0,0.0,0.0,0.0,0.0,-2.6045,0.0,0.0,-2.9766,-3.125,-3.2051,-3.248,-3.248,-3.248,-3.2168,-3.1309,-3.1396,-3.1348,-3.0928,-3.0889,-3.0889,-3.0889,-3.0889,-3.0889,-3.0889,-3.0674,-3.0439,-3.0205,-2.9785,-2.9365,-2.8926,-2.8711,-2.8506,-2.8291,-2.7302,-2.6528,-2.5739,-2.42,-2.2656,-2.1227,-2.0579,-1.9804,-1.9112,-1.8671,-1.8223,-1.7769,-1.7321,-1.6967,-1.6673,-1.638,-1.6179,-1.6032,0.0,0.0,0.0,0.0,0.0,0.0,0.0,0.0,0.0,-0.9061,-1.0965,-1.2167,-1.1621,-1.2712,-1.3473,-1.3306,-1.2706,-1.2564,0.0,-1.3975,-1.5184,-1.6473,-1.7315,-1.815,-1.8991,-1.8951,-1.8951,-1.9011,-2.0466,-2.1365,-2.1593,-2.3178,-2.4366,-2.5197,-2.4566,-2.4553,-2.4924,-2.4695,-2.3442,-2.1906,-2.3809,-2.2559,-1.9747,-2.2064,-2.1814,-2.0034,-1.8571,-1.7355,-1.6513,-1.6927,-1.6633,-1.6186,-1.6647,-1.6226,-1.569,-1.618,-1.685,0.0,0.0,0.0,0.0,0.0,0.0,0.0,0.0,0.0,-2.5088,-2.667,-2.7734,-2.8809,-3.0195,-3.0967,-3.1719,-3.2744,-3.2842,-3.2676,-3.2334,-3.2148,-3.1875,-3.1445,-3.1396,-3.126,-3.0928,-3.0889,-3.0889,-3.0889,-3.0889,-3.0889,-3.0889,-3.0537,-3.0332,-3.0332,-2.9912,-2.9482,-2.9053,-2.8965,-2.8711,-2.8291,-2.7861,-2.6998,-2.5779,-2.5475,-2.3818,-2.1216,-2.0789,-1.9927,-1.8798,-1.8263,-1.7903,-1.7669,-1.7609,-1.7442,-1.7161,-1.6573,-1.6319,-1.6226,0.0,0.0,0.0,0.0,0.0,0.0,0.0,0.0,0.0,-0.9614,-1.0325,-1.0786,-1.0881,-1.1411,-1.1695,-1.1391,-1.1284,0.0,-1.3434,-1.4402,-1.5671,-1.7361,-1.805,-1.8684,-1.9305,-1.9058,-1.9052,-1.9319,-1.9577,-2.0371,-2.1593,-2.203,-2.3185,-2.4844,-2.3417,-2.3172,-2.3739,-2.3399,-2.2406,-2.1026,-2.3803,-2.2788,-1.9888,-2.0685,-2.0114,-1.8665,-1.815,-1.6967,-1.5665,-1.648,-1.6192,-1.5678,-1.676,-1.6673,-1.6112,-1.5906,0.0,-1.6291,-1.7565,-1.998,-2.2568,-2.4814,-2.4824,-2.5459,0.0,0.0,-3.0293,-3.125,-3.2422,-3.2891,-3.1611,-3.2334,-3.3184,-3.333,-3.3037,-3.2773,-3.2734,-3.207,-3.1435,-3.1016,-3.0957,-3.0947,-3.0898,-3.0889,-3.0889,-3.0889,-3.0889,-3.0889,-3.0889,-3.084,-3.081,-3.081,-3.0361,-2.9922,-2.9502,-2.9111,-2.8711,-2.8291,-2.7861,-2.7666,-2.7428,-2.5632,-2.3974,-2.2379,-1.9931,-1.8642,-1.851,-1.8183,-1.8023,-1.7969,-1.7689,-1.7562,-1.7462,-1.6874,-1.6493,-1.6226,0.0,0.0,0.0,0.0,0.0,0.0,0.0,0.0,0.0,0.0,-0.9376,-0.9563,-0.9629,-1.0122,-1.0428,-1.0296,0.0,0.0,-1.3293,-1.4215,-1.5491,-1.7255,-1.7909,-1.8504,-1.9098,-1.9158,-1.9239,-1.9366,-1.9366,-1.9788,-2.0529,-2.083,-2.1491,-2.2396,-2.1874,-2.1859,-2.2076,-2.1892,-2.1279,-2.0758,-2.1568,-2.106,-1.9818,-1.9472,-1.8686,-1.7649,-1.7181,-1.6319,0.0,-1.5818,-1.5698,-1.5545,-1.6373,-1.6239,-1.5772,-1.5818,-1.6508,0.0,-2.1045,-2.2695,0.0,0.0,-2.8076,-2.918,-3.1621,-3.208,-3.2246,-3.3105,-3.3701,-3.3857,-3.3135,-3.3232,-3.334,0.0,-3.2705,-3.2344,-3.209,-3.1533,-3.0898,-3.0205,-3.0117,-3.0322,-3.084,-3.0889,-3.0889,-3.0889,-3.0889,-3.0889,-3.0889,-3.0889,-3.0889,-3.0889,-3.0703,-3.0391,-2.9941,-2.9512,-2.9082,-2.8652,-2.7988,-2.7539,-2.7285,-2.6454,-2.4747,-2.233,-2.0337,-1.886,-1.7936,-1.7649,-1.7528,-1.7495,-1.7194,-1.7074,-1.7061,-1.6987,-1.678,-1.648,0.0,0.0,0.0,0.0,0.0,0.0,0.0,0.0,0.0,0.0,0.0,0.0,0.0,-0.9185,-0.9506,0.0,0.0,0.0,0.0,-1.3935,-1.5197,-1.672,-1.7595,-1.8283,-1.8791,-1.9092,-1.9285,-1.9366,-1.9366,-1.9472,-1.9686,-2.006,-2.0347,-2.0568,-2.0942,-2.1109,-2.1089,-2.0802,-2.0675,-2.0628,-2.004,-1.97,-1.9459,-1.8577,-1.7635,-1.672,-1.6213,-1.5444,-1.4676,-1.4763,-1.4683,-1.4676,-1.5431,-1.5378,-1.5228,-1.6133,-1.7873,-2.0311,-2.3853,0.0,0.0,-2.8949,-3.0937,-3.2363,-3.293,-3.3476,-3.3975,-3.4355,-3.4434,-3.4326,-3.3965,-3.3535,0.0,-3.2695,-3.2266,-3.1875,-3.1562,-3.0947,-3.0293,-2.9648,-2.9365,-2.9512,-3.0273,-3.0566,-3.0752,-3.0879,-3.0889,-3.0889,-3.0889,-3.0889,-3.0889,-3.0889,-3.0889,-3.0664,-3.0205,-2.9893,-2.9463,-2.8906,-2.8184,-2.7617,-2.7187,-2.6516,-2.4708,-2.2055,-2.0608,-1.8976,-1.7442,-1.7235,-1.7101,-1.7007,-1.6787,-1.6707,-1.6734,-1.6947,-1.684,-1.6547,0.0,0.0,0.0,0.0,0.0,0.0,0.0,0.0,0.0,0.0,0.0,0.0,0.0,0.0,0.0,0.0,0.0,0.0,0.0,-1.3707,-1.4923,-1.5832,-1.7268,-1.819,-1.8497,-1.8784,-1.9078,-1.9366,-1.9366,-1.9372,-1.9392,-1.9967,-2.0234,-2.0274,-2.0848,-2.1109,-2.1089,-2.0802,-2.0675,-2.0628,-2.004,-1.9459,-1.8851,-1.7949,-1.6887,-1.5832,-1.5531,-1.4302,-1.295,-1.3173,-1.2886,-1.2599,-1.3781,-1.4142,0.0,-1.7128,-2.0017,-2.2875,0.0,0.0,-2.875,-3.0908,-3.2725,-3.4219,-3.5098,-3.5947,-3.6328,-3.5517,-3.5351,-3.4961,-3.3682,-3.3096,-3.2676,-3.2256,-3.1816,-3.1533,-3.1514,-3.042,-2.96,-2.957,-2.8838,-2.8506,0.0,-2.9736,-3.04,-3.0859,-3.0889,-3.0889,-3.0889,-3.0889,-3.0889,-3.0889,-3.0889,-3.0664,-3.0205,-3.0185,-2.9756,-2.8916,-2.8476,-2.8057,-2.7617,-2.5386,-2.3446,-2.1667,-2.0254,-1.875,-1.7161,-1.7154,-1.6981,-1.6714,-1.6707,-1.6707,-1.6707,-1.6714,-1.6533,-1.6246,0.0,0.0,0.0,0.0,0.0,0.0,0.0,0.0,0.0,0.0,0.0,0.0,0.0,0.0,0.0,0.0,0.0,0.0,0.0,-1.2933,-1.4041,-1.4923,-1.6186,-1.7101,-1.7595,-1.809,-1.849,-1.8784,-1.8784,-1.8885,-1.9085,-1.9472,-1.976,-1.996,-2.0354,-2.0528,-2.0521,-2.0421,-2.0274,-2.0047,-1.9459,-1.8985,-1.8497,-1.7201,-1.5985,-1.4843,0.0,-1.3333,-1.2775,-1.2418,-1.2311,-1.2405,-1.3006,-1.3877,-1.4961,-1.6803,-1.9692,-2.2707,-2.4518,0.0,-3.0026,-3.3213,-3.4736,-3.5664,-3.6816,-3.6641,-3.6074,-3.5508,-3.4023,-3.2598,-3.1875,-3.0684,-2.9941,-3.0381,-3.0322,-3.043,-3.1025,-3.0459,-2.9668,-2.8818,-2.8711,0.0,0.0,0.0,0.0,-3.0371,-3.043,-3.0566,-3.0869,-3.0889,-3.0889,-3.0889,-3.0889,-3.081,-3.0664,-3.0078,-2.9639,-2.9336,-2.835,-2.7803,-2.7637,-2.6343,-2.4831,-2.3335,-2.267,-2.1344,-1.9606,-1.8603,-1.7944,-1.7552,-1.6483,-1.6126,-1.6126,-1.6126,-1.6066,-1.5992,0.0,0.0,0.0,0.0,0.0,0.0,0.0,0.0,0.0,0.0,0.0,0.0,0.0,0.0,0.0,0.0,0.0,0.0,0.0,0.0,-1.2986,-1.3547,-1.4703,-1.5558,-1.6046,-1.654,-1.6981,-1.7382,-1.7488,-1.7742,-1.8136,-1.8544,-1.8891,-1.9185,-1.9479,-1.9606,-1.9599,-1.9486,-1.9212,-1.8811,-1.8323,-1.7702,-1.6961,-1.5899,-1.4756,0.0,-1.2625,-1.2211,-1.2044,-1.1632,-1.1663,-1.2058,-1.2465,-1.4452,-1.6826,-1.7963,-2.1009,-2.4593,-2.6694,-2.926,-3.2055,-3.513,-3.5732,-3.5879,-3.6979,-3.5681,-3.4251,-3.406,-3.2187,-3.042,-2.9844,-2.831,-2.7519,-2.8701,-2.876,-2.9072,-3.0254,-3.0029,-2.9492,-2.8828,-2.8721,0.0,0.0,0.0,0.0,-3.0117,-3.0351,-3.0576,-3.0869,-3.0889,-3.0889,-3.0889,-3.0889,-3.0889,-3.0889,-3.0322,-2.9883,-2.956,-2.8428,-2.7734,-2.7412,-2.6865,-2.5695,-2.4043,-2.38,-2.258,-2.0794,-1.9794,-1.9055,-1.8527,-1.7471,-1.6842,-1.648,-1.648,-1.6204,-1.5852,0.0,0.0,0.0,0.0,0.0,0.0,0.0,0.0,0.0,0.0,0.0,0.0,0.0,0.0,0.0,0.0,0.0,0.0,0.0,0.0,0.0,-1.1804,-1.2939,-1.3707,-1.3988,-1.4295,-1.473,-1.5304,-1.5585,-1.6019,-1.6607,-1.7168,-1.7589,-1.7903,-1.8183,-1.831,-1.829,-1.7989,-1.7535,-1.6987,-1.6693,-1.5732,-1.4442,-1.4135,-1.3293,-1.2204,-1.163,-1.1236,-1.0955,0.0,0.0,0.0,0.0,-1.5883,-1.9895,-2.0509,-2.4062,-2.8301,-3.084,-3.29,-3.4609,-3.6171,-3.5661,-3.4802,-3.5576,-3.3404,-3.135,-3.1358,-2.9961,-2.8457,0.0,0.0,-2.5566,-2.7285,-2.7295,-2.7676,-2.9394,-2.9287,-2.915,0.0,0.0,0.0,0.0,0.0,0.0,-3.0107,0.0,-3.084,-3.0889,-3.0889,-3.0889,-3.0889,-3.0889,-3.0889,-3.0889,-3.0869,-3.041,-2.9531,-2.8721,-2.7891,-2.708,-2.7031,-2.5828,-2.3845,-2.3809,-2.2654,-2.0787,-2.077,-2.0251,-1.9613,-1.9497,-1.8772,-1.7777,-1.7692,-1.6943,-1.6015,0.0,0.0,0.0,0.0,0.0,0.0,0.0,0.0,0.0,0.0,0.0,0.0,0.0,0.0,0.0,0.0,0.0,0.0,0.0,0.0,0.0,0.0,0.0,0.0,0.0,0.0,0.0,-1.4088,-1.4162,-1.4502,-1.5077,-1.5231,-1.5464,-1.5752,-1.5825,-1.5865,-1.5858,-1.5778,-1.5531,-1.5164,-1.487,-1.4396,-1.3808,-1.3287,-1.2625,-1.1931,-1.1557,-1.1236,0.0,0.0,0.0,0.0,0.0,-1.7064,-1.9279,-2.1607,-2.5344,-2.924,-3.1477,-3.4011,-3.5976,-3.5563,-3.4623,-3.3539,-3.3028,-3.1174,-2.9541,-2.9582,-2.7695,-2.5693,0.0,0.0,0.0,-2.5996,-2.7207,0.0,-3.0312,-3.0459,0.0,0.0,0.0,-2.9502,-2.8975,-2.9394,0.0,0.0,-3.0019,-3.0195,-3.0859,-3.0889,-3.0889,-3.0889,-3.0889,-3.0889,-3.0889,-3.0547,-2.9941,-2.9082,-2.8867,-2.8476,-2.7949,-2.7305,-2.6681,-2.6126,-2.5494,-2.4716,-2.389,-2.2627,-2.1831,-2.1278,-1.997,-1.9314,-1.8948,-1.8048,-1.8041,-1.8303,0.0,0.0,0.0,0.0,0.0,0.0,0.0,0.0,0.0,0.0,0.0,0.0,0.0,0.0,0.0,0.0,0.0,0.0,0.0,0.0,0.0,0.0,0.0,0.0,0.0,0.0,0.0,0.0,-1.2225,-1.2585,-1.3166,-1.3427,-1.3707,-1.4079,-1.4135,-1.4195,-1.4195,-1.4195,-1.3941,0.0,0.0,-1.2973,-1.2445,-1.2104,-1.176,-1.1269,-1.1109,0.0,0.0,0.0,0.0,-1.5087,-1.6574,-1.8477,-2.0708,-2.3803,0.0,-2.936,-3.2141,-3.363,-3.4306,-3.3502,-3.191,-3.0513,-2.9752,-2.7904,-2.6311,-2.5975,-2.4774,0.0,0.0,0.0,0.0,0.0,0.0,0.0,-2.9453,-3.0078,-3.0273,0.0,-3.0351,0.0,-2.9834,-3.0029,-3.0283,0.0,-3.0283,-3.0371,-3.0859,-3.0889,-3.0889,-3.0889,-3.0889,-3.0889,-3.0889,-3.043,-2.9863,-2.9199,-2.9014,-2.8603,-2.7998,-2.7519,-2.71,-2.6709,0.0,-2.5654,-2.5029,-2.3824,-2.313,-2.2728,-2.1563,-2.0404,-1.9497,-1.9314,-1.9039,-1.8588,0.0,0.0,0.0,0.0,0.0,0.0,0.0,0.0,0.0,0.0,0.0,0.0,0.0,0.0,0.0,0.0,0.0,0.0,0.0,0.0,0.0,0.0,0.0,0.0,0.0,0.0,0.0,0.0,0.0,0.0,-1.1263,-1.177,-1.2171,-1.2546,-1.2739,-1.2859,-1.2859,-1.2859,-1.2532,-1.2011,-1.2011,-1.1557,-1.0875,0.0,0.0,0.0,0.0,0.0,0.0,0.0,-1.5511,-1.6333,-1.7549,-1.9955,-2.2855,-2.6048,-2.7466,-2.8955,-3.2349,-3.2647,-3.163,-3.0745,-2.8782,-2.6863,-2.6422,-2.4507,-2.2659,-2.2177,0.0,-2.1269,-2.0391,0.0,-2.0625,-2.2783,0.0,-2.541,-2.8008,-2.9062,-2.9873,-3.0703,-3.085,-3.0889,-3.0889,-3.0527,-3.0459,-3.0859,-3.0889,-3.0889,-3.0889,-3.0889,-3.0889,-3.0889,-3.0889,-3.0889,-3.0889,-3.0488,-3.0049,-2.957,-2.9189,-2.8564,-2.7744,-2.7627,-2.7178,-2.6465,0.0,0.0,-2.5117,-2.4619,-2.4199,-2.3828,-2.333,-2.1676,-1.9852,-2.0935,-1.9943,-1.8319,0.0,0.0,0.0,0.0,0.0,0.0,0.0,0.0,0.0,0.0,0.0,0.0,0.0,0.0,0.0,0.0,0.0,0.0,0.0,0.0,0.0,0.0,0.0,0.0,0.0,0.0,0.0,0.0,0.0,0.0,-1.0347,-1.0448,-1.0655,-1.1008,-1.1061,-1.1022,-1.1022,-1.1022,-1.0815,-1.0494,-1.0494,-1.0401,-1.0267,0.0,0.0,0.0,0.0,0.0,0.0,0.0,-1.6366,-1.7909,-1.9325,-2.0604,-2.2344,-2.5757,-2.7176,-2.847,-3.1301,-3.2002,-3.1332,-2.9159,-2.7279,-2.5756,-2.4771,-2.2622,0.0,0.0,0.0,-1.9473,-1.8613,-1.9248,0.0,-2.2783,0.0,0.0,0.0,0.0,-2.9756,0.0,0.0,0.0,0.0,0.0,0.0,0.0,0.0,0.0,-3.0889,-3.0889,-3.0889,-3.0889,-3.0889,-3.0889,-3.0889,-3.081,-3.0371,-2.957,-2.9492,-2.9014,-2.8164,-2.7451,-2.7051,-2.6865,0.0,0.0,-2.5557,-2.4746,-2.4375,-2.4228,-2.3447,-2.2217,-2.1025,-2.1203,-2.1025,-2.0576,0.0,0.0,0.0,0.0,0.0,0.0,0.0,0.0,0.0,0.0,0.0,0.0,0.0,0.0,0.0,0.0,0.0,0.0,0.0,0.0,0.0,0.0,0.0,0.0,0.0,0.0,0.0,0.0,0.0,0.0,0.0,0.0,0.0,0.0,0.0,0.0,0.0,-1.0167,-1.0107,0.0,0.0,0.0,0.0,0.0,0.0,0.0,0.0,0.0,0.0,0.0,-1.5758,-1.7716,-1.9806,-2.1176,-2.2617,-2.584,-2.6405,-2.6704,-2.9583,-2.9686,-2.8482,-2.6614,-2.5541,-2.4446,-2.2253,0.0,0.0,0.0,0.0,-1.8428,-1.7803,0.0,0.0,0.0,0.0,0.0,0.0,0.0,0.0,0.0,0.0,0.0,0.0,0.0,0.0,0.0,0.0,0.0,-3.0889,-3.0889,-3.0889,-3.0889,-3.0889,-3.0889,-3.0889,-3.0889,-3.0449,-2.957,-2.8756,-2.7967,-2.7149,-2.5779,-2.4966,-2.4742,-2.4877,0.0,-2.466,-2.4726,-2.4756,-2.4668,-2.3809,-2.2357,-2.0754,-2.1186,-2.0935,-2.0395,0.0,0.0,0.0,0.0,0.0,0.0,0.0,0.0,0.0,0.0,0.0,0.0,0.0,0.0,0.0,0.0,0.0,0.0,0.0,0.0,0.0,0.0,0.0,0.0,0.0,0.0,0.0,0.0,0.0,0.0,0.0,0.0,0.0,0.0,0.0,0.0,0.0,0.0,0.0,0.0,0.0,0.0,0.0,0.0,0.0,0.0,0.0,0.0,0.0,0.0,-1.4609,-1.646,-1.8811,-2.0695,-2.2464,-2.5033,-2.5123,-2.4992,-2.7388,-2.7186,-2.5959,-2.4556,-2.3839,-2.2921,-2.0509,-1.9878,0.0,0.0,-1.7326,-1.749,-1.7158,0.0,0.0,0.0,0.0,0.0,0.0,0.0,0.0,0.0,0.0,0.0,0.0,0.0,0.0,0.0,0.0,0.0,0.0,-3.0889,-3.0889,-3.0889,-3.0518,-3.0518,-3.0889,-3.0179,-2.9507,-2.9103,-2.7505,-2.6282,-2.559,-2.4006,-2.3303,-2.3148,-2.3918,0.0,0.0,-2.4852,-2.5068,-2.498,-2.3847,-2.2089,-2.0162,-2.0715,-2.0124,-1.9314,0.0,0.0,0.0,0.0,0.0,0.0,0.0,0.0,0.0,0.0,0.0,0.0,0.0,0.0,0.0,0.0,0.0,0.0,0.0,0.0,0.0,0.0,0.0,0.0,0.0,0.0,0.0,0.0,0.0,0.0,0.0,0.0,0.0,0.0,0.0,0.0,0.0,0.0,0.0,0.0,0.0,0.0,0.0,0.0,0.0,0.0,0.0,0.0,0.0,0.0,0.0,-1.4155,-1.5464,-1.8163,-2.1081,-2.1822,0.0,0.0,-2.4804,-2.5509,-2.5705,-2.4502,-2.2842,-2.1266,-2.1093,0.0,0.0,-1.7316,-1.6763,-1.6292,-1.6253,-1.6582,-1.7461,0.0,0.0,-2.1377,0.0,0.0,0.0,0.0,0.0,0.0,0.0,0.0,0.0,0.0,0.0,0.0,0.0,-3.0889,-3.0889,-3.0889,-2.9403,-2.9403,-3.0889,-2.7712,-2.6603,-2.7473,-2.5611,-2.4549,-2.4036,-2.3459,-2.3742,-2.4629,0.0,0.0,0.0,-2.5254,-2.5068,-2.4886,-2.2899,-2.1353,-2.0069,-1.9804,-1.8864,-1.8234,0.0,0.0,0.0,0.0,0.0,0.0,0.0,0.0,0.0,0.0,0.0,0.0,0.0,0.0,0.0,0.0,0.0,0.0,0.0,0.0,0.0,0.0,0.0,0.0,0.0,0.0,0.0,0.0,0.0,0.0,0.0,0.0,0.0,0.0,0.0,0.0,0.0,0.0,0.0,0.0,0.0,0.0,0.0,0.0,0.0,0.0,0.0,0.0,0.0,0.0,0.0,0.0,-1.2973,-1.471,0.0,0.0,-2.0842,-2.2111,-2.3474,-2.4362,-2.4656,-2.3647,-2.2614,-2.1543,-2.0775,0.0,0.0,-1.7417,-1.668,-1.6125,-1.6125,-1.6436,-1.7129,-1.832,0.0,0.0,0.0,0.0,0.0,0.0,0.0,0.0,0.0,0.0,0.0,0.0,0.0,0.0,0.0,-2.9903,-2.9403,-2.9403,-2.7811,-2.7323,-2.794,-2.6347,-2.5738,-2.5831,-2.3956,-2.2926,-2.2469,-2.1145,-2.0818,-2.1315,0.0,0.0,0.0,-2.2898,-2.3546,-2.4096,-2.2154,-2.1159,-2.0603,-1.9194,-1.8809,-1.905,0.0,0.0,0.0,0.0,0.0,0.0,0.0,0.0,0.0,0.0,0.0,0.0,0.0,0.0,0.0,0.0,0.0,0.0,0.0,0.0,0.0,0.0,0.0,0.0,0.0,0.0,0.0,0.0,0.0,0.0,0.0,0.0,0.0,0.0,0.0,0.0,0.0,0.0,0.0,0.0,0.0,0.0,0.0,0.0,0.0,0.0,0.0,0.0,0.0,0.0,0.0,0.0,0.0,0.0,0.0,0.0,-1.8677,-2.0201,-2.1837,-2.2966,-2.35,-2.2786,-2.188,-2.08,0.0,0.0,-1.677,-1.648,-1.5965,-1.5559,-1.5559,-1.6108,-1.6777,-1.751,0.0,-1.7988,0.0,0.0,0.0,0.0,0.0,0.0,0.0,0.0,0.0,0.0,0.0,0.0,0.0,-2.8545,-2.7931,-2.8417,-2.6357,-2.5448,-2.5819,-2.4627,-2.4047,-2.4033,-2.2203,-2.1249,-2.0916,-1.959,-1.9398,-1.996,0.0,0.0,0.0,-2.1554,-2.2257,-2.2933,-2.1155,-2.052,-2.0333,-1.8312,-1.8354,-1.9233,0.0,0.0,0.0,0.0,0.0,0.0,0.0,0.0,0.0,0.0,0.0,0.0,0.0,0.0,0.0,0.0,0.0,0.0,0.0,0.0,0.0,0.0,0.0,0.0,0.0,0.0,0.0,-0.8804,-0.9044,0.0,0.0,0.0,0.0,0.0,0.0,0.0,0.0,0.0,0.0,0.0,0.0,0.0,0.0,0.0,0.0,0.0,0.0,0.0,0.0,0.0,0.0,0.0,0.0,0.0,0.0,0.0,-1.664,-1.9072,-1.9673,-2.1109,-2.2365,-2.2071,-2.0234,-1.8517,0.0,0.0,-1.4043,-1.4112,-1.4204,-1.4213,-1.4213,-1.5283,-1.6221,-1.667,-1.7451,0.0,0.0,0.0,0.0,0.0,0.0,0.0,0.0,0.0,0.0,0.0,0.0,0.0,0.0,0.0,-2.6712,-2.8298,-2.5269,-2.4254,-2.5575,-2.2038,-2.09,-2.218,-2.0294,-1.9488,-1.9366,-1.9366,-2.0478,0.0,0.0,0.0,0.0,-2.2257,-2.1752,-2.1508,-1.9868,-1.9242,-1.8966,-1.7071,-1.7126,-1.8213,0.0,0.0,0.0,0.0,0.0,0.0,0.0,0.0,0.0,0.0,0.0,0.0,0.0,0.0,0.0,0.0,0.0,0.0,0.0,0.0,0.0,0.0,0.0,0.0,0.0,0.0,-0.8905,-0.905,-0.9143,-0.9345,-0.9539,0.0,0.0,0.0,0.0,0.0,0.0,0.0,0.0,0.0,0.0,0.0,0.0,0.0,0.0,0.0,0.0,0.0,0.0,0.0,0.0,0.0,0.0,0.0,0.0,-1.183,-1.3774,0.0,-1.6814,-1.7782,-1.8444,-1.8156,-1.7221,-1.6347,-1.6089,-1.483,-1.369,-1.3737,-1.4013,-1.4213,-1.4213,-1.5213,-1.6396,-1.7441,-1.8076,0.0,0.0,0.0,0.0,0.0,0.0,0.0,0.0,0.0,0.0,0.0,0.0,0.0,0.0,0.0,-2.5367,-2.5146,-2.2864,-2.1856,-2.2234,-2.065,-2.0118,-2.0593,-1.9726,-1.9366,-1.9366,-1.9366,0.0,0.0,0.0,0.0,0.0,-1.9194,-1.942,-2.012,-1.8704,-1.8533,-1.8996,-1.72,-1.7211,-1.8125,0.0,0.0,0.0,0.0,0.0,0.0,0.0,0.0,0.0,0.0,0.0,0.0,0.0,0.0,0.0,0.0,0.0,0.0,0.0,0.0,0.0,0.0,0.0,0.0,0.0,-0.8804,-0.8945,-0.9183,-0.9352,-0.9559,-0.984,-0.9659,-0.9512,0.0,0.0,0.0,0.0,0.0,0.0,0.0,0.0,0.0,-0.8824,0.0,0.0,0.0,0.0,0.0,0.0,0.0,0.0,0.0,0.0,0.0,0.0,0.0,-1.1737,-1.3227,0.0,-1.5511,-1.6032,-1.5959,-1.5337,0.0,0.0,-1.3511,-1.2745,-1.2993,-1.3434,-1.3846,-1.4145,-1.5091,-1.6191,-1.7344,-1.7754,0.0,0.0,0.0,0.0,0.0,0.0,0.0,0.0,0.0,0.0,0.0,0.0,0.0,0.0,0.0,-2.3685,-2.2349,-2.1321,-2.0568,-2.0347,-1.998,-1.9746,-1.9633,-1.9452,-1.9366,-1.9366,-1.9252,0.0,0.0,0.0,0.0,0.0,-1.7948,-1.8094,-1.8708,-1.7891,-1.7977,-1.8468,-1.715,-1.7654,-1.8858,0.0,0.0,0.0,0.0,0.0,0.0,0.0,0.0,0.0,0.0,0.0,0.0,0.0,0.0,0.0,0.0,0.0,0.0,0.0,0.0,0.0,0.0,0.0,0.0,0.0,-0.8804,-0.8945,-0.9183,-0.9559,-0.9866,-1.0147,-1.0167,-1.0013,-0.9699,-0.9406,-0.9098,-0.8804,-0.8804,-0.8804,-0.8804,-0.8804,-0.8804,0.0,0.0,0.0,0.0,0.0,0.0,0.0,0.0,0.0,0.0,0.0,0.0,0.0,0.0,0.0,0.0,0.0,-1.4008,0.0,0.0,0.0,0.0,0.0,-1.2164,0.0,-1.2028,-1.2609,-1.326,-1.4096,-1.493,-1.5771,-1.6758,-1.6943,0.0,0.0,0.0,0.0,0.0,0.0,0.0,0.0,0.0,0.0,0.0,0.0,0.0,0.0,0.0,0.0,-2.0402,-2.0577,-2.0354,-1.9806,-1.978,-1.9633,-1.9366,-1.9366,-1.9366,-1.9359,-1.9058,0.0,0.0,0.0,0.0,0.0,-1.8101,-1.7582,-1.7582,-1.7582,-1.7569,-1.7482,-1.6914,-1.8142,-1.9862,0.0,0.0,0.0,0.0,0.0,0.0,0.0,0.0,0.0,0.0,0.0,0.0,0.0,0.0,0.0,0.0,0.0,0.0,0.0,0.0,0.0,0.0,0.0,0.0,0.0,-0.8804,-0.8945,-0.9183,-0.976,-1.0167,-1.0461,-1.0681,-1.0514,-1.0,-0.9713,-0.9292,-0.8804,-0.8804,-0.8804,-0.8804,-0.8804,-0.8804,0.0,0.0,0.0,0.0,-0.8804,-0.8991,0.0,0.0,0.0,0.0,0.0,0.0,0.0,0.0,-1.0555,-1.0701,-1.0895,0.0,-1.1572,-1.1122,-1.1156,-1.1209,0.0,-1.0975,-1.1265,-1.1762,-1.2506,-1.342,-1.4935,-1.5624,-1.6523,-1.8389,-1.8955,0.0,0.0,0.0,0.0,0.0,0.0,0.0,0.0,0.0,0.0,0.0,0.0,0.0,0.0,0.0,0.0,-2.1263,-2.0419,-1.994,-1.98,-1.9579,-1.9432,-1.9366,-1.9366,-1.9366,-1.9359,-1.9058,0.0,0.0,0.0,0.0,-1.8338,-1.7781,-1.7582,-1.7582,-1.7582,-1.7442,-1.7208,-1.684,-1.6949,-1.7272,0.0,0.0,0.0,0.0,0.0,0.0,0.0,0.0,0.0,0.0,0.0,0.0,0.0,0.0,0.0,0.0,0.0,0.0,0.0,0.0,0.0,0.0,0.0,0.0,-0.8804,-0.8804,-0.9011,-0.9446,-0.976,-1.0207,-1.0762,-1.0922,-1.0681,-1.0094,-0.9532,-0.9105,-0.8804,-0.8804,-0.8804,-0.8804,-0.8804,0.0,0.0,0.0,0.0,0.0,-0.8804,-0.8911,0.0,-0.9143,-0.9396,-0.9713,0.0,0.0,0.0,0.0,-1.0053,-1.0094,-0.9793,-1.0221,-1.0648,-1.0262,-1.0389,-1.0555,-1.0528,-1.0555,-1.0828,-1.1655,0.0,0.0,0.0,0.0,0.0,0.0,0.0,0.0,0.0,0.0,0.0,0.0,0.0,0.0,0.0,0.0,0.0,0.0,0.0,0.0,0.0,0.0,0.0,0.0,-1.9836,-1.9466,-1.9599,-1.9446,-1.9366,-1.9366,-1.9366,-1.9366,-1.9352,-1.8918,0.0,0.0,0.0,0.0,-1.7822,-1.7649,-1.7582,-1.7582,-1.7582,-1.7408,-1.7114,-1.6814,-1.6908,-1.7084,0.0,0.0,0.0,0.0,0.0,0.0,0.0,0.0,0.0,0.0,0.0,0.0,0.0,0.0,0.0,0.0,0.0,0.0,0.0,0.0,0.0,0.0,0.0,-0.8718,-0.8871,-0.8831,-0.9072,-0.9619,-0.9793,-1.0241,-1.0929,-1.1156,-1.0875,-1.0147,-0.9265,-0.8844,-0.8804,-0.8804,-0.8804,-0.8804,-0.8804,0.0,0.0,0.0,0.0,0.0,0.0,0.0,0.0,-0.9037,-0.915,-0.9183,-0.9183,0.0,0.0,0.0,0.0,0.0,-0.9379,-1.0134,-1.0889,-1.0461,-1.0461,-1.0678,-1.0815,0.0,0.0,0.0,0.0,0.0,0.0,0.0,0.0,0.0,0.0,0.0,0.0,0.0,0.0,0.0,0.0,0.0,0.0,0.0,0.0,0.0,0.0,0.0,0.0,0.0,0.0,0.0,-1.9011,-1.8978,-1.9232,-1.9279,-1.9279,-1.9239,-1.9325,-1.9319,-1.9219,-1.8718,0.0,0.0,0.0,0.0,-1.7582,-1.7582,-1.7582,-1.7582,-1.7582,-1.7408,-1.7114,-1.6814,-1.7197,-1.7647,0.0,0.0,0.0,0.0,0.0,0.0,0.0,0.0,0.0,0.0,0.0,0.0,0.0,0.0,0.0,0.0,0.0,0.0,0.0,0.0,0.0,0.0,-0.745,-0.8261,-0.911,-0.8931,-0.8971,-0.925,-1.0301,-1.0735,-1.0719,-1.1968,-1.1834,-1.0454,-0.9566,-0.9038,-0.8804,-0.8804,-0.8804,-0.8804,-0.8804,0.0,0.0,0.0,0.0,0.0,0.0,0.0,0.0,-0.8858,-0.9038,-0.9183,-0.9183,0.0,0.0,0.0,0.0,0.0,-0.9626,-1.0294,-1.0742,-0.9699,-1.0007,-1.0571,-1.0301,-1.0374,0.0,0.0,0.0,0.0,0.0,0.0,0.0,0.0,0.0,0.0,0.0,0.0,0.0,0.0,0.0,0.0,0.0,0.0,0.0,0.0,0.0,0.0,0.0,0.0,0.0,0.0,0.0,-1.8577,-1.8624,-1.8865,-1.8865,-1.8631,-1.9132,-1.9105,-1.8624,-1.8531,-1.8357,0.0,0.0,-1.7582,-1.7582,-1.7582,-1.7582,-1.7582,-1.7582,-1.7408,-1.7114,-1.6814,-1.6619,-1.6517,0.0,0.0,0.0,0.0,0.0,0.0,0.0,0.0,0.0,0.0,0.0,0.0,0.0,0.0,0.0,0.0,0.0,0.0,0.0,0.0,0.0,-0.7182,-0.7889,-0.8555,-0.9176,-0.9265,-0.9499,-0.9953,-1.0648,-1.1089,-1.1344,-1.1538,-1.1122,-1.0281,-0.9399,-0.8931,-0.8804,-0.8804,-0.8804,-0.8804,0.0,0.0,0.0,0.0,0.0,0.0,0.0,0.0,0.0,0.0,-0.8898,-0.9005,-0.9005,0.0,0.0,0.0,0.0,0.0,-0.9212,-0.974,-1.0194,-0.9813,-1.0374,-1.1035,-1.1062,-1.1042,-1.1283,0.0,0.0,0.0,0.0,0.0,0.0,0.0,0.0,0.0,0.0,0.0,0.0,0.0,0.0,0.0,0.0,0.0,0.0,0.0,0.0,0.0,0.0,0.0,0.0,0.0,0.0,-1.825,-1.825,-1.8384,-1.8464,-1.8497,-1.8764,-1.8751,-1.8484,-1.8323,-1.8176,-1.8029,0.0,-1.7495,-1.7361,-1.7515,-1.7395,-1.7128,-1.7281,-1.7074,-1.664,-1.6339,-1.6146,-1.6108,0.0,0.0,0.0,0.0,0.0,0.0,0.0,0.0,0.0,0.0,0.0,0.0,0.0,0.0,0.0,0.0,0.0,0.0,0.0,0.0,-0.6912,-0.767,-0.8262,-0.881,-0.9283,-0.9566,-0.9973,-1.0624,-1.0915,-1.1323,-1.175,-1.0868,-1.0301,-0.998,-0.9239,-0.8871,-0.8804,-0.8804,-0.8804,-0.8804,0.0,0.0,0.0,0.0,0.0,0.0,0.0,0.0,0.0,0.0,0.0,0.0,0.0,0.0,0.0,-0.8804,-0.8804,-0.8824,-0.8891,-0.9285,-0.974,-0.996,-1.0621,-1.1356,-1.1857,-1.179,-1.1817,0.0,0.0,0.0,0.0,0.0,0.0,0.0,0.0,0.0,0.0,0.0,0.0,0.0,0.0,0.0,0.0,0.0,0.0,0.0,0.0,0.0,0.0,0.0,0.0,0.0,0.0,0.0,-1.7943,-1.7943,-1.805,-1.8277,-1.8424,-1.8417,-1.827,-1.8116,-1.8009,-1.7923,-1.7615,-1.7395,-1.7255,-1.7341,-1.7154,-1.682,-1.6981,-1.6727,-1.6246,-1.6019,-1.6116,-1.649,0.0,0.0,0.0,0.0,0.0,0.0,0.0,0.0,0.0,0.0,0.0,0.0,0.0,0.0,0.0,0.0,0.0,0.0,0.0,0.0,-0.6912,-0.767,-0.7723,-0.8349,-0.9639,-0.9673,-0.9973,-1.0624,-1.1122,-1.1416,-1.1436,-1.0561,-0.9993,-0.9699,-0.9359,-0.9058,-0.8804,-0.8804,-0.8804,-0.8804,-0.8804,0.0,0.0,0.0,0.0,0.0,0.0,0.0,0.0,0.0,0.0,0.0,0.0,0.0,-0.8804,-0.8804,-0.8804,-0.8864,-0.9084,-0.9439,-0.9686,-0.9706,-1.0174,-1.0915,-1.2017,-1.2251,0.0,-1.3367,0.0,0.0,0.0,0.0,0.0,0.0,0.0,0.0,0.0,0.0,0.0,0.0,0.0,0.0,0.0,0.0,0.0,0.0,0.0,0.0,0.0,0.0,0.0,0.0,0.0,-1.7615,-1.7615,-1.7615,-1.7622,-1.7655,-1.8223,-1.8196,-1.7655,-1.7923,-1.7889,-1.7602,-1.7308,-1.7321,-1.7508,-1.6981,-1.6907,-1.7094,-1.684,-1.6547,-1.6273,-1.6246,-1.7091,-1.8133,0.0,0.0,0.0,0.0,0.0,0.0,0.0,0.0,0.0,0.0,0.0,0.0,0.0,0.0,0.0,0.0,0.0,0.0,0.0,0.0,-0.6032,-0.6303,-0.723,-0.7833,-0.8075,-0.9284,-1.0154,-1.0624,-1.0488,-1.0494,-1.0601,-0.9589,-0.9272,-0.9392,-0.9098,-0.8911,-0.8804,-0.8804,-0.8804,-0.8804,-0.8804,-0.8804,0.0,0.0,0.0,0.0,0.0,0.0,0.0,0.0,-0.8804,-0.8804,-0.8804,-0.8804,-0.8804,-0.8804,-0.8804,-0.8831,-0.8938,-0.9319,-0.9726,-0.9907,-1.0394,0.0,0.0,-1.2732,-1.3387,-1.4282,-1.4696,0.0,0.0,0.0,0.0,0.0,0.0,0.0,0.0,0.0,0.0,0.0,0.0,0.0,0.0,0.0,0.0,0.0,0.0,0.0,0.0,0.0,0.0,0.0,0.0,-1.7041,-1.7041,-1.7041,-1.7041,-1.7041,-1.7462,-1.7629,-1.7582,-1.7515,-1.7428,-1.7308,-1.7194,-1.7001,-1.6767,-1.672,-1.6553,-1.6319,-1.6206,-1.6092,-1.5999,-1.5999,-1.6957,-1.8323,0.0,0.0,0.0,0.0,0.0,0.0,0.0,0.0,0.0,0.0,0.0,0.0,0.0,0.0,0.0,0.0,0.0,0.0,0.0,-0.5462,-0.5923,-0.6195,-0.6961,-0.7318,-0.7311,-0.8527,-0.935,-0.9781,-0.936,-0.9119,-0.911,-0.8369,-0.8214,-0.8703,-0.8511,-0.8593,-0.8804,-0.8804,-0.8804,-0.8804,-0.8804,-0.8804,0.0,0.0,0.0,0.0,0.0,0.0,0.0,0.0,-0.8804,-0.8804,-0.8804,-0.8804,-0.8804,-0.8804,-0.8804,-0.8804,-0.8804,-0.9165,-0.9613,-0.9907,0.0,0.0,-1.2365,-1.328,-1.4195,-1.5177,-1.5384,0.0,0.0,0.0,0.0,0.0,0.0,0.0,0.0,0.0,0.0,0.0,0.0,0.0,0.0,0.0,0.0,0.0,0.0,0.0,0.0,0.0,0.0,0.0,0.0,0.0,-1.6707,-1.6707,-1.6707,-1.6707,-1.682,-1.7021,-1.7295,-1.7101,-1.7007,-1.7007,-1.6914,-1.6693,-1.6413,-1.642,-1.6192,-1.5832,-1.5832,-1.5832,-1.5838,-1.5939,-1.7215,-1.8973,0.0,0.0,0.0,0.0,0.0,0.0,0.0,0.0,0.0,0.0,0.0,0.0,0.0,0.0,0.0,0.0,0.0,0.0,-0.528,-0.6095,-0.6912,-0.7616,-0.6966,-0.6912,-0.767,-0.7305,-0.7364,-0.8005,-0.7647,-0.7364,-0.7079,-0.6748,-0.6966,-0.767,-0.767,-0.8103,-0.8804,-0.8804,-0.8804,-0.8804,-0.8804,-0.8804,-0.8804,0.0,0.0,0.0,0.0,0.0,0.0,0.0,-0.8804,-0.8804,-0.8804,-0.8804,-0.8804,-0.8804,-0.8804,-0.8804,-0.8804,-0.8964,-0.9256,-0.9619,0.0,0.0,-1.2946,-1.3895,-1.485,-1.6025,0.0,-1.5491,0.0,0.0,0.0,0.0,0.0,0.0,0.0,0.0,0.0,0.0,0.0,0.0,0.0,0.0,0.0,0.0,0.0,0.0,0.0,0.0,0.0,0.0,0.0,0.0,-1.67,-1.67,-1.67,-1.6693,-1.6406,-1.642,-1.6707,-1.67,-1.67,-1.6687,-1.64,-1.6433,-1.6653,-1.6072,-1.5832,-1.5832,-1.5832,-1.5832,-1.5865,-1.6159,-1.7868,-2.0118,0.0,0.0,0.0,0.0,0.0,0.0,0.0,0.0,0.0,0.0,0.0,0.0,0.0,0.0,0.0,0.0,0.0,0.0,-0.4707,-0.498,-0.5226,-0.5441,-0.571,-0.571,-0.5441,-0.5329,-0.598,-0.7348,-0.675,-0.6554,-0.6743,-0.6272,-0.6346,-0.6972,-0.7571,-0.7888,-0.8049,-0.8593,-0.8804,-0.8804,-0.8804,-0.8804,-0.8804,0.0,0.0,0.0,0.0,0.0,0.0,0.0,0.0,0.0,-0.8804,-0.8804,-0.8804,-0.8804,-0.8427,-0.8049,-0.8049,-0.804,0.0,-0.8234,0.0,0.0,0.0,-1.3566,0.0,0.0,0.0,0.0,0.0,0.0,0.0,0.0,0.0,0.0,0.0,0.0,0.0,0.0,0.0,0.0,0.0,0.0,0.0,0.0,0.0,0.0,0.0,0.0,0.0,0.0,0.0,0.0,-1.6086,-1.6086,-1.6086,-1.6086,-1.6005,-1.6219,-1.67,-1.6493,-1.64,-1.6393,-1.6306,-1.6199,-1.6072,-1.5899,-1.5832,-1.5832,-1.5832,-1.5832,-1.5838,-1.5925,-1.7669,-2.0077,0.0,0.0,0.0,0.0,0.0,0.0,0.0,0.0,0.0,0.0,-0.3581,0.0,0.0,0.0,0.0,0.0,0.0,0.0,0.0,0.0,-0.4597,-0.4804,-0.5023,-0.4897,-0.4519,-0.4519,-0.5005,-0.6057,-0.5603,-0.5545,-0.5773,-0.5445,-0.5605,-0.6204,-0.6989,-0.7477,-0.7723,-0.848,-0.8804,-0.8804,-0.8804,-0.8804,-0.8804,0.0,0.0,0.0,0.0,0.0,0.0,0.0,0.0,0.0,-0.8804,-0.8586,-0.8374,-0.8374,-0.783,-0.7235,-0.7235,-0.7374,0.0,-0.789,-0.9394,-1.1118,-1.2464,0.0,0.0,0.0,0.0,0.0,0.0,0.0,0.0,0.0,0.0,0.0,0.0,0.0,0.0,0.0,0.0,0.0,0.0,0.0,0.0,0.0,0.0,0.0,0.0,0.0,0.0,0.0,0.0,0.0,-1.5045,-1.554,-1.5832,-1.5832,-1.5832,-1.6012,-1.6353,-1.6172,-1.6092,-1.6092,-1.6092,-1.5999,-1.5832,-1.5832,-1.5832,-1.5832,-1.5832,-1.5832,-1.5832,-1.5832,-1.7507,-1.9878,0.0,0.0,0.0,0.0,0.0,0.0,0.0,0.0,0.0,0.0,-0.3581,-0.3629,0.0,0.0,0.0,0.0,0.0,0.0,0.0,0.0,-0.471,-0.5205,-0.4765,-0.4519,-0.4519,-0.4519,-0.4519,-0.4519,-0.4519,-0.4519,-0.4519,-0.4532,-0.4857,-0.5433,-0.6277,-0.6987,-0.767,-0.848,-0.8804,-0.8804,-0.8804,-0.8804,-0.8804,-0.8804,0.0,0.0,0.0,0.0,0.0,0.0,0.0,0.0,-0.8646,-0.8209,-0.767,-0.7616,-0.7074,-0.6485,-0.6505,0.0,0.0,-0.8087,-0.9155,0.0,0.0,0.0,0.0,0.0,0.0,0.0,0.0,0.0,0.0,0.0,0.0,0.0,0.0,0.0,0.0,0.0,0.0,0.0,0.0,0.0,0.0,0.0,0.0,0.0,0.0,0.0,0.0,0.0,0.0,0.0,-1.368,-1.4949,-1.5635,0.0,-1.573,-1.5832,-1.5832,-1.5832,-1.5832,-1.5832,-1.5832,-1.5832,-1.5832,-1.5832,-1.5832,-1.5832,-1.5832,-1.5832,-1.5832,-1.5832,-1.739,-1.9497,0.0,0.0,0.0,0.0,0.0,0.0,0.0,0.0,0.0,0.0,0.0,0.0,0.0,0.0,0.0,0.0,0.0,0.0,0.0,0.0,-0.4381,-0.4682,-0.4553,-0.4519,-0.4519,-0.4519,-0.4519,-0.4519,-0.4519,-0.4519,-0.4519,-0.4585,-0.4688,-0.4794,-0.6202,-0.6854,-0.6912,-0.8262,-0.8804,-0.8804,-0.8804,-0.8804,-0.8804,-0.8804,-0.8804,0.0,0.0,0.0,0.0,0.0,0.0,0.0,-0.745,-0.7343,-0.7563,-0.702,-0.6308,-0.5795,-0.5953,-0.5771,0.0,0.0,-0.8324,0.0,0.0,0.0,0.0,0.0,0.0,0.0,0.0,0.0,0.0,0.0,0.0,0.0,0.0,0.0,0.0,0.0,0.0,0.0,0.0,0.0,0.0,0.0,0.0,0.0,0.0,0.0,0.0,0.0,0.0,-1.2334,-1.2334,-1.3686,-1.4268,0.0,-1.5343,-1.5832,-1.5832,-1.5832,-1.5832,-1.5832,-1.5832,-1.5832,-1.5832,-1.5832,-1.5832,-1.5832,-1.5832,-1.5832,-1.5832,-1.5832,-1.739,-1.9497,0.0,0.0,0.0,0.0,0.0,0.0,0.0,0.0,0.0,0.0,0.0,0.0,0.0,0.0,0.0,0.0,0.0,0.0,0.0,0.0,0.0,-0.4358,-0.429,-0.4284,-0.4358,-0.4362,-0.4392,-0.4519,-0.4519,-0.4519,-0.4522,-0.4619,-0.4609,-0.4577,-0.6192,-0.6789,-0.6696,-0.8156,-0.8804,-0.8804,-0.8804,-0.8804,-0.8804,-0.8804,-0.8804,-0.8804,-0.8804,0.0,0.0,0.0,0.0,0.0,0.0,0.0,-0.6578,-0.6199,-0.5601,-0.5022,-0.517,0.0,0.0,-0.6247,0.0,0.0,0.0,0.0,0.0,0.0,0.0,0.0,0.0,0.0,0.0,0.0,0.0,0.0,0.0,0.0,0.0,0.0,0.0,0.0,0.0,0.0,0.0,0.0,0.0,0.0,0.0,0.0,0.0,0.0,-1.0819,-1.0815,-1.0918,-1.2161,-1.283,-1.2835,-1.3532,-1.4274,-1.4949,-1.5534,-1.5832,-1.5832,-1.5832,-1.5832,-1.5832,-1.5832,-1.5832,-1.5832,-1.5832,-1.5832,-1.5825,-1.648,-1.7855,-1.9579,0.0,0.0,0.0,0.0,0.0,0.0,0.0,0.0,0.0,0.0,0.0,0.0,0.0,0.0,0.0,0.0,0.0,0.0,0.0,0.0,0.0,0.0,-0.3981,-0.3949,-0.4068,-0.4068,-0.4126,-0.4294,-0.4408,-0.4532,-0.456,-0.4606,-0.4582,-0.4577,-0.5987,-0.6582,-0.6529,-0.799,-0.8593,-0.8593,-0.8593,-0.8593,-0.8593,-0.848,-0.8427,-0.8427,-0.8427,-0.8427,-0.8315,-0.7557,0.0,0.0,0.0,0.0,-0.5487,-0.5378,-0.4948,-0.4522,-0.4549,0.0,-0.5474,-0.6424,0.0,0.0,0.0,0.0,0.0,0.0,0.0,0.0,0.0,0.0,0.0,0.0,0.0,0.0,0.0,0.0,0.0,0.0,0.0,0.0,0.0,0.0,0.0,0.0,0.0,0.0,0.0,0.0,-0.9499,-0.9378,-0.9235,-0.9226,-0.9382,-1.0702,-1.1382,-1.1422,-1.1935,-1.2909,-1.4262,-1.5343,-1.5832,-1.5832,-1.5832,-1.5832,-1.5832,-1.5832,-1.5832,-1.5832,-1.5832,-1.5832,-1.592,-1.6943,-1.8133,-1.9314,0.0,0.0,0.0,0.0,0.0,0.0,0.0,0.0,0.0,0.0,0.0,0.0,0.0,0.0,0.0,0.0,0.0,0.0,-0.4197,0.0,0.0,-0.4056,-0.3688,-0.3473,-0.3432,-0.349,-0.3498,-0.3456,-0.4181,-0.4587,-0.4657,-0.4601,-0.4536,-0.4519,-0.5352,-0.5673,-0.576,-0.723,-0.783,-0.783,-0.783,-0.783,-0.7777,-0.7128,-0.6912,-0.6912,-0.6912,-0.6912,-0.6799,-0.6032,-0.6199,0.0,0.0,0.0,0.0,-0.4787,-0.457,-0.4546,0.0,0.0,-0.5837,0.0,0.0,0.0,0.0,0.0,0.0,0.0,0.0,0.0,0.0,0.0,0.0,0.0,0.0,0.0,0.0,0.0,0.0,0.0,0.0,0.0,0.0,0.0,0.0,0.0,0.0,0.0,0.0,-0.8975,-0.8983,-0.7907,-0.7886,-0.7886,-0.7907,-0.9194,-0.9921,-1.0096,-1.2502,-1.4268,-1.554,-1.573,-1.5832,-1.5832,-1.5832,-1.5832,-1.5832,-1.5832,-1.5832,-1.5832,-1.5832,-1.5832,-1.5825,-1.6015,-1.685,-1.7963,0.0,0.0,0.0,0.0,0.0,0.0,0.0,0.0,0.0,0.0,0.0,0.0,0.0,0.0,0.0,-0.3887,-0.4033,-0.4107,-0.419,-0.3822,-0.353,-0.3476,-0.288,-0.2499,-0.2549,-0.2986,-0.3229,-0.3287,-0.4125,-0.4553,-0.4562,-0.4582,-0.4677,-0.4896,-0.56,-0.5835,-0.5846,-0.7127,-0.7456,-0.7128,-0.7509,-0.7456,-0.7074,-0.6696,-0.6588,-0.6588,-0.6588,-0.6588,-0.6475,-0.576,-0.5706,-0.5819,-0.4791,0.0,0.0,0.0,-0.4519,0.0,-0.465,-0.505,0.0,0.0,0.0,0.0,0.0,0.0,0.0,0.0,0.0,0.0,0.0,0.0,0.0,0.0,0.0,0.0,0.0,0.0,0.0,0.0,0.0,0.0,0.0,0.0,0.0,0.0,0.0,0.0,-0.7183,-0.7607,-0.7779,-0.7336,-0.7265,-0.7302,-0.7468,-0.8015,-0.8411,-0.8671,-1.1416,-1.2587,-1.2619,-1.4076,-1.5146,-1.5832,-1.5832,-1.5832,-1.5832,-1.5832,-1.5832,-1.5832,-1.5832,-1.5832,-1.592,-1.6574,-1.7225,-1.7777,0.0,0.0,0.0,0.0,0.0,0.0,0.0,0.0,0.0,0.0,0.0,0.0,0.0,0.0,0.0,0.0,-0.387,-0.3801,-0.3658,-0.3131,-0.2814,-0.2814,-0.2035,-0.1676,-0.1776,-0.2473,-0.2938,-0.301,-0.4015,-0.4536,-0.458,-0.4677,-0.4887,-0.5128,-0.5649,-0.5758,-0.5663,-0.6784,-0.6856,-0.6367,-0.6907,-0.6799,-0.6312,-0.615,-0.6046,-0.6046,-0.6046,-0.6046,-0.5987,-0.5437,-0.5273,-0.5164,0.0,0.0,0.0,0.0,0.0,0.0,0.0,0.0,0.0,0.0,0.0,0.0,0.0,0.0,0.0,0.0,0.0,0.0,0.0,0.0,0.0,0.0,0.0,0.0,0.0,0.0,0.0,0.0,0.0,0.0,0.0,0.0,0.0,0.0,0.0,0.0,-0.6702,-0.6702,-0.68,-0.7021,-0.6963,-0.7034,-0.7258,-0.7333,-0.7663,-0.8167,-1.0184,-1.0853,-1.043,-1.2437,-1.3779,-1.4747,-1.5177,-1.5343,-1.5337,-1.5635,-1.5832,-1.5832,-1.5832,-1.5832,-1.592,-1.685,-1.7225,-1.7311,0.0,0.0,0.0,0.0,0.0,0.0,0.0,0.0,0.0,0.0,0.0,0.0,-0.3581,-0.3836,-0.4009,-0.4009,-0.3629,-0.3068,-0.2183,-0.2071,-0.2071,-0.2071,-0.1478,0.0,-0.117,-0.1893,-0.2227,-0.223,-0.379,-0.4591,-0.468,-0.4833,-0.4989,-0.5125,-0.4989,-0.4824,-0.4657,0.0,0.0,0.0,-0.5597,-0.5597,-0.5487,-0.4842,0.0,0.0,0.0,0.0,0.0,0.0,0.0,0.0,0.0,0.0,0.0,0.0,0.0,0.0,0.0,0.0,0.0,0.0,0.0,0.0,0.0,0.0,0.0,0.0,0.0,0.0,0.0,0.0,0.0,0.0,0.0,0.0,0.0,0.0,0.0,0.0,0.0,0.0,0.0,0.0,0.0,0.0,0.0,0.0,-0.6702,-0.6702,-0.6709,-0.6722,-0.6858,-0.6936,-0.6953,-0.7231,-0.8007,-0.9194,-0.9451,-1.0278,-1.14,-1.1579,-1.1671,-1.1789,-1.3377,-1.3974,-1.407,-1.5337,-1.5832,-1.5832,-1.5832,-1.5832,-1.5832,-1.5825,-1.592,-1.592,0.0,0.0,0.0,0.0,0.0,0.0,0.0,0.0,0.0,0.0,0.0,0.0,0.0,-0.2973,-0.3113,-0.2611,-0.2523,-0.2366,-0.202,-0.1627,-0.1427,-0.1427,-0.0778,-0.0392,-0.0392,-0.1118,-0.1507,-0.1507,-0.301,-0.3758,-0.3863,-0.4465,-0.4748,-0.4707,-0.4853,-0.4857,-0.4803,-0.5385,0.0,0.0,0.0,0.0,-0.4842,0.0,0.0,0.0,0.0,0.0,0.0,0.0,0.0,0.0,0.0,0.0,0.0,0.0,0.0,0.0,0.0,0.0,0.0,0.0,0.0,0.0,0.0,0.0,0.0,0.0,0.0,0.0,0.0,0.0,0.0,0.0,0.0,0.0,0.0,0.0,0.0,0.0,0.0,0.0,0.0,0.0,0.0,0.0,0.0,0.0,-0.6271,-0.6363,-0.6505,-0.6695,-0.6753,-0.6871,-0.7061,-0.717,-0.7541,-0.8091,-0.8956,-0.923,-0.8983,-0.9802,-0.9802,-0.908,-1.0506,-1.2062,-1.3844,-1.4392,-1.5045,-1.5832,-1.5832,-1.5832,-1.5832,-1.5832,-1.5832,-1.5832,0.0,0.0,0.0,0.0,0.0,0.0,0.0,0.0,0.0,-0.2139,0.0,0.0,0.0,0.0,-0.2316,-0.1614,-0.1653,-0.1568,-0.1352,-0.0939,-0.0727,-0.0727,-0.028,0.0,0.0,-0.0727,-0.1118,-0.1118,-0.2565,-0.3345,-0.3403,-0.4223,-0.4558,-0.4525,-0.4674,-0.4765,0.0,0.0,0.0,-0.4519,0.0,0.0,-0.4545,0.0,0.0,0.0,0.0,0.0,0.0,0.0,0.0,0.0,0.0,0.0,0.0,0.0,0.0,0.0,-0.4519,0.0,0.0,0.0,0.0,0.0,0.0,0.0,0.0,0.0,0.0,0.0,0.0,0.0,0.0,0.0,0.0,0.0,0.0,0.0,0.0,0.0,0.0,0.0,0.0,0.0,0.0,0.0,0.0,0.0,-0.6027,-0.6129,-0.6318,-0.6614,-0.6624,-0.6766,-0.7065,-0.7068,-0.7143,-0.7292,-0.8181,-0.8151,-0.7444,-0.8345,-0.8253,-0.7448,-0.8406,-1.0371,-1.2932,-1.3555,-1.4527,-1.5691,-1.5792,-1.5832,-1.5832,-1.5832,-1.5832,-1.5832,0.0,0.0,0.0,0.0,0.0,0.0,0.0,0.0,0.0,-0.1008,0.0,0.0,0.0,0.0,0.0,-0.1114,-0.1062,-0.0783,-0.0056,0.0,0.0,0.0,0.0,0.0,0.0,-0.0727,-0.1062,-0.1062,-0.2565,-0.3287,0.0,0.0,-0.4519,-0.4519,-0.4519,-0.4519,-0.4529,0.0,-0.4599,-0.4519,0.0,-0.4551,-0.4701,0.0,0.0,0.0,-0.4904,-0.4809,0.0,0.0,0.0,0.0,0.0,0.0,0.0,0.0,0.0,0.0,0.0,0.0,0.0,0.0,0.0,0.0,0.0,0.0,0.0,0.0,0.0,0.0,0.0,0.0,0.0,0.0,0.0,0.0,0.0,0.0,0.0,0.0,0.0,0.0,0.0,0.0,0.0,0.0,0.0,-0.5861,-0.601,-0.603,-0.6169,-0.6464,-0.6474,-0.662,-0.6919,-0.6922,-0.699,-0.7129,-0.7129,-0.7129,-0.7132,-0.7132,-0.7136,-0.7149,-0.7299,-0.8806,-1.137,-1.3014,-1.4347,-1.5411,-1.5705,-1.5812,-1.5818,-1.5825,-1.5832,-1.5832,0.0,0.0,0.0,0.0,0.0,0.0,0.0,0.0,-0.1109,0.0,0.0,0.0,-0.0629,-0.0541,-0.0499,-0.0336,-0.028,-0.0224,0.0,0.0,0.0,0.0,0.0,0.0,0.0,-0.0224,-0.028,-0.028,-0.1786,0.0,0.0,0.0,0.0,0.0,-0.4519,-0.4519,-0.4522,-0.4563,0.0,0.0,-0.4519,-0.4543,0.0,0.0,0.0,0.0,0.0,-0.4219,0.0,0.0,-0.3178,-0.2565,0.0,0.0,0.0,0.0,0.0,0.0,-0.3511,0.0,0.0,0.0,0.0,0.0,0.0,0.0,0.0,0.0,0.0,0.0,0.0,0.0,0.0,0.0,0.0,0.0,0.0,0.0,0.0,0.0,0.0,0.0,0.0,0.0,0.0,0.0,-0.561,-0.5667,-0.5708,-0.602,-0.6281,-0.6468,-0.658,-0.6678,-0.6763,-0.6763,-0.6783,-0.682,-0.682,-0.6878,-0.6987,-0.6987,-0.7044,-0.7143,-0.7183,-0.8112,-0.9687,-1.1308,-1.3226,-1.511,-1.5404,-1.5518,-1.5538,-1.5752,-1.5832,-1.5832,0.0,0.0,0.0,0.0,0.0,0.0,0.0,-0.0766,-0.0896,0.0,0.0,0.0,-0.0109,0.0,0.0,0.0,0.0,0.0,0.0,0.0,0.0,0.0,0.0,0.0,0.0,0.0,0.0,0.0,-0.1174,-0.173,-0.1786,0.0,0.0,0.0,0.0,0.0,0.0,0.0,0.0,0.0,-0.4519,0.0,0.0,-0.4629,-0.4477,0.0,0.0,0.0,-0.3009,-0.2927,-0.2565,0.0,0.0,0.0,0.0,0.0,0.0,0.0,0.0,0.0,0.0,0.0,0.0,0.0,0.0,0.0,0.0,0.0,0.0,0.0,0.0,0.0,0.0,0.0,0.0,0.0,0.0,0.0,0.0,0.0,0.0,0.0,0.0,0.0,0.0,0.0,-0.5481,-0.5521,-0.5586,-0.5895,-0.6135,-0.6281,-0.6373,-0.6481,-0.6603,-0.6607,-0.6637,-0.6702,-0.6702,-0.6749,-0.6834,-0.6834,-0.6878,-0.6956,-0.6956,-0.7677,-0.8875,-0.9795,-1.1777,-1.4161,-1.4916,-1.5217,-1.5237,-1.5404,-1.5545,-1.5651,0.0,0.0,0.0,0.0,0.0,0.0,0.0,-0.0537,-0.0727,0.0,0.0,0.0,0.0,0.0,0.0,0.0,0.0,0.0,0.0,0.0,0.0,0.0,0.0,0.0,0.0,0.0,0.0,0.0,-0.0727,-0.1118,-0.1118,-0.2565,-0.3289,0.0,0.0,0.0,0.0,0.0,0.0,-0.4405,-0.446,-0.4545,0.0,0.0,-0.4258,0.0,-0.3648,-0.3101,-0.2293,-0.2049,-0.1952,0.0,0.0,0.0,0.0,0.0,-0.1952,0.0,0.0,0.0,0.0,0.0,0.0,0.0,-0.4236,-0.4463,-0.4519,0.0,0.0,0.0,0.0,0.0,0.0,0.0,0.0,0.0,0.0,0.0,0.0,0.0,0.0,0.0,0.0,0.0,-0.5515,-0.5515,-0.5403,-0.5403,-0.5555,-0.5701,-0.5847,-0.6,-0.6006,-0.6132,-0.6393,-0.6413,-0.6491,-0.6627,-0.6644,-0.6661,-0.6675,-0.6675,-0.6685,-0.6702,-0.6702,-0.7351,-0.8493,-0.8573,-1.0243,-1.2873,-1.4244,-1.4821,-1.4917,-1.495,-1.5124,-1.5351,0.3635,0.0,0.0,0.0,0.0,0.0,0.0,0.0,-0.0168,0.0,0.0,0.0,0.0,0.0,0.0,0.0,0.0,0.0,0.0,0.0,0.0,0.0,0.0,0.0,0.0,0.0,0.0,0.0,-0.0727,-0.1118,-0.1118,-0.2009,-0.2788,-0.34,0.0,0.0,0.0,0.0,0.0,-0.368,-0.4239,0.0,-0.3548,-0.3629,-0.3126,-0.2503,-0.2503,-0.2049,-0.1251,0.0,-0.0448,-0.0392,0.0,0.0,0.0,0.0,0.0,0.0,0.0,0.0,0.0,0.0,0.0,0.0,-0.3566,-0.407,-0.4519,0.0,0.0,0.0,0.0,0.0,0.0,0.0,0.0,0.0,0.0,0.0,0.0,0.0,0.0,0.0,0.0,0.0,-0.505,-0.505,-0.5128,-0.5243,-0.5399,-0.5549,-0.5698,-0.584,-0.5844,-0.5874,-0.5932,-0.6054,-0.6132,-0.6162,-0.6288,-0.6407,-0.6515,-0.6515,-0.6583,-0.6702,-0.6702,-0.6881,-0.7156,-0.8048,-1.0016,-1.2428,-1.3043,-1.3787,-1.4636,-1.4877,-1.4997,-1.5084,0.3441,0.0,0.0,0.0,0.0,0.0,0.0,0.0,0.0,0.0,0.0,0.0,0.0,0.0,0.0,0.0,0.0,0.0,0.0,0.0,0.0,0.0,0.0,0.0,0.0,0.0,0.0,0.0,-0.0392,-0.056,-0.056,-0.1284,0.0,0.0,0.0,0.0,0.0,0.0,-0.349,-0.2853,-0.3646,0.0,-0.2732,-0.2732,-0.2286,-0.1675,-0.1675,-0.1174,-0.0505,-0.0114,0.0,0.0,0.0,0.0,0.0,0.0,0.0,-0.0056,0.0,0.0,0.0,-0.1452,0.0,0.0,0.0,-0.3065,0.0,0.0,0.0,0.0,0.0,0.0,0.0,0.0,0.0,0.0,0.0,0.0,0.0,0.0,0.0,0.0,0.0,0.0,-0.4488,-0.4857,-0.4986,-0.5057,-0.5138,-0.5281,-0.543,-0.5579,-0.5654,-0.5728,-0.58,-0.5878,-0.5915,-0.5918,-0.6074,-0.6183,-0.6254,-0.6332,-0.641,-0.6481,-0.6481,-0.6522,-0.6668,-0.7226,-0.8591,-1.046,-1.1889,-1.3205,-1.4322,-1.4469,-1.4623,-1.4783,0.3273,0.0,0.0,0.0,0.0,0.0,0.0,0.0,0.0,0.0,0.0,0.0,0.0,0.0,0.0,0.0,0.0,0.0,0.0,0.0,0.0,0.0,0.0112,0.0224,0.0224,0.0224,0.0224,0.0224,0.0056,0.0,0.0,-0.0615,0.0,0.0,0.0,0.0,0.0,0.0,0.0,-0.2029,0.0,-0.2544,-0.1989,-0.1976,-0.1522,-0.0902,-0.0897,-0.0504,0.0,0.0,0.0,0.0,0.0,0.0,0.0,0.0,0.0,0.0,0.0,0.0,0.0,0.0,0.0,-0.1229,0.0,0.0,0.0,0.0,0.0,0.0,0.0,0.0,0.0,0.0,0.0,0.0,0.0,0.0,0.0,0.0,0.0,0.0,0.0,0.0,-0.4165,-0.477,-0.4857,-0.4874,-0.4874,-0.5009,-0.5159,-0.5311,-0.5437,-0.5569,-0.5715,-0.5745,-0.5762,-0.5762,-0.5915,-0.6,-0.6034,-0.6129,-0.6203,-0.6335,-0.623,-0.6298,-0.643,-0.643,-0.7232,-0.8611,-1.0789,-1.2551,-1.3743,-1.3917,-1.4188,-1.4476,0.4092,0.3635,0.0,0.0,0.0,0.0,0.0,0.0,0.0,0.0,0.0,0.0,0.0,0.0,0.0,0.0,0.0,0.0,0.0,0.0,0.0,0.0,0.0626,0.095,0.095,0.095,0.095,0.095,0.0336,0.0,0.0,-0.0112,0.0,0.0,-0.1282,0.0,0.0,0.0,-0.1897,0.0,-0.1328,-0.1306,0.0,-0.124,-0.076,-0.0117,-0.0113,-0.0056,0.0,0.0,0.0,0.0,0.0,0.0,0.0,0.0,0.0,0.0,0.0,0.0,0.0,0.0,-0.0615,0.0,0.0,0.0,0.0,0.0,0.0,0.0,0.0,0.0,0.0,0.0,0.0,0.0,0.0,0.0,0.0,0.0,0.0,0.0,0.0,0.0,0.0,-0.4514,-0.464,-0.4718,-0.4718,-0.486,-0.5009,-0.5152,-0.5172,-0.5257,-0.541,-0.5545,-0.5613,-0.5616,-0.5759,-0.5898,-0.6027,-0.5908,-0.6003,-0.6254,-0.6115,-0.6142,-0.6285,-0.6285,-0.707,-0.8343,-0.9651,-1.1024,-1.2425,-1.3352,-1.3881,-1.4175,0.3778,0.3875,0.0,0.0,0.0,0.0,0.0,0.0,0.0,0.0,0.0,0.0,0.0,0.0,0.0,0.0,0.0,0.0,0.0,0.0,0.0,0.0,0.0,0.0,0.1093,0.1522,0.1507,0.1118,0.0783,0.0392,0.0,0.0,0.0,0.0,-0.0887,0.0,-0.0926,0.0,0.0,0.0,0.0,0.0,0.0,-0.047,-0.0286,0.0,0.0,0.0,0.0,0.0,0.0,0.0,0.0,0.0,0.0,0.0,0.0,0.0,0.0,0.0,0.0,0.0,0.0,0.0,0.0,0.0,-0.09,0.0,0.0,0.0,0.0,0.0,0.0,0.0,0.0,0.0,0.0,0.0,0.0,0.0,0.0,0.0,0.0,0.0,0.0,0.0,0.0,-0.4558,-0.4558,-0.429,-0.4392,-0.4874,-0.4525,-0.4634,-0.5226,-0.5291,-0.5369,-0.546,-0.5606,-0.5711,-0.5776,-0.5793,-0.5871,-0.5996,-0.602,-0.6067,-0.6132,-0.6224,-0.6602,-0.7211,-0.8291,-0.9697,-1.12,-1.1621,-1.1865,-1.2118,0.3735,0.0,0.0,0.0,0.0,0.0,0.0,0.0,0.0,0.0,0.0,0.0,0.0382,0.0458,0.0,0.0,0.0,0.0454,0.0,0.0,0.0,0.0,0.0,0.0,0.0,0.0,0.2206,0.1473,0.1235,0.0727,0.0,0.0,0.0,0.0,0.0,-0.0497,-0.0054,0.0,0.0,0.0,0.0,0.0,0.0,0.0,0.0,0.0,0.0,0.0,0.0,0.0,0.0,0.0,0.0,0.0,0.0,0.0,0.0,0.0,0.0,0.0,0.0,0.0,0.0,0.0,0.0,0.0,0.0,0.0,0.0,0.0,0.0,0.0,0.0,0.0,0.0,0.0,0.0,0.0,0.0,0.0,0.0,0.0,0.0,0.0,0.0,0.0,-0.4519,0.0,-0.4184,-0.3767,-0.3716,-0.41,-0.3657,-0.3755,-0.4436,-0.4439,-0.4501,-0.4635,-0.5004,-0.5164,-0.524,-0.551,-0.5725,-0.5803,-0.5878,-0.5956,-0.6034,-0.6105,-0.6186,-0.6335,-0.7046,-0.8164,-0.9441,-0.999,-1.0447,-1.0631,0.446,0.4463,0.0,0.0,0.0,0.0,0.0,0.0,0.0,0.0,0.0,0.0,0.0,0.0,0.0,0.0,0.0,0.1578,0.1528,0.0,0.0,0.0,0.0,0.2479,0.0,0.0,0.0,0.0,0.0,0.0,0.0,0.0,0.0,0.0,0.0,0.0,0.0,0.0,0.0,0.0,0.0,0.0,0.0,0.0,0.0,0.0,0.0,0.0,0.0,0.0,0.0,0.0,0.0,0.0,0.0,0.0,0.0,0.0,0.0,0.0,0.0,0.0,0.0,0.0,0.0,0.0,0.0,0.0,0.0,0.0,0.0,0.0,0.0,0.0,0.0,0.0,0.0,0.0,0.0,0.0,0.0,0.0,0.0,0.0,0.0,0.0,-0.4519,0.0,-0.3456,-0.3347,-0.306,-0.2576,-0.2523,-0.2625,-0.277,-0.277,-0.281,-0.2825,-0.3663,-0.4106,-0.4253,-0.5029,-0.5532,-0.5793,-0.5661,-0.5766,-0.602,-0.5874,-0.5993,-0.6247,-0.6095,-0.6297,-0.69,-0.9066,-1.0231,-1.0611,0.0,0.0,0.0,0.0,0.0,0.0,0.0,0.1974,0.0,0.0,0.0,0.0,0.0,0.0,0.2913,0.0,0.0,0.2191,0.1605,0.1165,0.0,0.0,0.0,0.2751,0.0,0.0,0.0,0.0,0.0,0.0,0.0,0.0,0.0,0.0,0.0,0.0,0.0,0.0,0.0,0.0,0.0,0.0,0.0,0.0,0.0,0.0,0.0,0.0,0.0,0.0,0.0,0.0,0.0,0.0,0.0,0.0,0.0,0.0,0.0,0.0,0.0,0.0,0.0,0.0,0.0,0.0,0.0,0.0,0.0,0.0,0.0,0.0,0.0,0.0,0.0,0.0,0.0,0.0,0.0,0.0,0.0,0.0,0.0,0.0,0.0,-0.3735,-0.3735,-0.3846,0.0,-0.3121,-0.2691,-0.3004,-0.2099,-0.1904,-0.2561,-0.2556,-0.2618,-0.2693,-0.3008,-0.3465,-0.4071,-0.437,-0.487,-0.5511,-0.5566,-0.5647,-0.5749,-0.5891,-0.6013,-0.6112,-0.6162,-0.6302,-0.6568,-0.7449,-0.7907,-0.8123,0.5597,0.0,0.0,0.0,0.0,0.0,0.0,0.0,0.0,0.0,0.2373,0.0,0.2833,0.0,0.3995,0.0,0.3874,0.3262,0.255,0.2114,0.0,0.1648,0.2507,0.0,0.0,0.0,0.0,0.0,0.0,0.2763,0.0,0.0,0.0,0.0,0.0,0.0,0.0,0.0,0.0,0.0,0.0,0.0,0.0,0.0,0.0,0.0,0.0,0.0,0.0,0.0,0.0,0.0,0.0,0.0168,0.0392,0.0392,0.0392,0.0448,0.0727,0.0616,0.0,0.0727,0.0783,0.0,0.0448,0.0,0.0,0.0,0.0,0.0,0.0,0.0,0.0,0.0,0.0,0.0,0.0,0.0,0.0,0.0,0.0,0.0,0.0,0.0,-0.2397,-0.2954,-0.2954,-0.301,0.0,0.0,-0.1898,-0.212,-0.1229,-0.1023,-0.1584,-0.1618,-0.1667,-0.1734,-0.2029,-0.2521,-0.3078,-0.3413,-0.4015,-0.4894,-0.4984,-0.5261,-0.5599,-0.5735,-0.5884,-0.6034,-0.6081,-0.622,-0.642,-0.6624,-0.6827,-0.7017,0.0,0.0,0.0,0.0,0.4599,0.0,0.0,0.0,0.4233,0.0,0.39,0.4011,0.4855,0.4947,0.5271,0.5979,0.5271,0.0,0.425,0.3434,0.0,0.0,0.3409,0.3791,0.3867,0.0,0.0,0.0,0.0,0.0,0.0,0.0,0.0,0.0,0.1174,0.0,0.0056,0.0056,0.0056,0.0056,0.0056,0.0056,0.0056,0.0056,0.0,0.0059,0.0,0.0,0.0056,0.0056,0.0056,0.0112,0.0112,0.0616,0.1174,0.1174,0.1174,0.1284,0.2009,0.1675,0.134,0.2009,0.0,0.0,0.0,0.0,0.095,0.0,0.0,0.0,0.0,0.0,0.0,0.0056,0.0112,0.0112,0.0056,0.0,0.0,0.0,0.0,0.0,0.0,-0.1675,-0.212,-0.212,-0.2119,0.0,0.0,0.0,0.0,-0.0056,0.0,0.0,0.0,0.0,0.0,0.0,-0.0839,-0.1243,-0.134,-0.2209,-0.3078,-0.3949,-0.3949,-0.4487,-0.5428,-0.5369,-0.5564,-0.5932,-0.5874,-0.6006,-0.6305,-0.6586,-0.6871,-0.7119,0.6529,0.5445,0.4667,0.0,0.4741,0.4765,0.0,0.0,0.0,0.0,0.4583,0.4828,0.4997,0.5708,0.612,0.6213,0.5767,0.0,0.0,0.0,0.0,0.339,0.366,0.4007,0.4457,0.474,0.0,0.4556,0.0,0.0,0.324,0.0,0.0,0.0,0.0,0.0,0.0839,0.0839,0.0839,0.0839,0.0839,0.0794,0.0,0.0,0.08,0.0761,0.017,0.0336,0.0839,0.0839,0.1174,0.1619,0.1619,0.1786,0.1898,0.1898,0.1898,0.1952,0.2174,0.2063,0.1952,0.2174,0.2174,0.2174,0.0,0.0,0.0,0.0,0.0,0.0,0.0,0.0,0.0,0.0,0.1284,0.0,0.0,0.0,0.0,0.0,0.0,0.0,0.0,-0.0448,-0.0783,-0.134,-0.1396,0.0,0.0,0.0,0.0,-0.0839,-0.028,0.0,0.0,0.0,0.0,0.0,-0.0196,-0.0668,-0.134,-0.1541,-0.2143,-0.3011,-0.3011,-0.3159,-0.3527,-0.4346,-0.4816,-0.4991,-0.5839,-0.6254,-0.6427,-0.6505,-0.6651,-0.6814,0.7058,0.0,0.0,0.5186,0.0,0.0,0.541,0.0,0.0,0.5358,0.5586,0.0,0.5702,0.6109,0.6295,0.6078,0.5901,0.0,0.0,0.0,0.0,0.4264,0.4215,0.4372,0.4694,0.4775,0.0,0.4819,0.0,0.0,0.41,0.0,0.0,0.0,0.0,0.2286,0.0,0.1563,0.1563,0.1563,0.1563,0.0,0.0,0.1574,0.1582,0.1547,0.1125,0.1229,0.1563,0.1563,0.1842,0.2174,0.2174,0.2454,0.2732,0.2732,0.2732,0.2788,0.3121,0.2954,0.2788,0.3121,0.3231,0.3121,0.2788,0.2676,0.251,0.0,0.0,0.0,0.0,0.0,0.0,0.0,0.0,0.0,0.0,0.0,0.0,0.0,0.0,0.0,0.0,0.0,0.0,0.0,0.0,0.0,0.0,0.0,0.0,-0.0615,-0.0231,0.0,0.0,0.0,0.0,0.0,0.0,-0.0268,-0.0726,-0.0735,-0.12,-0.2108,-0.2066,-0.2344,-0.2751,-0.3457,-0.4046,-0.4589,-0.5831,-0.6071,-0.5738,-0.6218,-0.6515,-0.6702,0.0,0.0,0.0,0.0,0.0,0.0,0.0,0.6146,0.0,0.6458,0.0,0.6644,0.6488,0.6329,0.6115,0.5827,0.0,0.5647,0.5352,0.5332,0.5254,0.5081,0.4826,0.468,0.466,0.468,0.0,0.0,0.0,0.0,0.4718,0.0,0.0,0.0,0.0,0.0,0.0,0.2343,0.2343,0.0,0.2343,0.2343,0.2343,0.2343,0.2343,0.2343,0.2454,0.2454,0.2343,0.2343,0.2397,0.2508,0.2508,0.2954,0.3569,0.3569,0.3569,0.368,0.4349,0.4012,0.3622,0.4349,0.4519,0.4294,0.3622,0.3511,0.3345,0.2508,0.2343,0.2343,0.0,0.0,0.0,0.0,0.0,0.0,0.0,0.0,0.0,0.0,0.0,0.0,0.0,0.0,0.0,0.0,0.0,0.0,0.0,0.0,0.0,0.0,0.0,0.0,0.0,0.0,0.0,0.0,0.0,0.0,0.0,0.0,-0.0397,-0.1103,-0.1129,-0.1608,-0.2345,-0.2487,-0.3267,-0.439,-0.5436,-0.53,-0.4608,-0.555,-0.6019,-0.6309,0.0,0.0,0.0,0.0,0.0,0.6427,0.6529,0.659,0.6586,0.6485,0.6607,0.0,0.6488,0.623,0.6,0.5817,0.5694,0.0,0.0,0.0,0.0,0.4779,0.4718,0.4629,0.456,0.4626,0.4752,0.0,0.4877,0.4877,0.4874,0.0,0.0,0.0,0.0,0.0,0.3121,0.3121,0.0,0.3121,0.3178,0.3178,0.3178,0.3121,0.3121,0.3176,0.3846,0.3677,0.3121,0.3121,0.3566,0.407,0.407,0.4184,0.4294,0.4294,0.4294,0.4349,0.446,0.4405,0.4349,0.446,0.4519,0.446,0.4349,0.4294,0.407,0.3345,0.3178,0.301,0.2341,0.0,0.0,0.0,0.0,0.0,0.0,0.0,0.0,0.0,0.0,0.0,0.0,0.0,0.0,0.0,0.0,0.0,0.0,0.0,0.0,0.0,0.0,0.0,0.0,0.0,0.0,0.0,0.0,0.0,0.0,0.0,-0.0066,-0.0201,-0.0202,-0.0337,-0.0539,-0.1444,-0.2433,-0.3375,-0.3557,-0.3534,-0.3435,-0.3593,-0.3688,-0.3953,0.0,0.0,0.0,0.0,0.0,0.0,0.0,0.8365,0.0,0.6892,0.6634,0.6556,0.6481,0.6135,0.5881,0.581,0.5599,0.5376,0.5145,0.506,0.4921,0.4701,0.4616,0.0,0.4519,0.4591,0.4684,0.4918,0.484,0.4877,0.5023,0.0,0.0,0.0,0.0,0.4337,0.0,0.0,0.0,0.3901,0.3959,0.3959,0.3959,0.3956,0.3901,0.3956,0.4349,0.4239,0.3901,0.3901,0.4181,0.4519,0.4519,0.4519,0.4519,0.4519,0.4519,0.4519,0.4519,0.4519,0.4519,0.4519,0.4519,0.4519,0.4519,0.4519,0.4405,0.407,0.3959,0.3846,0.3456,0.3735,0.0,0.0,0.0,0.0,0.0,0.0,0.0,0.0,0.0,0.0,0.0,0.0,0.0,0.0,0.0,0.0,0.0,0.0,0.0,0.0,0.0,0.0,0.0,0.0,0.0,0.0,0.0,0.0,0.0,0.0,0.0,0.0,0.0,0.0,-0.0068,-0.1176,-0.1573,-0.1631,-0.2703,-0.2757,-0.2347,-0.289,-0.3124,-0.3357,0.0,0.987,0.0,0.0,0.9733,0.0,0.0,1.0019,0.988,0.7828,0.7319,0.719,0.701,0.6474,0.6072,0.6037,0.5648,0.5294,0.5142,0.4999,0.485,0.4697,0.4545,0.4519,0.4519,0.4519,0.4596,0.0,0.4782,0.4857,0.0,0.0,0.0,0.0,0.0,0.0,0.0,0.0,0.4519,0.4519,0.4519,0.4519,0.4519,0.4519,0.4519,0.4519,0.4519,0.4519,0.4519,0.4519,0.4519,0.4519,0.4519,0.4519,0.4519,0.4519,0.4519,0.4519,0.4519,0.4519,0.4519,0.4519,0.4519,0.4519,0.4519,0.4519,0.4519,0.4519,0.4519,0.4519,0.4519,0.4519,0.0,0.0,0.0,0.0,0.0,0.0,0.0,0.0,0.0,0.0,0.0,0.0,0.0,0.0,0.0,0.0,0.0,0.0,0.0,0.0,0.0,0.0,0.0,0.0,0.0,0.0,0.0,0.0,0.0,0.0,0.0,0.0,0.0,0.0,-0.0068,-0.0894,-0.0778,-0.0146,-0.1784,-0.1984,-0.1333,-0.2111,-0.2422,-0.2578,0.0,0.0,0.0,0.0,0.0,0.0,0.0,1.0564,1.0512,0.9727,0.9609,0.936,0.8625,0.7699,0.7074,0.6842,0.5922,0.5294,0.5142,0.4999,0.485,0.4697,0.4545,0.4519,0.4519,0.4519,0.4545,0.0,0.0,0.4911,0.0,0.0,0.0,0.0,0.0,0.0,0.0,0.4522,0.4519,0.4519,0.4519,0.4519,0.4519,0.4519,0.4519,0.4519,0.4519,0.4519,0.4519,0.4519,0.4519,0.4519,0.4519,0.4519,0.4519,0.4519,0.4519,0.4519,0.4519,0.4519,0.4519,0.4519,0.4519,0.4519,0.4519,0.4519,0.4519,0.4519,0.4519,0.4519,0.4519,0.4519,0.4519,0.0,0.0,0.0,0.0,0.0,0.0,0.0,0.0,0.0,0.0,0.0,0.0,0.0,0.0,0.0,0.0,0.0,0.0,0.0,0.0,0.0,0.0,0.0,0.0,0.0,0.0,0.0,0.0,0.0,0.0,0.0,0.0,0.0,0.0,-0.0135,-0.007,0.0,-0.0219,-0.0226,-0.0157,-0.0235,-0.0314,-0.0471,0.0,0.0,0.0,0.0,0.0,0.0,0.0,1.2157,1.2356,1.1962,1.0551,0.9511,0.904,0.8288,0.7775,0.7695,0.6768,0.6085,0.5805,0.5251,0.4809,0.4565,0.4553,0.4519,0.4519,0.4519,0.4594,0.0,0.0,0.0,0.0,0.0,0.0,0.0,0.0,0.4572,0.4596,0.4556,0.4519,0.4519,0.4519,0.4519,0.4519,0.4519,0.4519,0.4519,0.4519,0.4519,0.4519,0.4519,0.4519,0.4519,0.4519,0.4519,0.4519,0.4519,0.4519,0.4519,0.4519,0.4519,0.4519,0.4519,0.4519,0.4519,0.4519,0.4519,0.4519,0.4519,0.4519,0.4519,0.4519,0.4519,0.4519,0.0,0.0,0.0,0.0,0.0,0.0,0.0,0.0,0.0,0.0,0.0,0.0,0.0,0.0,0.0,0.0,0.0,0.0,0.1525,0.0,0.1509,0.153,0.1477,0.1188,0.0667,0.0644,0.0453,0.0,0.0,0.0,0.0,0.0,0.0,0.0,0.0,0.0,0.0,0.0,0.0,0.0,0.0,0.0,-0.0079,1.4202,0.0,1.3587,0.0,1.3496,1.3541,1.2979,1.331,1.3474,1.3006,1.1348,1.0089,0.978,0.9109,0.8611,0.8543,0.7654,0.6839,0.6267,0.5658,0.5092,0.4597,0.4543,0.0,0.4787,0.4787,0.4953,0.5247,0.5185,0.0,0.0,0.0,0.0,0.0,0.4626,0.4565,0.4616,0.4563,0.4519,0.4519,0.4519,0.4519,0.4519,0.4519,0.4519,0.4519,0.4519,0.4519,0.4519,0.4519,0.4519,0.4519,0.4519,0.4519,0.4519,0.4519,0.4519,0.4519,0.4519,0.4519,0.4519,0.4519,0.4519,0.4519,0.4519,0.4519,0.4519,0.4519,0.4519,0.4519,0.4519,0.4519,0.4519,0.4519,0.0,0.0,0.0,0.0,0.0,0.0,0.0,0.3677,0.3735,0.0,0.0,0.0,0.0,0.0,0.0,0.0,0.0,0.0,0.0,0.0,0.0,0.2542,0.2257,0.1563,0.155,0.1176,0.0404,0.0404,0.0538,0.0807,0.0807,0.0807,0.0807,0.0807,0.0833,0.08,0.0509,0.0451,0.0471,0.0079,0.0,0.0,1.4456,1.4282,1.4175,1.4469,1.4275,1.3988,1.3612,1.3566,1.3327,1.2432,1.2058,1.1764,1.1401,1.0356,0.955,0.9297,0.8484,0.7545,0.6455,0.6267,0.5727,0.0,0.0,0.4787,0.5487,0.5483,0.5873,0.6593,0.0,0.0,0.5785,0.0,0.484,0.4694,0.4691,0.4606,0.4522,0.4519,0.4519,0.4519,0.4519,0.4519,0.4519,0.4519,0.4519,0.4519,0.4519,0.4519,0.4519,0.4519,0.4519,0.4519,0.4519,0.4519,0.4519,0.4519,0.4519,0.4519,0.4519,0.4519,0.4519,0.4519,0.4519,0.4519,0.4519,0.4519,0.4519,0.4519,0.4519,0.4519,0.4519,0.4519,0.4519,0.4519,0.0,0.0,0.0,0.0,0.0,0.0,0.4519,0.4463,0.4463,0.0,0.0,0.0,0.0,0.0,0.0,0.0,0.0,0.2516,0.2518,0.0,0.2673,0.2722,0.2722,0.2676,0.2664,0.2213,0.1273,0.1273,0.1809,0.2678,0.2678,0.2678,0.2678,0.2678,0.2768,0.2759,0.1671,0.1425,0.1489,0.0392,0.0,0.0,1.4208,1.4155,1.4115,1.4208,1.3981,1.3754,1.3661,1.3293,1.2859,1.2365,1.187,1.1456,1.1162,1.0673,1.0271,0.0,0.9396,0.8633,0.0,0.733,0.6662,0.6045,0.5968,0.6041,0.6258,0.6253,0.6367,0.6588,0.0,0.0,0.0,0.5086,0.468,0.4594,0.5258,0.5438,0.5226,0.5965,0.6114,0.5937,0.5937,0.5937,0.5937,0.5937,0.5937,0.5937,0.5937,0.5937,0.5878,0.5328,0.5164,0.5109,0.4625,0.4519,0.4519,0.4519,0.4519,0.4519,0.4519,0.4519,0.4519,0.4519,0.4519,0.4519,0.4519,0.4838,0.5164,0.5164,0.5164,0.5058,0.457,0.4519,0.4519,0.4519,0.4519,0.0,0.0,0.0,0.0,0.0,0.4519,0.4519,0.0,0.4519,0.0,0.0,0.0,0.0,0.0,0.0,0.0,0.0,0.4196,0.0,0.4352,0.4342,0.4022,0.3443,0.3476,0.3059,0.2275,0.2275,0.241,0.2678,0.2678,0.2678,0.2678,0.2678,0.2768,0.2832,0.2542,0.2471,0.2579,0.2267,0.1644,0.1097,1.4088,1.4088,1.4048,1.3941,1.3768,1.3567,1.334,1.2986,1.2634,1.2037,1.165,1.1276,1.0875,1.0668,0.0,1.0624,1.011,0.9468,0.8783,0.8119,0.7523,0.6956,0.6865,0.6934,0.7209,0.0,0.0,0.745,0.7269,0.6845,0.6122,0.5743,0.551,0.5348,0.6155,0.6392,0.6161,0.6944,0.7084,0.6769,0.6769,0.6718,0.6588,0.6588,0.6588,0.6588,0.6588,0.6588,0.6534,0.6091,0.5923,0.5819,0.5441,0.5281,0.5226,0.4948,0.4897,0.4952,0.5226,0.5281,0.5226,0.4948,0.5062,0.5281,0.5281,0.5605,0.5814,0.5542,0.5487,0.5269,0.4625,0.468,0.4897,0.4897,0.4897,0.4897,0.4897,0.0,0.0,0.0,0.0,0.0,0.0,0.5062,0.0,0.0,0.0,0.0,0.0,0.0,0.0,0.4914,0.5057,0.0,0.5216,0.5216,0.4955,0.4367,0.404,0.3813,0.3682,0.3347,0.3413,0.3747,0.3747,0.3747,0.3747,0.3747,0.3804,0.3916,0.3555,0.3519,0.3667,0.317,0.2637,0.2188,1.4088,1.4088,0.0,0.0,1.3546,0.0,1.2916,1.2788,1.2385,1.1536,1.141,1.1182,1.0685,1.0624,1.0624,1.0624,0.0,0.0,0.0,0.8801,0.8358,0.7613,0.7349,0.7526,0.8279,0.8279,0.8441,0.8838,0.8074,0.7359,0.6701,0.6966,0.69,0.6608,0.726,0.7401,0.7219,0.7502,0.7465,0.726,0.726,0.7067,0.675,0.675,0.675,0.675,0.675,0.675,0.675,0.6696,0.6696,0.6642,0.6588,0.6588,0.6475,0.576,0.5597,0.5706,0.6421,0.6588,0.6421,0.576,0.6091,0.6588,0.6642,0.6696,0.6475,0.5814,0.5651,0.5437,0.4791,0.5164,0.5597,0.5597,0.5597,0.5597,0.5597,0.0,0.0,0.0,0.0,0.0,0.0,0.5982,0.5597,0.0,0.0,0.0,0.0,0.0,0.4955,0.4935,0.5074,0.5216,0.5425,0.5428,0.5428,0.5362,0.4486,0.4553,0.5362,0.4483,0.4553,0.5428,0.5428,0.5432,0.5446,0.5446,0.5552,0.5745,0.4729,0.45,0.4675,0.3583,0.3144,0.3193,0.0,0.0,1.3995,1.3694,1.346,1.3186,1.2882,1.2439,1.1917,1.1483,1.1236,1.0962,1.0665,1.0624,1.0624,1.0624,1.0624,1.0279,0.9577,0.948,0.9131,0.853,0.8454,0.8572,0.8955,0.8955,0.9033,0.9084,0.841,0.7862,0.7456,0.697,0.6693,0.6652,0.7605,0.7994,0.801,0.8856,0.8985,0.8726,0.8726,0.8507,0.8262,0.8262,0.8262,0.8262,0.8262,0.8262,0.8209,0.7616,0.745,0.7343,0.6804,0.6588,0.6588,0.6367,0.6367,0.6367,0.6534,0.6588,0.6534,0.6367,0.6475,0.675,0.7289,0.745,0.7396,0.723,0.7176,0.6961,0.6258,0.6258,0.6367,0.6367,0.6367,0.6367,0.6367,0.6367,0.0,0.0,0.648,0.6588,0.6588,0.6421,0.6367,0.0,0.0,0.0,0.0,0.5477,0.5325,0.5087,0.523,0.5325,0.5428,0.5428,0.5428,0.5428,0.516,0.516,0.5362,0.516,0.516,0.5428,0.5428,0.543,0.5535,0.5535,0.5708,0.5902,0.5677,0.5711,0.586,0.5594,0.4977,0.4292,1.4088,1.4088,1.3955,1.352,1.3313,1.306,1.2612,1.2271,1.1911,1.1483,1.1289,1.1029,1.0672,1.0624,1.0624,1.0624,1.0624,1.049,1.0107,0.9833,0.9599,0.9412,0.9145,0.9145,0.9439,0.9446,0.9379,0.9183,0.8715,0.8359,0.8209,0.7895,0.7784,0.7802,0.87,0.8984,0.8947,0.9781,0.9833,0.9452,0.9586,0.9385,0.9005,0.9005,0.8925,0.8804,0.8804,0.8804,0.8752,0.8321,0.8209,0.8156,0.7723,0.7616,0.7616,0.7616,0.7343,0.7182,0.7509,0.7616,0.7616,0.7616,0.7343,0.7289,0.8049,0.8209,0.8103,0.7777,0.7723,0.745,0.675,0.6858,0.7128,0.7128,0.7128,0.7128,0.7128,0.7128,0.0,0.7128,0.7396,0.7616,0.7616,0.7289,0.7177,0.734,0.0,0.0,0.6671,0.6371,0.5843,0.5138,0.5348,0.5433,0.5428,0.5428,0.5428,0.5428,0.5428,0.5428,0.5428,0.5428,0.562,0.6009,0.6009,0.6262,0.6693,0.6302,0.6301,0.6406,0.612,0.6081,0.6156,0.6156,0.5768,0.5302,1.4573,1.4412,1.4158,1.36,1.3471,1.3169,1.2452,1.2439,1.2182,1.1496,1.1383,1.1156,1.0678,1.0624,1.0624,1.0624,1.0624,1.0604,1.0557,0.9987,0.9773,0.9973,0.9449,0.9379,0.9679,0.9726,0.9606,0.925,0.9018,0.8851,0.8811,0.9058,0.9143,0.9203,0.976,0.9893,0.978,1.0281,1.0207,0.9773,1.0013,0.9793,0.925,0.925,0.9152,0.8938,0.8884,0.8871,0.8864,0.8824,0.8804,0.8804,0.8804,0.8804,0.8804,0.8804,0.8374,0.7996,0.8646,0.8804,0.8804,0.8804,0.8321,0.8049,0.8646,0.8804,0.8646,0.7996,0.7883,0.767,0.7074,0.745,0.7883,0.7883,0.7883,0.7883,0.7883,0.0,0.7883,0.7883,0.8427,0.8824,0.8871,0.8271,0.8051,0.8377,0.7868,0.7678,0.0,0.7432,0.6701,0.5686,0.5599,0.5528,0.5463,0.5617,0.5617,0.5463,0.5617,0.5603,0.5428,0.5582,0.6036,0.6719,0.685,0.7326,0.7962,0.7342,0.7091,0.7078,0.6397,0.6141,0.6141,0.5993,0.5993,0.5993,1.6772,1.6034,1.5345,1.505,1.4683,1.3987,1.2878,1.2976,1.2711,1.1538,1.1209,1.0929,1.0658,1.0624,1.0624,1.0624,1.0624,1.0454,1.02,0.9873,0.9593,0.9329,0.923,0.9379,0.9679,0.9927,0.9907,0.9613,0.9319,0.9051,0.8804,0.8851,0.9005,0.919,0.9276,0.9626,1.0053,1.0147,1.0134,1.0053,1.01,0.9913,0.9613,0.9613,0.9586,0.9512,0.9265,0.9117,0.9084,0.8891,0.8804,0.8804,0.8804,0.8804,0.8804,0.8804,0.8699,0.8646,0.8752,0.8804,0.8804,0.8804,0.8699,0.8646,0.8752,0.8804,0.8752,0.8646,0.8646,0.8593,0.848,0.854,0.8646,0.8646,0.8646,0.8646,0.8646,0.0,0.8646,0.8646,0.8752,0.8905,0.9097,0.9062,0.9125,0.942,0.8902,0.873,0.9064,0.8607,0.8329,0.8255,0.6517,0.5579,0.5555,0.6503,0.6503,0.5555,0.6573,0.6421,0.5432,0.6293,0.6676,0.6719,0.7502,0.7936,0.8183,0.8015,0.8059,0.8079,0.7237,0.6909,0.6837,0.6122,0.5837,0.5837,1.7342,1.6927,1.6427,1.5881,1.5583,1.5148,1.4258,1.4212,1.4026,1.3264,1.3081,1.2869,1.26,1.2123,1.1739,1.1568,1.1111,1.0668,1.0374,1.008,0.9853,0.9719,0.9566,0.9613,0.9913,0.9893,0.982,0.9686,0.9232,0.8938,0.8811,0.8965,0.9198,0.9486,0.9639,0.9866,1.0127,1.0287,1.0267,1.0134,1.0294,1.018,0.99,0.9746,0.9586,0.9406,0.9112,0.9005,0.8985,0.8851,0.8804,0.8804,0.8804,0.8804,0.8804,0.8804,0.8804,0.8804,0.8804,0.8804,0.8804,0.8804,0.8804,0.8804,0.8804,0.8804,0.8804,0.8804,0.8804,0.8804,0.8804,0.8804,0.8804,0.8804,0.8804,0.0,0.0,0.8938,0.9038,0.9038,0.9185,0.9332,0.9466,0.9479,0.9666,1.012,0.9749,0.98,1.0394,0.9691,0.9264,0.9275,0.7979,0.7246,0.7078,0.7743,0.7743,0.7146,0.7818,0.7633,0.6802,0.7453,0.7836,0.8091,0.8549,0.9003,0.945,0.9053,0.8891,0.8829,0.8111,0.7504,0.7011,0.7174,0.6576,0.5885,1.806,1.7908,1.7447,1.6775,1.659,1.6246,1.5458,1.5426,1.5312,1.4797,1.4678,1.4613,1.4321,1.3627,1.3103,1.269,1.1826,1.1187,1.0884,1.0465,1.0187,1.012,0.9907,0.992,1.0214,0.9933,0.9786,0.9786,0.9198,0.8945,0.9018,0.911,0.9432,0.9793,1.0013,1.0154,1.0234,1.0461,1.0428,1.0241,1.053,1.0421,1.0194,0.9973,0.9746,0.9499,0.9138,0.9011,0.8991,0.8851,0.8804,0.8804,0.8804,0.8804,0.8804,0.8804,0.8804,0.8804,0.8804,0.8804,0.8804,0.8804,0.8804,0.8804,0.8804,0.8804,0.8804,0.8804,0.8804,0.8804,0.8804,0.8804,0.8804,0.8804,0.0,0.0,0.0,0.9158,0.9345,0.9345,0.9546,0.9706,0.978,0.9786,1.0,1.0584,1.0408,1.0615,1.1289,1.0617,1.0206,1.0086,0.9226,0.8651,0.8358,0.8959,0.8959,0.8358,0.8911,0.878,0.8037,0.8456,0.8904,0.9338,0.953,0.9977,1.0575,1.0003,0.9735,0.9651,0.8899,0.8186,0.7632,0.8201,0.7534,0.6417,2.0323,1.952,1.8743,1.8234,1.7868,1.7103,1.579,1.6085,1.6069,1.4865,1.4678,1.4613,1.4321,1.4213,1.3998,1.357,1.2788,1.2138,1.1732,1.0961,1.0408,1.0127,1.0094,1.0227,1.0584,1.0234,1.0087,1.0087,0.9435,0.9345,0.9613,0.9359,0.9489,1.0087,1.0107,1.0267,1.0528,1.0611,1.0611,1.0598,1.0618,1.0611,1.0591,1.0571,1.0544,1.045,0.982,0.9619,0.9539,0.8991,0.8804,0.8804,0.8804,0.8804,0.8804,0.8804,0.8804,0.8804,0.8804,0.8804,0.8804,0.8804,0.8804,0.8804,0.8804,0.8804,0.8804,0.8804,0.8804,0.8804,0.8804,0.8804,0.8804,0.8804,0.0,0.0,0.915,0.9459,0.9653,0.9653,0.9666,0.9786,1.006,1.0087,1.0214,1.0598,1.0788,1.0955,1.1022,1.1208,1.1273,1.1253,0.9522,0.8453,0.8233,0.9857,0.9857,0.8238,0.9645,0.9494,0.8032,0.8986,0.9371,0.9338,1.0174,1.0561,1.0624,1.0518,1.067,1.0738,0.9669,0.9325,0.9382,0.8648,0.8184,0.7912,2.0566,2.0245,1.9792,1.9033,1.8995,1.8591,1.73,1.7535,1.759,1.6825,1.6779,1.6723,1.6643,1.6057,1.5551,1.5156,1.4338,1.3565,1.2987,1.2649,1.1874,1.0463,1.0388,1.0448,1.0618,1.0267,1.0114,1.0114,0.9713,0.9573,0.9686,0.9753,0.99,1.0127,1.0307,1.0454,1.0624,1.0624,1.0624,1.0624,1.0624,1.0624,1.0584,1.0154,1.0127,1.0187,0.9419,0.9252,0.9345,0.8945,0.8804,0.8804,0.8804,0.8804,0.8804,0.8804,0.8804,0.8804,0.8804,0.8804,0.8804,0.8804,0.8804,0.8851,0.9031,0.9072,0.9132,0.9312,0.9352,0.9352,0.9352,0.9778,0.9937,0.9457,0.0,1.0837,1.0333,1.0962,1.1523,1.1523,1.1227,1.1034,1.1157,1.0691,1.0588,1.1062,1.1035,1.1229,1.1777,1.1737,1.1697,1.1697,1.1051,1.0578,1.0475,1.1307,1.1301,1.0475,1.1206,1.1043,1.0147,1.0698,1.0789,1.0366,1.0698,1.0728,1.0624,1.0624,1.0692,1.0715,1.0276,0.9953,0.9716,0.991,0.944,0.8713,2.0566,2.0566,2.0332,1.9609,1.9727,1.9521,1.8379,1.8447,1.8486,1.8066,1.8008,1.8008,1.8008,1.7432,1.6903,1.6561,1.5703,1.4889,1.4256,1.3794,1.294,1.1435,1.1115,1.0989,1.0989,1.078,1.0608,1.0608,1.06,1.0675,1.071,1.0826,1.082,1.0615,1.0892,1.0863,1.0624,1.0863,1.08,1.0624,1.0863,1.0807,1.0571,1.0239,1.0345,1.0551,0.9845,0.9656,0.9695,0.9245,0.9228,0.9291,0.9141,0.9263,0.9413,0.9413,0.9413,0.9435,0.9588,0.9662,0.9489,0.893,0.8804,0.8884,0.9117,0.9398,0.9653,0.9677,1.0077,1.0358,1.0128,1.0743,1.1076,1.0523,1.1461,1.2044,1.1524,1.2173,1.2705,1.2705,1.2369,1.2205,1.2205,1.15,1.1238,1.1646,1.1404,1.153,1.2131,1.1891,1.177,1.1864,1.187,1.1911,1.2004,1.2204,1.2111,1.173,1.2024,1.1904,1.143,1.1637,1.151,1.1129,1.1129,1.1015,1.0822,1.0735,1.0755,1.0815,1.0698,1.0464,1.0306,1.0824,1.0418,0.9721,2.0566,2.0566,2.043,1.999,1.9912,1.9629,1.8699,1.8562,1.8486,1.8066,1.8008,1.8008,1.8008,1.8008,1.7842,1.7422,1.6599,1.5933,1.5542,1.4311,1.3443,1.3025,1.2266,1.1834,1.1834,1.1834,1.1834,1.1834,1.2349,1.2721,1.3,1.2705,1.2305,1.1834,1.1834,1.1351,1.0688,1.1469,1.1351,1.0688,1.1469,1.1344,1.0647,1.0991,1.142,1.176,1.1431,1.1115,1.0808,1.0038,1.0144,1.0409,0.9971,1.0261,1.0813,1.0813,1.0813,1.0896,1.1364,1.1517,1.1072,0.9295,0.8811,0.8891,0.9178,0.9885,1.0357,0.9856,1.0986,1.1872,1.1084,1.16,1.2111,1.2111,1.2421,1.2605,1.2605,1.2846,1.3009,1.3009,1.3009,1.3009,1.3009,1.2507,1.2186,1.2193,1.2005,1.1942,1.1942,1.159,1.1563,1.1935,1.1942,1.2083,1.2298,1.2298,1.2011,1.1436,1.173,1.1717,1.143,1.143,1.143,1.143,1.143,1.143,1.1403,1.1109,1.1162,1.1363,1.0782,1.0915,1.1383,1.1096,1.0995,1.0995,2.0566,2.0566,2.043,1.999,2.0166,1.998,1.8809,1.8896,1.8828,1.8105,1.8008,1.8008,1.8008,1.8008,1.7959,1.7832,1.76,1.7283,1.6871,1.5892,1.5308,1.5196,1.3561,1.2634,1.2634,1.2634,1.2634,1.2634,1.2781,1.2901,1.3,1.2901,1.2781,1.2634,1.2634,1.252,1.2274,1.2512,1.252,1.2274,1.2581,1.2316,1.1856,1.2102,1.2177,1.2201,1.1969,1.1937,1.1963,1.1242,1.1064,1.1141,1.0629,1.0669,1.0813,1.0813,1.0813,1.0896,1.1364,1.1517,1.1452,1.1184,1.1115,1.1209,1.15,1.1808,1.1962,1.2019,1.2389,1.2761,1.2765,1.3484,1.3943,1.3709,1.4675,1.5263,1.4738,1.4974,1.5186,1.5186,1.4385,1.3951,1.4294,1.366,1.3421,1.3913,1.4111,1.423,1.423,1.4128,1.412,1.4222,1.423,1.4277,1.4307,1.3665,1.286,1.2037,1.2769,1.2769,1.2037,1.2037,1.2281,1.2702,1.2702,1.2841,1.292,1.2253,1.1876,1.161,1.0876,1.0788,1.1109,1.1022,1.1122,1.1269,2.0566,2.0566,2.0478,2.0215,2.0391,2.0244,1.9287,1.9228,1.9043,1.835,1.8115,1.8008,1.8008,1.8008,1.8008,1.8008,1.8008,1.7832,1.7412,1.6719,1.6328,1.6328,1.4814,1.3786,1.3485,1.3485,1.3485,1.3485,1.3786,1.3974,1.3974,1.3974,1.3786,1.3485,1.3485,1.3312,1.3009,1.3373,1.3304,1.3009,1.3373,1.3117,1.267,1.2881,1.3031,1.3083,1.2952,1.2949,1.2958,1.2336,1.2025,1.1913,1.1884,1.1758,1.1669,1.182,1.1864,1.2031,1.2636,1.2788,1.2878,1.328,1.2763,1.2195,1.2514,1.299,1.3322,1.3264,1.3898,1.4444,1.4348,1.5043,1.5512,1.5294,1.6074,1.6529,1.6055,1.6162,1.6328,1.6328,1.5657,1.5284,1.5598,1.4923,1.4603,1.4861,1.511,1.5234,1.5234,1.5234,1.5234,1.5234,1.5234,1.5234,1.5234,1.495,1.4371,1.3448,1.4027,1.4027,1.3448,1.3448,1.3705,1.4081,1.4081,1.4114,1.4173,1.3571,1.3048,1.2656,1.2026,1.1845,1.1949,1.2014,1.2073,1.2211,2.0644,2.0634,2.0712,2.0644,2.0566,2.042,1.998,1.9561,1.9131,1.8691,1.8271,1.8008,1.8008,1.8008,1.8008,1.8008,1.8008,1.7842,1.7461,1.7031,1.6787,1.6787,1.5937,1.5107,1.4387,1.435,1.4332,1.4332,1.505,1.541,1.541,1.541,1.4991,1.4332,1.4332,1.3906,1.3252,1.4025,1.3906,1.3312,1.4025,1.3828,1.3228,1.3625,1.3996,1.4245,1.4237,1.4107,1.3855,1.3387,1.294,1.2626,1.333,1.3271,1.3018,1.3437,1.3564,1.374,1.4561,1.4814,1.4941,1.5361,1.3983,1.2598,1.2855,1.377,1.4436,1.3953,1.5414,1.6475,1.5771,1.6249,1.6743,1.6782,1.6846,1.6846,1.6846,1.6816,1.6787,1.6787,1.6758,1.6748,1.6787,1.6346,1.5898,1.5492,1.5446,1.5446,1.5446,1.5446,1.5446,1.5446,1.5446,1.5446,1.5446,1.6289,1.6219,1.5234,1.5305,1.5305,1.5234,1.5234,1.5234,1.5305,1.5305,1.5334,1.532,1.4915,1.4539,1.4088,1.3683,1.3487,1.3369,1.3487,1.3487,1.3361,2.0934,2.1155,2.1441,2.0712,2.0566,2.042,1.998,1.9561,1.9131,1.8691,1.8271,1.8008,1.8008,1.8008,1.8008,1.8008,1.8008,1.7969,1.7881,1.748,1.7246,1.7246,1.6387,1.5858,1.5677,1.534,1.5108,1.5108,1.5294,1.541,1.541,1.541,1.5294,1.5108,1.5108,1.505,1.4864,1.505,1.505,1.4864,1.505,1.4859,1.4478,1.483,1.4888,1.4705,1.5021,1.508,1.4975,1.4551,1.3705,1.2926,1.3737,1.3711,1.3457,1.3824,1.3941,1.4111,1.4648,1.5029,1.5381,1.5811,1.5792,1.5657,1.5409,1.5549,1.5792,1.5974,1.6408,1.6772,1.6973,1.7106,1.7353,1.7686,1.7734,1.7734,1.7734,1.7451,1.7246,1.7246,1.6943,1.6865,1.7207,1.7417,1.7483,1.7432,1.7364,1.7364,1.7364,1.7364,1.7364,1.7364,1.7364,1.7364,1.7364,1.7579,1.6862,1.5234,1.5939,1.593,1.5234,1.5234,1.5587,1.628,1.628,1.636,1.6327,1.5622,1.4843,1.4092,1.3395,1.3124,1.3063,1.3124,1.3124,1.3063,2.2188,2.2403,2.2553,2.2038,2.1973,2.1738,2.0984,2.0579,1.9998,1.9076,1.8574,1.8232,1.8037,1.8008,1.8008,1.8008,1.8008,1.8008,1.8008,1.7617,1.7471,1.7676,1.6846,1.6484,1.6689,1.626,1.584,1.541,1.541,1.541,1.541,1.541,1.541,1.541,1.541,1.541,1.541,1.541,1.541,1.541,1.541,1.5283,1.5107,1.5322,1.5273,1.5117,1.5332,1.541,1.5352,1.4932,1.4346,1.3828,1.4062,1.3984,1.3887,1.4316,1.4443,1.4541,1.4971,1.5391,1.5781,1.6066,1.6396,1.667,1.6436,1.6543,1.6758,1.6992,1.7197,1.7412,1.7637,1.7686,1.7754,1.7978,1.8008,1.8008,1.8008,1.7822,1.7686,1.7686,1.748,1.7432,1.7656,1.7881,1.8008,1.8008,1.8008,1.8008,1.8008,1.8008,1.8008,1.8008,1.8008,1.8008,1.8008,1.8008,1.751,1.6515,1.7001,1.7001,1.6515,1.6515,1.6793,1.7285,1.7285,1.7149,1.6977,1.656,1.5867,1.5046,1.4614,1.4315,1.4172,1.4421,1.4493,1.4466,2.3588,2.3672,2.3672,2.3514,2.3514,2.322,2.2403,2.1797,2.098,1.969,1.8978,1.8477,1.8057,1.8144,1.8299,1.8572,1.8377,1.8231,1.8378,1.7849,1.7646,1.7998,1.7266,1.7076,1.756,1.7017,1.6338,1.5527,1.5527,1.5488,1.541,1.541,1.541,1.541,1.541,1.541,1.541,1.541,1.541,1.541,1.541,1.541,1.541,1.541,1.541,1.541,1.541,1.5371,1.5264,1.498,1.4795,1.4639,1.4424,1.4253,1.4326,1.4766,1.4893,1.4971,1.5312,1.5781,1.6182,1.6182,1.6572,1.6953,1.6953,1.7178,1.7402,1.7471,1.7764,1.8008,1.8008,1.8008,1.8037,1.8105,1.8115,1.8115,1.8115,1.8115,1.8086,1.8018,1.8008,1.8008,1.8008,1.8008,1.8008,1.8008,1.8008,1.8008,1.8008,1.8008,1.8047,1.8115,1.8047,1.8047,1.8115,1.8047,1.8008,1.8008,1.8008,1.8008,1.8008,1.8008,1.8008,1.8008,1.8008,1.7734,1.7275,1.7275,1.6748,1.5947,1.5947,1.5732,1.5459,1.582,1.5947,1.5898,2.3806,2.4192,2.4492,2.3672,2.3514,2.3441,2.3294,2.2228,2.1198,2.0676,1.9455,1.8477,1.8057,1.8654,1.9589,2.0853,1.9863,1.9343,1.9808,1.8622,1.7949,1.8008,1.7549,1.7686,1.8415,1.7316,1.6484,1.6037,1.6037,1.5781,1.541,1.541,1.541,1.541,1.541,1.541,1.541,1.541,1.541,1.541,1.541,1.541,1.541,1.541,1.541,1.541,1.541,1.5176,1.4922,1.5225,1.4834,1.4336,1.5019,1.499,1.4785,1.5205,1.5322,1.5342,1.54,1.6016,1.6641,1.6641,1.7246,1.7832,1.7832,1.7607,1.749,1.7852,1.7969,1.8008,1.8008,1.8008,1.8125,1.8496,1.8555,1.8555,1.8555,1.8555,1.8418,1.8057,1.8008,1.8008,1.8008,1.8008,1.8008,1.8008,1.8008,1.8008,1.8008,1.8008,1.8174,1.8545,1.8193,1.8184,1.8545,1.8193,1.8008,1.8008,1.8008,1.8008,1.8008,1.8008,1.8008,1.8008,1.8008,1.7559,1.6816,1.6816,1.6299,1.5498,1.5498,1.5469,1.542,1.5478,1.5498,1.5488,2.5346,2.5511,2.5734,2.5276,2.5205,2.4992,2.4409,2.3781,2.3033,2.2116,2.0883,2.0133,1.9896,1.9975,2.0512,2.1733,2.1019,2.0566,2.0773,1.9802,1.9246,1.9441,1.8792,1.8874,1.9693,1.918,1.8648,1.8233,1.703,1.6211,1.5771,1.5771,1.5644,1.541,1.541,1.541,1.541,1.541,1.541,1.541,1.541,1.541,1.541,1.541,1.541,1.541,1.541,1.5293,1.5156,1.5352,1.5156,1.4912,1.5293,1.5283,1.5215,1.5654,1.5771,1.583,1.6084,1.6611,1.7219,1.7637,1.8243,1.8854,1.9365,1.9337,1.8937,1.8162,1.8008,1.8008,1.8008,1.8008,1.8203,1.8907,1.9005,1.9141,1.967,1.9727,1.9653,1.9452,1.9431,1.9431,1.9431,1.9431,1.9431,1.9431,1.9431,1.9431,1.9431,1.9431,1.9515,1.9727,1.9081,1.8812,1.9005,1.8359,1.8269,1.8721,1.8721,1.8462,1.8008,1.8008,1.8269,1.8721,1.8202,1.8157,1.8406,1.7667,1.7234,1.7069,1.63,1.6036,1.6083,1.6472,1.6358,1.6036]}]]